     2              OBSERVATION DATA    G (GPS)             RINEX VERSION / TYPE
ASRINEXO V2.9.7 UX USGS/MENLO_PARK 23-JUL-01 17:13          PGM / RUN BY / DATE
                                                            COMMENT
National Earthquake Hazard Reduction Program                COMMENT
Crustal Strain Project                                      COMMENT
345 Middlefield Road, MS/977                                COMMENT
U.S. Geological Survey, Menlo Park, California 94025        COMMENT
Contact: kwendt@usgs.gov (Ph: 650-329-4866)                 COMMENT
HI's are vertical to base of antenna                        COMMENT
BIT 2 OF LLI (+4) FLAGS DATA COLLECTED UNDER "AS" CONDITION COMMENT
p229 P_229_1935_USC&GS                                      MARKER NAME
JLS                                                         OBSERVER / AGENCY
4600 ASHTECH Z-XII3 CD00                                    REC # / TYPE / VERS
CR14333 ASH700936D_M NONE                                   ANT # / TYPE
 -2746349.0000 -4015171.0000  4111252.0000                  APPROX POSITION XYZ
        1.3086        0.0000        0.0000                  ANTENNA: DELTA H/E/N
     1     1                                                WAVELENGTH FACT L1/2
     5    C1    L1    L2    P1    P2                        # / TYPES OF OBSERV
    30                                                      INTERVAL
  2001     7    14    16    15    0.000000                  TIME OF FIRST OBS
                                                            END OF HEADER
 01  7 14 16 15  0.0000000  0  9 26 30 23 22 06 18 17 10 15
  22744786.467     -404391.442 8   -316284.18546  22744786.701    22744794.1244
  23847286.340      280088.643 8    196665.40645  23847286.597    23847297.2374
  21175836.511     -385160.976 9   -302299.73047  21175836.304    21175843.5994
  23047076.268     -322419.776 8   -255944.67646  23047074.992    23047083.9684
  20443395.224      -26515.618 9    -40447.44648  20443395.302    20443401.4124
  22239834.876     -537031.010 8   -415906.28746  22239834.433    22239841.7404
  20736305.974     -273977.090 9   -218660.12747  20736305.225    20736312.0744
  23487797.301      242752.152 8    168051.46846  23487796.417    23487804.3124
  21441086.271     -392876.524 9   -308385.71547  21441085.985    21441093.6254
 01  7 14 16 15 30.0000000  0  9 26 30 23 22 06 18 17 10 15
  22733441.107     -464012.366 8   -362741.98146  22733441.197    22733448.7074
  23868004.918      388964.418 8    281503.43445  23868005.603    23868015.7914
  21165296.504     -440549.522 9   -345459.58947  21165296.190    21165303.5174
  23039784.687     -360736.956 8   -285802.19546  23039783.649    23039792.4284
  20448410.442        -160.741 9    -19911.17948  20448410.480    20448416.6174
  22222071.220     -630378.265 8   -488644.30946  22222070.961    22222078.2884
  20730946.620     -302139.751 9   -240605.04347  20730946.065    20730952.9334
  23506781.765      342515.757 8    245789.26446  23506780.814    23506788.9364
  21430181.529     -450182.626 9   -353039.77947  21430181.044    21430188.6594
 01  7 14 16 16  0.0000000  0  9 26 30 23 22 06 18 17 10 15
  22722180.229     -523187.899 8   -408852.73946  22722180.382    22722187.9834
  23888734.737      497899.248 8    366387.48245  23888735.233    23888745.6444
  21154842.384     -495486.552 9   -388267.61647  21154842.008    21154849.3744
  23032595.987     -398513.431 8   -315238.39446  23032595.096    23032603.7154
  20453509.886       26636.274 9       969.61148  20453509.840    20453515.9894
  22204367.042     -723414.038 8   -561139.61546  22204366.777    22204374.0874
  20725636.737     -330043.251 9   -262348.01547  20725636.211    20725643.0834
  23525805.587      442486.911 8    323688.79146  23525804.764    23525812.9484
  21419324.199     -507238.356 9   -397498.74447  21419323.691    21419331.3114
 01  7 14 16 16 30.0000000  0  9 26 30 23 22 06 18 17 10 15
  22711003.911     -581919.557 8   -454617.58846  22711004.089    22711011.8284
  23909474.413      606886.118 8    451312.06445  23909474.784    23909485.4104
  21144473.520     -549975.270 9   -430726.31247  21144473.136    21144480.5034
  23025509.656     -435752.147 8   -344255.55646  23025508.892    23025517.4214
  20458692.602       53871.548 9     22191.90348  20458692.572    20458698.7404
  22186721.682     -816140.787 8   -633394.12247  22186721.423    22186728.7224
  20720375.312     -357692.034 9   -283892.51247  20720374.823    20720381.6874
  23544867.657      542658.694 8    401744.65146  23544866.878    23544875.1184
  21408513.725     -564047.823 9   -441765.81147  21408513.215    21408520.8244
 01  7 14 16 17  0.0000000  0  9 26 30 23 22 06 18 17 10 15
  22699913.043     -640202.132 8   -500032.51646  22699913.247    22699921.0854
  23930223.739      715924.507 8    536276.79945  23930224.170    23930234.9654
  21134190.597     -604012.259 9   -472833.00747  21134190.225    21134197.5734
  23018526.270     -472449.940 8   -372851.22046  23018525.527    23018534.0654
  20463959.148       81547.518 9     43757.59248  20463959.106    20463965.3124
  22169136.024     -908554.135 8   -705404.42247  22169135.717    22169142.9744
  20715162.770     -385084.009 9   -305236.89647  20715162.312    20715169.1624
  23563967.829      643030.675 8    479956.51446  23563967.085    23563975.3814
  21397750.587     -620608.537 9   -485839.04447  21397750.036    21397757.6414
 01  7 14 16 17 30.0000000  0  9 26 30 23 22 06 18 17 10 15
  22688908.371     -698031.203 8   -545094.05546  22688908.546    22688916.6664
  23950982.761      825012.991 8    621280.55745  23950983.169    23950994.1504
  21123994.181     -657594.881 9   -514585.65147  21123993.803    21124001.1364
  23011646.180     -508604.640 8   -401023.69146  23011645.439    23011654.1334
  20469310.024      109666.109 9     65668.18048  20469309.991    20469316.1424
  22151610.695    -1000650.663 8   -777167.85147  22151610.359    22151617.5254
  20709999.455     -412217.640 9   -326379.97647  20709998.986    20710005.8344
  23583106.000      743602.145 8    558323.81045  23583105.276    23583113.6354
  21387035.056     -676918.772 9   -529717.10547  21387034.554    21387042.1574
 01  7 14 16 18  0.0000000  0  9 26 30 23 22 06 18 17 10 15
  22677990.599     -755403.903 8   -589799.96446  22677990.774    22677999.0584
  23971750.949      934149.041 8    706321.37645  23971751.281    23971762.3324
  21113884.377     -710722.260 9   -555983.56147  21113884.012    21113891.2994
  23004869.656     -544215.329 8   -428772.25346  23004868.901    23004877.6364
  20474745.115      138227.581 9     87923.87148  20474745.049    20474751.2234
  22134145.981    -1092427.933 8   -848682.50847  22134145.670    22134152.8504
  20704885.210     -439093.047 9   -347321.83747  20704884.806    20704891.6444
  23602281.737      844370.199 7    636844.30145  23602280.911    23602289.3214
  21376367.285     -732978.201 9   -573399.72947  21376366.769    21376374.3854
 01  7 14 16 18 30.0000000  0  9 26 30 23 22 06 18 17 10 15
  22667160.321     -812316.966 8   -634147.73346  22667160.511    22667168.8984
  23992527.653     1043330.048 8    791397.21945  23992527.889    23992538.9414
  21103861.396     -763393.193 9   -597025.80447  21103861.051    21103868.3254
  22998197.065     -579280.045 8   -456095.39746  22998196.330    22998204.9964
  20480264.574      167232.481 9    110525.09048  20480264.528    20480270.6804
  22116742.426    -1183883.788 8   -919946.71147  22116742.168    22116749.3144
  20699820.206     -465710.039 9   -368062.34147  20699819.803    20699826.6314
  23621494.331      945332.441 7    715516.10945  23621493.440    23621501.9354
  21365747.375     -788786.368 9   -616886.57347  21365746.831    21365754.4364
 01  7 14 16 19  0.0000000  0  9 26 30 23 22 06 18 17 10 15
  22656418.094     -868767.838 8   -678135.36846  22656418.328    22656426.6384
  24013312.406     1152552.965 8    876505.72245  24013312.549    24013323.5674
  21093925.482     -815607.034 9   -637711.86347  21093925.110    21093932.3824
  22991628.513     -613798.079 8   -482992.54046  22991627.807    22991636.4904
  20485868.425      196680.653 9    133471.71448  20485868.378    20485874.5114
  22099400.475    -1275016.620 8   -990959.20447  22099400.124    22099407.2344
  20694804.273     -492068.999 9   -388601.77447  20694803.865    20694810.6784
  23640743.379     1046485.841 7    794336.83845  23640742.283    23640750.7604
  21355175.203     -844343.382 9   -660177.70847  21355174.680    21355182.2684
 01  7 14 16 19 30.0000000  0  9 26 30 23 22 06 18 17 10 15
  22645764.384     -924753.770 8   -721760.68946  22645764.663    22645772.8814
  24034104.517     1261815.008 8    961644.71045  24034104.655    24034115.7254
  21084076.666     -867362.834 9   -678041.01047  21084076.288    21084083.5464
  22985164.084     -647768.816 8   -509463.20746  22985163.402    22985172.1044
  20491556.681      226572.417 9    156764.00048  20491556.581    20491562.6874
  22082120.301    -1365824.292 8  -1061718.33347  22082119.957    22082127.0614
  20689837.442     -518170.030 9   -408940.22447  20689837.044    20689843.8594
  23660028.322     1147827.866 7    873304.61844  23660027.265    23660035.7454
  21344650.940     -899648.949 9   -703272.90447  21344650.386    21344657.9754
 01  7 14 16 20  0.0000000  0  9 26 30 23 22 06 18 17 10 15
  22635199.693     -980271.605 8   -765021.27646  22635200.037    22635208.1404
  24054903.512     1371113.522 8   1046812.13045  24054903.697    24054914.7884
  21074315.246     -918659.368 9   -718012.28447  21074314.875    21074322.1224
  22978803.968     -681191.412 8   -535506.75046  22978803.275    22978811.9294
  20497329.382      256908.134 9    180402.21748  20497329.314    20497335.4254
  22064902.461    -1456304.678 8  -1132222.42747  22064902.086    22064909.1284
  20684919.705     -544013.000 9   -429077.58847  20684919.298    20684926.1064
  23679348.611     1249356.566 7    952417.77544  23679347.858    23679357.4804
  21334174.559     -954702.411 9   -746171.66547  21334174.009    21334181.5954
 01  7 14 16 20 30.0000000  0  9 26 30 23 22 06 18 17 10 15
  22624724.552    -1035318.961 8   -807915.24546  22624724.899    22624732.8274
  24075708.864     1480445.477 8   1132005.60645  24075709.133    24075720.1584
  21064641.315     -969496.269 9   -757625.40647  21064640.923    21064648.1234
  22972548.442     -714065.073 8   -561122.56446  22972547.686    22972556.2304
  20503186.498      287687.582 9    204386.19348  20503186.439    20503192.6044
  22047747.183    -1546456.184 8  -1202470.26147  22047746.783    22047753.7744
  20680050.957     -569598.466 9   -449014.29847  20680050.549    20680057.3534
  23698703.953     1351068.612 6                  23698701.828    23698709.5414
  21323746.120    -1009504.242 9   -788874.34747  21323745.588    21323753.1354
 01  7 14 16 21  0.0000000  0  9 26 30 23 22 06 18 17 10 15
  22614339.541    -1089893.026 8   -850440.43346  22614339.878    22614347.6664
  24096519.843     1589808.122 8   1217222.99045  24096520.245    24096531.3804
  21055054.993    -1019872.578 9   -796879.62847  21055054.619    21055061.7844
  22966397.619     -746388.348 8   -586309.48346  22966396.734    22966405.3504
  20509128.145      318911.121 9    228716.21248  20509128.076    20509134.2724
  22030654.802    -1636276.543 8  -1272460.06047  22030654.446    22030661.4434
  20675231.189     -594926.498 9   -468750.41547  20675230.786    20675237.5924
  23718093.665     1452961.500 6                  23718090.679    23718098.8104
  21313365.629    -1064054.208 9   -831380.76847  21313365.055    21313372.5754
 01  7 14 16 21 30.0000000  0  9 26 30 23 22 06 18 17 10 15
  22604045.080    -1143990.900 8   -892594.57146  22604045.325    22604053.0474
  24117336.465     1699198.980 8   1302462.33045  24117336.875    24117348.0934
  21045556.519    -1069787.147 9   -835774.04747  21045556.155    21045563.3494
  22960351.535     -778160.331 8   -611066.83446  22960350.680    22960359.3684
  20515154.359      350579.149 9    253392.59148  20515154.314    20515160.5434
  22013625.896    -1725763.533 8  -1342190.08347  22013625.554    22013632.5764
  20670460.463     -619996.853 9   -488285.74447  20670460.068    20670466.8924
  23737517.373                                    23737516.781    23737524.2444
  21303033.069    -1118351.792 9   -873690.53247  21303032.537    21303040.0294
 01  7 14 16 22  0.0000000  0  9 26 30 23 22 06 18 17 10 15
  22593841.697    -1197609.734 8   -934375.43446  22593841.929    22593849.5324
  24138157.868     1808615.377 8   1387721.60445  24138158.230    24138169.6464
  21036146.107    -1119239.081 9   -874307.97747  21036145.749    21036152.9614
  22954410.561     -809380.716 8   -635394.36546  22954409.712    22954418.2814
  20521265.159      382691.699 9    278415.35148  20521265.124    20521271.3704
  21996660.755    -1814915.434 8  -1411658.99647  21996660.459    21996667.4424
  20665738.711     -644809.785 9   -507620.48247  20665738.317    20665745.1724
  23756974.541                                    23756975.222    23756986.0004
  21292748.592    -1172397.032 9   -915803.65847  21292748.087    21292755.5394
 01  7 14 16 22 30.0000000  0  8 26 30 23 22 06 18 17 15
  22583730.011    -1250746.750 8   -975780.84145  22583730.219    22583737.6824
  24158983.654     1918054.569 8   1472998.62945  24158984.012    24158995.4424
  21026823.946    -1168227.422 9   -912480.66047  21026823.553    21026830.7874
  22948574.669     -840048.495 8   -659291.28846  22948573.843    22948582.3414
  20527460.614      415249.128 9    303784.76348  20527460.615    20527466.8874
  21979759.844    -1903730.113 8  -1480865.14847  21979759.549    21979766.4954
  20661065.934     -669365.236 9   -526754.58847  20661065.592    20661072.4234
  21282512.290    -1226189.335 9   -957719.69447  21282511.754    21282519.1624
 01  7 14 16 23  0.0000000  0  8 26 30 23 22 06 18 17 15
  22573710.635    -1303399.006 8  -1016808.52945  22573710.755    22573718.1794
  24179813.276     2027513.869 8   1558291.32945  24179813.732    24179825.0924
  21017590.090    -1216751.338 9   -950291.46047  21017589.716    21017596.9784
  22942844.107     -870162.426 8   -682756.65246  22942843.350    22942851.7924
  20533740.867      448251.649 9    329501.00148  20533740.847    20533747.1304
  21962923.455    -1992205.701 8  -1549807.07647  21962923.145    21962930.0414
  20656442.239     -693663.132 9   -545688.00247  20656441.853    20656448.6904
  21272324.055    -1279728.513 9   -999438.48547  21272323.527    21272330.9684
 01  7 14 16 23 30.0000000  0  8 26 30 23 22 06 18 17 15
  22563783.789    -1355564.276 8  -1057456.73945  22563783.928    22563791.4414
  24200646.189     2136990.200 7   1643597.27545  24200646.630    24200657.9874
  21008444.687    -1264810.400 9   -987740.03247  21008444.327    21008451.5894
  22937219.070     -899721.787 8   -705789.87546  22937218.315    22937226.8734
  20540105.722      481699.003 9    355563.86148  20540105.690    20540111.9614
  21946151.925    -2080340.423 8  -1618483.38747  21946151.615    21946158.4894
  20651867.407     -717703.947 9   -564421.09147  20651867.040    20651873.8494
  21262183.933    -1333014.785 9  -1040960.21347  21262183.477    21262190.9214
 01  7 14 16 24  0.0000000  0  8 26 30 23 22 06 18 17 15
  22553950.157    -1407239.715 8  -1097723.26745  22553950.275    22553957.9634
  24221481.775     2246480.978 7   1728914.50245  24221482.217    24221493.7604
  20999387.950    -1312403.748 9  -1024825.71147  20999387.597    20999394.8184
  22931699.632     -928726.096 8   -728390.59546  22931698.875    22931707.5084
  20546555.342      515591.357 9    381973.47448  20546555.276    20546561.4774
  21929445.571    -2168132.365 8  -1686892.60047  21929445.311    21929452.1804
  20647341.509     -741487.788 9   -582953.94147  20647341.113    20647347.9414
  21252092.146    -1386047.698 9  -1082284.51647  21252091.673    21252099.0674
 01  7 14 16 24 30.0000000  0  8 26 30 23 22 06 18 17 15
  22544210.515    -1458422.698 8  -1137606.02046  22544210.598    22544218.1164
  24242319.650     2355983.320 7   1814240.72145  24242319.981    24242331.6654
  20990419.958    -1359530.717 9  -1061547.98147  20990419.615    20990426.8224
  22926285.996     -957175.155 8   -750558.67246  22926285.213    22926293.8294
  20553089.563      549928.678 9    408729.81148  20553089.502    20553095.7204
  21912804.835    -2255579.631 8  -1755033.23547  21912804.581    21912811.4724
  20642864.449     -765014.811 9   -601286.67647  20642864.093    20642870.9314
  21242048.521    -1438827.308 9  -1123411.44147  21242047.996    21242055.4134
 01  7 14 16 25  0.0000000  0  8 26 30 23 22 06 18 17 15
  22534564.860    -1509110.725 8  -1177103.11746  22534564.955    22534572.5674
  24263159.270     2465494.423 7   1899573.75845  24263159.534    24263171.2584
  20981540.910    -1406190.547 9  -1097906.24747  20981540.552    20981547.7024
  22920978.224     -985068.050 8   -772293.35846  22920977.418    22920985.9084
  20559708.415      584710.978 9    435832.88848  20559708.370    20559714.5764
  21896230.141    -2342680.391 8  -1822903.86447  21896229.816    21896236.6504
  20638436.274     -788285.059 9   -619419.32347  20638435.908    20638442.7584
  21232053.014    -1491353.669 9  -1164341.03347  21232052.536    21232059.9674
 01  7 14 16 25 30.0000000  0  8 26 30 23 22 06 18 17 15
  22525014.049    -1559300.738 8  -1216212.15746  22525014.207    22525021.8274
  24284000.053     2575011.968 7   1984911.83345  24284000.276    24284011.9194
  20972750.939    -1452382.178 9  -1133899.68347  20972750.577    20972757.7004
  22915776.466    -1012403.152 8   -793593.40746  22915775.689    22915784.1694
  20566412.059      619938.608 9    463282.96948  20566412.019    20566418.2144
  21879721.749    -2429432.268 9  -1890502.64047  21879721.434    21879728.2194
  20634057.008     -811298.367 9   -637351.76047  20634056.650    20634063.4934
  21222105.885    -1543626.079 9  -1205072.73847  21222105.392    21222112.8304
 01  7 14 16 26  0.0000000  0  8 26 30 23 22 06 18 17 15
  22515558.603    -1608990.066 8  -1254931.04646  22515558.763    22515566.2774
  24304841.445     2684533.290 7   2070252.82945  24304841.747    24304853.5884
  20964050.182    -1498104.842 9  -1169527.69147  20964049.820    20964056.9284
  22910680.980    -1039179.971 8   -814458.44146  22910680.166    22910688.7244
  20573200.438      655611.587 9    491080.07548  20573200.390    20573206.5984
  21863280.122    -2515833.314 8  -1957828.03347  21863279.816    21863286.5724
  20629726.599     -834054.823 9   -655084.04747  20629726.238    20629733.0514
  21212207.205    -1595644.133 9  -1245606.24547  21212206.705    21212214.1344
 01  7 14 16 26 30.0000000  0  8 26 30 23 22 06 18 17 15
  22506198.778    -1658176.491 8  -1293258.07146  22506198.953    22506206.3844
  24325682.892     2794055.461 7   2155594.46445  24325683.340    24325695.2104
  20955438.669    -1543358.305 9  -1204790.09647  20955438.342    20955445.4534
  22905691.716    -1065398.543 8   -834888.47146  22905690.980    22905699.5424
  20580073.416      691729.620 9    519223.97148  20580073.412    20580079.6564
  21846905.515    -2601882.010 8  -2024878.88347  21846905.232    21846911.9774
  20625444.992     -856554.809 9   -672616.49247  20625444.632    20625451.4944
  21202356.808    -1647407.828 9  -1285941.55647  21202356.354    21202363.7794
 01  7 14 16 27  0.0000000  0  8 26 30 23 22 06 18 17 15
  22496935.166    -1706857.145 8  -1331190.98646  22496935.386    22496942.7464
  24346524.235     2903575.915 8   2240934.79745  24346524.681    24346536.5904
  20946916.728    -1588141.597 9  -1239686.12347  20946916.381    20946923.4694
  22900808.954    -1091058.165 8   -854882.96846  22900808.200    22900816.6374
  20587031.203      728293.055 9    547714.94148  20587031.205    20587037.4464
  21830598.267    -2687576.435 9  -2091653.67347  21830598.052    21830604.7764
  20621212.190     -878798.193 9   -689948.98247  20621211.832    20621218.7324
  21192554.987    -1698916.923 9  -1326078.47247  21192554.520    21192561.8764
 01  7 14 16 27 30.0000000  0  8 26 30 23 22 06 18 17 15
  22487768.282    -1755029.408 8  -1368727.74546  22487768.512    22487775.9114
  24367364.847     3013092.124 8   2326271.82245  24367365.183    24367377.1384
  20938484.363    -1632453.825 9  -1274215.08747  20938484.009    20938491.1104
  22896032.665    -1116157.756 8   -874441.06546  22896031.937    22896040.2834
  20594073.774      765301.897 9    576552.98048  20594073.769    20594080.0454
  21814358.951    -2772914.637 9  -2158150.87947  21814358.684    21814365.4134
  20617028.276     -900784.895 9   -707081.46447  20617027.919    20617034.7674
  21182801.670    -1750171.147 9  -1366016.78247  21182801.182    21182808.5024
 01  7 14 16 28  0.0000000  0  8 26 30 23 22 06 18 17 15
  22478698.444    -1802691.048 8  -1405866.63746  22478698.710    22478706.2364
  24388204.297     3122601.000 8   2411603.11445  24388204.397    24388216.2114
  20930141.628    -1676294.887 9  -1308376.92047  20930141.315    20930148.4074
  22891362.949    -1140696.833 8   -893562.40746  22891362.260    22891370.5914
  20601200.973      802755.770 9    605737.79248  20601201.005    20601207.3054
  21798187.679    -2857894.976 9  -2224369.23747  21798187.389    21798194.1634
  20612893.102     -922515.462 9   -724014.36547  20612892.731    20612899.5734
  21173096.709    -1801170.588 9  -1405756.57147  21173096.251    21173103.6114
 01  7 14 16 28 30.0000000  0  8 26 30 23 22 06 18 17 15
  22469726.133    -1849840.353 8  -1442606.30746  22469726.333    22469734.0164
  24409041.535     3232099.004 8   2496925.93845  24409041.462    24409053.3464
  20921888.637    -1719664.765 9  -1342171.58847  20921888.308    20921895.4014
  22886799.812    -1164675.729 8   -912247.23346  22886799.209    22886807.5384
  20608412.824      840654.086 9    635268.92948  20608412.843    20608419.1404
  21782084.705    -2942516.221 9  -2290307.78047  21782084.427    21782091.1714
  20608806.475     -943990.689 9   -740748.29247  20608806.140    20608813.0064
  21163440.167    -1851915.830 9  -1445298.27747  21163439.706    21163447.0854
 01  7 14 16 29  0.0000000  0  9 26 30 23 22 06 21 18 17 15
  22460851.514    -1896475.181 8  -1478945.08945  22460851.677    22460859.3684
  24429875.791     3341583.386 8   2582238.13445  24429875.918    24429887.8674
  20913725.335    -1762563.069 9  -1375598.80047  20913725.009    20913732.0854
  22882343.379    -1188094.733 8   -930495.79446  22882342.764    22882351.0684
  20615709.192      878996.505 9    665146.11748  20615709.201    20615715.4764
  24902432.953    -1349661.614 7  -1042617.55145  24902432.855    24902447.5294
  21766050.312    -3026777.068 9  -2355965.49347  21766050.027    21766056.7654
  20604768.390     -965210.934 9   -757283.53747  20604768.076    20604774.9244
  21153832.021    -1902406.845 9  -1484641.88647  21153831.567    21153838.9334
 01  7 14 16 29 30.0000000  0  9 26 30 23 22 06 21 18 17 15
  22452075.276    -1942593.525 8  -1514881.39345  22452075.471    22452082.9914
  24450706.758     3451050.760 7   2667537.08345  24450706.987    24450719.1434
  20905651.748    -1804989.838 9  -1408658.57947  20905651.429    20905658.4944
  22877993.446    -1210953.612 8   -948307.88946  22877992.885    22878001.2214
  20623089.934      917782.340 9    695368.82548  20623089.912    20623096.1764
  24883481.054    -1449255.193 8  -1120222.87145  24883480.755    24883495.4554
  21750084.761    -3110676.139 9  -2421341.30047  21750084.500    21750091.1844
  20600778.754     -986176.777 9   -773620.54147  20600778.418    20600785.2644
  21144272.142    -1952644.148 9  -1523787.78947  21144271.696    21144279.0814
 01  7 14 16 30  0.0000000  0  9 26 30 23 22 06 21 18 17 15
  22443398.631    -1988189.097 8  -1550410.39645  22443398.809    22443406.1744
  24471534.743     3560502.229 7   2752823.66145  24471535.138    24471547.3694
  20897668.677    -1846940.937 9  -1441347.70447  20897668.375    20897675.4154
  22873750.939    -1233247.874 8   -965680.00746  22873750.372    22873758.8084
  20630555.731      957015.159 9    725939.83648  20630555.704    20630561.9974
  24864548.717    -1548745.255 8  -1197747.51945  24864548.401    24864563.0594
  21734189.120    -3194207.803 9  -2486430.82347  21734188.894    21734195.5434
  20596838.098    -1006884.779 9   -789756.63947  20596837.796    20596844.6304
  21134761.339    -2002623.908 9  -1562733.01047  21134760.860    21134768.2084
 01  7 14 16 30 30.0000000  0  9 26 30 23 22 06 21 18 17 15
  22434821.838                    -1585530.98645  22434822.066    22434828.9464
  24492359.201     3669934.214 7   2838095.02945  24492359.612    24492371.9634
  20889776.092    -1888416.731 9  -1473666.46647  20889775.769    20889782.8174
  22869615.911    -1254977.789 8   -982612.40046  22869615.285    22869623.7654
  20638106.371      996694.071 9    756858.44748  20638106.356    20638112.6784
  24845636.181    -1648131.111 7  -1275190.93745  24845635.824    24845650.3614
  21718363.590    -3277371.314 9  -2551233.47347  21718363.320    21718369.9734
  20592946.406    -1027335.876 9   -805692.54247  20592946.090    20592952.9134
  21125299.398    -2052346.689 9  -1601477.99247  21125298.890    21125306.2494
 01  7 14 16 31  0.0000000  0  9 26 30 23 22 06 21 18 17 15
  22426345.116    -2077806.23218  -1620241.90945  22426345.314    22426351.9064
  24513179.100     3779343.166 7   2923348.42045  24513179.579    24513192.0224
  20881973.854    -1929417.718 9  -1505615.24947  20881973.521    20881980.5894
  22865587.988    -1276144.426 8   -999105.85546  22865587.353    22865595.8384
  20645741.723     1036817.818 9    788123.68948  20645741.690    20645748.0034
  24826743.467    -1747412.173 7  -1352552.68545  24826743.373    24826757.7134
  21702608.196    -3360165.890 9  -2615748.64147  21702607.967    21702614.6134
  20589103.357    -1047531.148 9   -821429.10247  20589103.041    20589109.8634
  21115886.167    -2101813.175 9  -1640023.26247  21115885.677    21115893.0424
 01  7 14 16 31 30.0000000  0  9 26 30 23 22 06 21 18 17 15
  22417968.895    -2121824.103 8  -1654541.50246  22417969.113    22417975.6184
  24533994.354     3888726.354 7   3008581.78045  24533994.638    24534007.0484
  20874262.045    -1969943.350 9  -1537193.62347  20874261.729    20874268.7644
  22861667.265    -1296747.809 8  -1015160.41446  22861666.638    22861675.1664
  20653461.648     1077386.246 9    819735.43548  20653461.636    20653467.9404
  24807871.060    -1846587.100 7  -1429831.71845  24807870.700    24807885.1054
  21686923.454    -3442589.751 9  -2679974.93947  21686923.206    21686929.8294
  20585308.986    -1067470.703 9   -836966.40047  20585308.637    20585315.4914
  21106521.756    -2151023.541 9  -1678368.95247  21106521.289    21106528.5904
 01  7 14 16 32  0.0000000  0  9 26 30 23 22 06 21 18 17 15
  22409693.503    -2165311.481 8  -1688427.72746  22409693.782    22409700.3874
  24554803.981     3998081.129 7   3093792.97745  24554804.293    24554816.9844
  20866640.897    -2009992.826 9  -1568400.96547  20866640.575    20866647.5864
  22857854.000    -1316786.865 8  -1030775.23846  22857853.348    22857861.8804
  20661266.226     1118399.556 9    851693.83948  20661266.233    20661272.5254
  24789019.210    -1945654.128 7  -1507026.66545  24789018.939    24789033.2144
  21671309.568    -3524641.188 9  -2743911.04847  21671309.295    21671315.8894
  20581563.250    -1087154.504 9   -852304.41047  20581562.930    20581569.7914
  21097206.186    -2199977.275 9  -1716514.67647  21097205.678    21097212.9394
 01  7 14 16 32 30.0000000  0  9 26 30 23 22 06 21 18 17 15
  22401519.418    -2208266.589 8  -1721899.18946  22401519.730    22401526.5114
  24575607.796     4107404.323 7   3178979.54245  24575608.030    24575620.9854
  20859110.277    -2049566.242 9  -1599237.35347  20859109.959    20859116.9704
  22854148.006    -1336261.491 8  -1045950.24046  22854147.403    22854155.9174
  20669155.396     1159856.880 9    883998.23548  20669155.352    20669161.6464
  24770188.028    -2044611.586 7  -1584136.20845  24770187.837    24770202.0234
  21655766.672    -3606319.031 9  -2807556.04247  21655766.435    21655773.0044
  20577866.140    -1106583.221 9   -867443.65047  20577865.800    20577872.6154
  21087939.339    -2248674.828 9  -1754460.77947  21087938.804    21087946.0814
 01  7 14 16 33  0.0000000  0  9 26 30 23 22 06 21 18 17 15
  22393447.281    -2250686.228 8  -1754953.40646  22393447.578    22393454.4774
  24596405.317     4216694.270 7   3264140.25245  24596405.551    24596418.2594
  20851670.510    -2088662.442 9  -1629701.88647  20851670.179    20851677.2064
  22850549.780    -1355170.606 8  -1060684.58746  22850549.154    22850557.6164
  20677129.036     1201758.952 9    916649.18648  20677129.021    20677135.3874
  24751378.067    -2143457.508 7  -1661158.88744  24751377.789    24751392.3674
  21640295.522    -3687620.439 9  -2870907.70547  21640295.245    21640301.8084
  20574217.655    -1125756.025 9   -882383.48347  20574217.326    20574224.1214
  21078721.410    -2297115.013 9  -1792206.33647  21078720.915    21078728.1764
 01  7 14 16 33 30.0000000  0  9 26 30 23 22 06 21 18 17 15
  22385477.346    -2292568.442 8  -1787588.84846  22385477.636    22385484.6924
  24617195.972     4325947.756 7   3349272.51645  24617196.179    24617208.9254
  20844321.517    -2127281.555 9  -1659794.65947  20844321.207    20844328.2044
  22847058.946    -1373515.035 8  -1074978.91646  22847058.281    22847066.8124
  20685187.231     1244104.840 9    949645.96648  20685187.223    20685193.6074
  24732589.567    -2242190.861 7  -1738093.78645  24732589.025    24732603.7134
  21624896.177    -3768544.255 9  -2933965.14447  21624895.906    21624902.4244
  20570617.788    -1144673.512 9   -897124.36347  20570617.438    20570624.2524
  21069552.403    -2345298.275 9  -1829751.69347  21069551.903    21069559.1594
 01  7 14 16 34  0.0000000  0  9 26 30 23 22 06 21 18 17 15
  22377610.052    -2333911.236 8  -1819803.94846  22377610.313    22377617.5544
  24637979.147     4435162.130 7   3434374.33445  24637979.181    24637992.1074
  20837063.425    -2165423.246 9  -1689515.41847  20837063.101    20837070.0584
  22843675.543    -1391294.364 8  -1088832.91846  22843674.954    22843683.4374
  20693329.792     1286894.273 9    982988.37247  20693329.766    20693336.2084
  24713822.815    -2340810.038 7  -1814939.69745  24713822.277    24713836.9644
  21609569.036    -3849088.802 9  -2996727.04747  21609568.777    21609575.2624
  20567066.437    -1163335.976 9   -911666.52447  20567066.096    20567072.8954
  21060432.266    -2393224.788 9  -1867096.98847  21060431.796    21060439.0294
 01  7 14 16 34 30.0000000  0  9 26 30 23 22 06 21 18 17 15
  22369845.796    -2374712.570 8  -1851597.13046  22369846.018    22369853.4734
  24658754.317     4544334.556 7   3519443.46045  24658754.288    24658767.1224
  20829896.201    -2203087.130 9  -1718863.86247  20829895.863    20829902.8474
  22840399.951    -1408508.066 8  -1102246.16446  22840399.331    22840407.6824
  20701556.712     1330127.084 9   1016676.26247  20701556.720    20701563.1524
  24695078.256    -2439313.712 7  -1891695.62145  24695077.753    24695092.3494
  21594314.296    -3929252.654 9  -3059192.30747  21594314.067    21594320.4984
  20563563.609    -1181743.486 9   -926010.02047  20563563.281    20563570.0324
  21051361.076    -2440894.334 9  -1904242.04947  21051360.577    21051367.8164
 01  7 14 16 35  0.0000000  0  9 26 30 23 22 06 21 18 17 15
  22362185.070    -2414969.587 8  -1882966.17846  22362185.321    22362192.8624
  24679521.021     4653462.827 8   3604478.17345  24679521.152    24679533.7944
  20822820.083    -2240272.377 9  -1747839.33547  20822819.742    20822826.7194
  22837232.058    -1425155.322 8  -1115218.02346  22837231.404    22837239.7754
  20709868.130     1373803.444 9   1050709.77547  20709868.127    20709874.5064
  24676356.111    -2537699.809 7  -1968359.95245  24676355.385    24676370.1544
  21579132.403    -4009033.793 9  -3121359.34847  21579132.168    21579138.5594
  20560109.339    -1199895.738 9   -940154.61347  20560108.993    20560115.7404
  21042338.823    -2488306.173 9  -1941186.29647  21042338.342    21042345.5854
 01  7 14 16 35 30.0000000  0  9 26 30 23 22 06 21 18 17 15
  22354628.308    -2454680.280 8  -1913909.49446  22354628.504    22354636.2694
  24700278.679     4762544.163 7   3689476.29545  24700278.922    24700291.6764
  20815835.039    -2276978.950 9  -1776441.82347  20815834.698    20815841.6374
  22834171.907    -1441236.658 8  -1127748.90546  22834171.242    22834179.6984
  20718263.828     1417922.940 9   1085088.59347  20718263.824    20718270.2094
  24657656.414    -2635966.882 7  -2044931.46045  24657655.650    24657670.2174
  21564023.623    -4088430.660 9  -3183226.95847  21564023.377    21564029.7944
  20556703.563    -1217793.114 9   -954100.60547  20556703.211    20556709.9574
  21033365.649    -2535460.339 9  -1977929.76147  21033365.194    21033372.4164
 01  7 14 16 36  0.0000000  0  9 26 30 23 22 06 21 18 17 15
  22347175.824    -2493842.160 8  -1944425.15646  22347175.953    22347184.0324
  24721026.914     4871576.394 7   3774436.19145  24721027.209    24721040.2074
  20808941.248    -2313206.072 9  -1804670.70847  20808940.890    20808947.8304
  22831219.502    -1456751.794 8  -1139838.59246  22831218.826    22831227.2504
  20726743.830     1462485.640 9   1119812.76647  20726743.834    20726750.2104
  24638979.586    -2734113.106 7  -2121408.83145  24638979.050    24638993.6024
  21548988.346    -4167441.221 9  -3244793.55647  21548988.116    21548994.5534
  20553346.358    -1235435.312 9   -967847.75247  20553346.035    20553352.7824
  21024441.655    -2582356.316 9  -2014472.04547  21024441.182    21024448.3884
 01  7 14 16 36 30.0000000  0  9 26 30 23 22 06 21 18 17 15
  22339828.235    -2532452.698 8  -1974511.19646  22339828.460    22339836.6524
  24741765.371     4980557.068 7   3859355.85945  24741765.761    24741778.9154
  20802138.736    -2348953.203 9  -1832525.57947  20802138.389    20802145.3644
  22828374.941    -1471699.643 8  -1151486.23546  22828374.315    22828382.7254
  20735308.170     1507491.576 9   1154882.31447  20735308.165    20735314.5634
  24620325.986    -2832136.390 7  -2197790.41745  24620325.683    24620340.2344
  21534026.990    -4246063.443 9  -3306057.54647  21534026.754    21534033.1954
  20550037.761    -1252822.004 9   -981395.81147  20550037.435    20550044.1704
  21015566.789    -2628993.661 9  -2050812.78947  21015566.346    21015573.6044
 01  7 14 16 37  0.0000000  0  9 26 30 23 22 06 21 18 17 15
  22332585.781    -2570510.975 8  -2004166.92046  22332586.012    22332594.3024
  24762493.290     5089482.371 7   3944232.40245  24762493.652    24762506.9794
  20795427.407    -2384221.189 9  -1860007.08647  20795427.076    20795434.0324
  22825638.226    -1486081.100 8  -1162692.55246  22825637.590    22825646.0644
  20743956.496     1552939.183 9   1190296.02847  20743956.518    20743962.9364
  24601695.961    -2930036.630 8  -2274076.13545  24601695.821    24601710.2994
  21519139.581    -4324296.820 9  -3367018.54147  21519139.330    21519145.7834
  20546777.572    -1269954.495 9   -994745.78247  20546777.242    20546783.9604
  21006740.962    -2675373.487 9  -2086952.87747  21006740.496    21006747.7704
 01  7 14 16 37 30.0000000  0  9 26 30 23 22 06 21 18 17 15
  22325449.210    -2608013.830 8  -2033389.85646  22325449.423    22325457.5994
  24783210.394     5198350.908 7   4029064.78945  24783210.660    24783224.3864
  20788807.497    -2419008.887 9  -1887114.34747  20788807.158    20788814.0974
  22823009.439    -1499895.329 8  -1173456.85646  22823008.830    22823017.2934
  20752689.025     1598829.107 9   1226054.39647  20752689.062    20752695.5084
  24583090.051    -3027810.964 7  -2350263.72645  24583089.921    24583104.2044
  21504326.600    -4402139.031 9  -3427674.73747  21504326.395    21504332.8464
  20543565.899    -1286831.956 9  -1007897.03447  20543565.575    20543572.2734
  20997964.378    -2721494.663 9  -2122891.41947  20997963.952    20997971.1844
 01  7 14 16 38  0.0000000  0  9 26 30 23 22 06 21 18 17 15
  22318418.649    -2644959.695 8  -2062178.78146  22318418.860    22318426.8344
  24803916.050     5307159.612 7   4113850.47345  24803916.426    24803930.2914
  20782278.967    -2453316.302 9  -1913847.35947  20782278.648    20782285.5814
  22820488.456    -1513143.102 8  -1183779.76746  22820487.835    22820496.3344
  20761505.714     1645160.785 9   1262156.99147  20761505.739    20761512.1814
  24564508.240    -3125458.476 7  -2426352.49145  24564508.025    24564522.3604
  21489588.368    -4479588.630 9  -3488025.00247  21489588.148    21489594.6034
  20540402.682    -1303454.817 9  -1020849.89247  20540402.335    20540409.0264
  20989237.024    -2767357.279 9  -2158628.48947  20989236.574    20989243.7764
 01  7 14 16 38 30.0000000  0  8 26 23 22 06 21 18 17 15
  22311494.948    -2681344.639 8  -2090530.63146  22311495.113    22311502.8784
  20775842.274    -2487141.314 9  -1940204.47447  20775841.934    20775848.8724
  22818075.646    -1525822.384 8  -1193659.70446  22818075.065    22818083.5014
  20770406.665     1691935.644 9   1298604.91847  20770406.717    20770413.1634
  24545950.897    -3222975.910 7  -2502339.90845  24545950.912    24545965.2854
  21474925.521    -4556642.340 9  -3548066.78147  21474925.279    21474931.7334
  20537288.159    -1319821.366 9  -1033603.02847  20537287.871    20537294.5694
  20980559.219    -2812959.183 9  -2194162.40547  20980558.781    20980565.9894
 01  7 14 16 39  0.0000000  0  8 26 23 22 06 21 18 17 15
  22304678.325    -2717166.672 8  -2118443.85046  22304678.493    22304685.9594
  20769497.358    -2520483.888 9  -1966185.66447  20769497.047    20769503.9764
  22815771.163    -1537932.711 8  -1203096.30346  22815770.521    22815778.8944
  20779391.864     1739153.270 9   1335397.85947  20779391.886    20779398.3744
  24527418.742    -3320361.470 7  -2578224.53245  24527418.802    24527433.1524
  21460338.302    -4633298.596 9  -3607798.85647  21460338.037    21460344.5044
  20534222.449    -1335931.823 9  -1046156.61847  20534222.114    20534228.8484
  20971931.027    -2858300.417 9  -2229493.20047  20971930.575    20971937.8014
 01  7 14 16 39 30.0000000  0  8 26 23 22 06 21 18 17 15
  22297968.461    -2752427.459 8  -2145919.74946  22297968.707    22297975.7284
  20763243.592    -2553347.516 9  -1991793.64647  20763243.286    20763250.1914
  22813574.104    -1549477.818 8  -1212092.46946  22813573.511    22813581.9184
  20788460.470     1786809.489 9   1372532.55747  20788460.528    20788467.0474
  24508911.585    -3417617.527 7  -2654008.28045  24508911.424    24508925.7274
  21445826.285    -4709559.491 9  -3667222.85847  21445826.034    21445832.4654
  20531204.705    -1351789.923 9  -1058513.56647  20531204.393    20531211.1604
  20963351.786    -2903384.617 9  -2264623.71547  20963351.364    20963358.5694
 01  7 14 16 40  0.0000000  0  8 26 23 22 06 21 18 17 15
  22291365.928    -2787124.432 8  -2172956.28346  22291366.158    22291372.9034
  20757081.063    -2585731.472 9  -2017027.85947  20757080.762    20757087.6664
  22811484.747    -1560457.421 8  -1220647.98246  22811484.188    22811492.5394
  20797612.645     1834904.357 9   1410009.06647  20797612.702    20797619.2394
  24490429.384    -3514742.137 7  -2729689.58545  24490429.079    24490443.1904
  21431389.916    -4785422.885 9  -3726337.12047  21431389.668    21431396.0714
  20528235.143    -1367395.164 9  -1070673.48147  20528234.839    20528241.5804
  20954821.626    -2948210.973 9  -2299553.30447  20954821.199    20954828.3604
 01  7 14 16 40 30.0000000  0  8 26 23 22 06 21 18 17 15
  22284871.294    -2821254.198 8  -2199550.85046  22284871.525    22284878.1254
  20751010.164    -2617634.212 9  -2041887.09747  20751009.865    20751016.7544
  22809503.234    -1570870.562 8  -1228762.09846  22809502.660    22809511.0004
  20806848.536     1883439.094 9   1447828.32247  20806848.588    20806855.1494
  24471972.577    -3611732.207 7  -2805266.02145  24471972.456    24471986.2804
  21417029.730    -4860885.984 9  -3785139.46247  21417029.479    21417035.8424
  20525313.921    -1382746.354 9  -1082635.43647  20525313.591    20525320.3334
  20946340.779    -2992778.056 9  -2334280.86547  20946340.350    20946347.4844
 01  7 14 16 41  0.0000000  0  8 26 23 22 06 21 18 17 15
  22278484.891    -2854814.746 8  -2225701.88246  22278485.156    22278491.7114
  20745030.913    -2649055.380 9  -2066371.08747  20745030.604    20745037.4764
  22807629.575    -1580716.773 8  -1236434.46446  22807629.007    22807637.3024
  20816168.024     1932413.216 9   1485989.95847  20816168.087    20816174.6704
  24453541.572    -3708586.478 7  -2880736.63245  24453541.487    24453555.3454
  21402746.007    -4935946.883 9  -3843628.40947  21402745.778    21402752.1434
  20522441.040    -1397843.299 9  -1094399.27547  20522440.730    20522447.4664
  20937909.265    -3037085.694 9  -2368806.26847  20937908.847    20937916.0004
 01  7 14 16 41 30.0000000  0  8 26 23 22 06 21 18 17 15
  22272207.250    -2887804.093 8  -2251407.81246  22272207.522    22272214.1124
  20739143.318    -2679994.797 9  -2090479.68747  20739143.000    20739149.8624
  22805863.817    -1589995.856 8  -1243664.90446  22805863.239    22805871.5574
  20825571.083     1981826.336 9   1524493.66247  20825571.137    20825577.6974
  24435136.927    -3805302.945 7  -2956099.86745  24435136.747    24435150.6804
  21388539.098    -5010604.414 9  -3901803.04247  21388538.863    21388545.2334
  20519616.523    -1412686.106 9  -1105965.09347  20519616.215    20519623.0024
  20929527.277    -3081133.479 9  -2403129.18747  20929526.830    20929534.0224
 01  7 14 16 42  0.0000000  0  8 26 23 22 06 21 18 17 15
  22266038.671    -2920220.443 8  -2276667.24646  22266038.902    22266045.5654
  20733347.388    -2710452.465 9  -2114212.89947  20733347.083    20733353.9404
  22804205.891    -1598707.954 8  -1250453.53846  22804205.377    22804213.7274
  20835057.566     2031678.008 9   1563339.10347  20835057.600    20835064.1064
  24416758.577    -3901880.501 7  -3031354.86845  24416758.430    24416772.3134
  21374409.250    -5084857.050 9  -3959662.17247  21374409.025    21374415.3384
  20516840.406    -1427274.883 9  -1117332.96247  20516840.067    20516846.8704
  20921194.698    -3124921.264 9  -2437249.51047  20921194.249    20921201.4304
 01  7 14 16 42 30.0000000  0  8 26 23 22 06 21 18 17 15
  22259979.438    -2952061.822 8  -2301478.64146  22259979.687    22259986.4254
  20727643.182    -2740428.146 9  -2137570.53647  20727642.862    20727649.7114
  22802655.876    -1606853.719 8  -1256800.88346  22802655.270    22802663.5954
  20844627.473     2081967.799 9   1602525.93047  20844627.465    20844633.9494
  24398407.061    -3998317.720 7  -3106500.50645  24398406.815    24398420.6404
  21360356.795    -5158703.059 9  -4017204.44747  21360356.543    21360362.8344
  20514112.547    -1441609.634 9  -1128502.88947  20514112.236    20514119.0454
  20912911.653    -3168448.848 9  -2471167.07447  20912911.223    20912918.3554
 01  7 14 16 43  0.0000000  0  8 26 23 22 06 21 18 17 15
  22254030.020    -2983326.103 8  -2325840.36346  22254030.296    22254037.1264
  20722030.737    -2769921.508 9  -2160552.33947  20722030.457    20722037.2884
  22801213.513    -1614433.090 8  -1262706.87046  22801212.949    22801221.2504
  20854280.715     2132695.483 9   1642053.97747  20854280.682    20854287.1364
  24380082.845    -4094612.385 7  -3181535.02745  24380082.411    24380096.1434
  21346381.965    -5232140.853 9  -4074428.63547  21346381.738    21346388.0244
  20511433.127    -1455690.191 9  -1139474.73947  20511432.811    20511439.5834
  20904678.184    -3211715.876 9  -2504881.60747  20904677.773    20904684.8974
 01  7 14 16 43 30.0000000  0  8 26 23 22 06 21 18 17 15
  22248190.770    -3014011.394 8  -2349750.91746  22248191.077    22248197.9994
  20716510.137    -2798932.492 9  -2183158.26047  20716509.819    20716516.6244
  22799878.923    -1621445.701 8  -1268171.21446  22799878.413    22799886.7194
  20864017.139     2183860.718 9   1681922.97147  20864017.112    20864023.5724
  24361785.757    -4190763.167 7  -3256457.40845  24361785.317    24361799.1394
  21332485.188    -5305168.821 9  -4131333.47247  21332484.938    21332491.1994
  20508802.028    -1469516.656 9  -1150248.59647  20508801.742    20508808.4844
  20896494.323    -3254722.097 9  -2538392.91447  20896493.918    20896501.0664
 01  7 14 16 44  0.0000000  0  8 26 23 22 06 21 18 17 15
  22242462.113    -3044115.988 8  -2373208.99546  22242462.404    22242469.3504
  20711081.299    -2827461.258 9  -2205388.43047  20711080.987    20711087.7694
  22798652.359    -1627891.653 8  -1273194.03346  22798651.791    22798660.0604
  20873836.664     2235462.859 9   1722132.41347  20873836.664    20873843.1854
  24343516.320    -4286768.912 7  -3331266.81245  24343515.995    24343529.7004
  21318666.567    -5377785.913 9  -4187918.15347  21318666.364    21318672.5904
  20506219.255    -1483089.127 9  -1160824.53347  20506218.950    20506225.7384
  20888360.152    -3297467.473 9  -2571700.96747  20888359.740    20888366.8954
 01  7 14 16 44 30.0000000  0  8 26 23 22 06 21 18 17 15
  22236844.206    -3073638.246 8  -2396213.30046  22236844.503    22236851.4414
  20705744.182    -2855507.775 9  -2227242.82247  20705743.862    20705750.6174
  22797533.523    -1633771.580 8  -1277775.78546  22797532.906    22797541.1564
  20883739.228     2287501.123 9   1762681.68647  20883739.228    20883745.7464
  24325274.835    -4382627.800 8  -3405961.75845  24325274.543    24325288.2164
  21304926.525    -5449990.321 9  -4244181.26647  21304926.316    21304932.4914
  20503684.832    -1496407.711 9  -1171202.63747  20503684.525    20503691.3074
  20880275.675    -3339951.906 9  -2604805.69147  20880275.246    20880282.3284
 01  7 14 16 45  0.0000000  0  8 26 23 22 06 21 18 17 15
  22231337.406    -3102576.854 8  -2418762.82046  22231337.715    22231344.5534
  20700498.795    -2883072.348 9  -2248721.67547  20700498.483    20700505.2274
  22796522.096    -1639086.698 8  -1281917.42446  22796521.487    22796529.7534
  20893724.566     2339974.596 9   1803570.08047  20893724.595    20893731.1254
  24307061.537    -4478338.866 7  -3480541.53845  24307061.142    24307074.7154
  21291265.138    -5521781.260 9  -4300122.19047  21291264.894    21291271.0484
  20501198.604    -1509473.040 9  -1181383.39447  20501198.276    20501205.0324
  20872240.764    -3382175.697 9  -2637707.31647  20872240.319    20872247.3724
 01  7 14 16 45 30.0000000  0  8 26 23 22 06 21 18 17 15
  22225942.083    -3130929.433 8  -2440855.70446  22225942.341    22225949.1924
  20695345.210    -2910154.601 9  -2269824.69247  20695344.871    20695351.6174
  22795618.283    -1643836.356 8  -1285618.43846  22795617.632    22795625.9564
  20903792.749     2392883.274 9   1844797.59547  20903792.775    20903799.3334
  24288876.628    -4573900.134 8  -3555004.54845  24288876.261    24288889.8584
  21277682.797    -5593156.875 9  -4355739.48747  21277682.557    21277688.6594
  20498760.720    -1522284.426 9  -1191366.28147  20498760.364    20498767.1114
  20864255.550    -3424138.142 9  -2670405.29647  20864255.087    20864262.1544
 01  7 14 16 46  0.0000000  0  8 26 23 22 06 21 18 17 15
  22220658.491    -3158694.294 8  -2462490.64746  22220658.798    22220665.5984
  20690283.388    -2936754.365 9  -2290551.74947  20690283.075    20690289.8344
  22794822.119    -1648020.410 8  -1288878.72546  22794821.413    22794829.7294
  20913943.653     2446226.695 9   1886363.87747  20913943.708    20913950.2814
  24270720.476    -4669310.208 8  -3629349.77745  24270720.150    24270733.6124
  21264179.729    -5664115.539 9  -4411031.89047  21264179.515    21264185.6044
  20496371.034    -1534842.019 9  -1201151.39947  20496370.708    20496377.4444
  20856320.117    -3465838.822 9  -2702899.30347  20856319.690    20856326.7934
 01  7 14 16 46 30.0000000  0  8 26 23 22 06 21 18 17 15
  22215487.102    -3185869.685 8  -2483666.26946  22215487.379    22215494.1514
  20685313.461    -2962871.621 9  -2310902.82447  20685313.146    20685319.8494
  22794133.418    -1651639.136 8  -1291698.49146  22794132.771    22794141.0874
  20924177.318     2500004.442 9   1928268.58647  20924177.324    20924183.8884
  24252593.443    -4764567.753 8  -3703576.12545  24252593.089    24252606.4604
  21250756.286    -5734655.951 9  -4465998.37847  21250756.088    21250762.1584
  20494029.751    -1547145.675 9  -1210738.64847  20494029.399    20494036.1364
  20848434.589    -3507277.560 9  -2735189.20347  20848434.149    20848441.2434
 01  7 14 16 47  0.0000000  0  8 26 23 22 06 21 18 17 15
  22210428.291    -3212453.315 8  -2504380.78046  22210428.591    22210435.3304
  20680435.392    -2988505.888 9  -2330877.54847  20680435.093    20680441.7754
  22793552.299    -1654692.637 8  -1294077.81946  22793551.623    22793559.9974
  20934493.496     2554216.380 9   1970511.63447  20934493.562    20934500.1134
  24234495.778    -4859670.286 8  -3777681.69545  24234495.459    24234508.7464
  21237412.866    -5804775.995 9  -4520637.30947  21237412.645    21237418.6804
  20491736.839    -1559194.812 9  -1220127.57047  20491736.536    20491743.2594
  20840599.043    -3548453.564 9  -2767274.37447  20840598.614    20840605.6714
 01  7 14 16 47 30.0000000  0  8 26 23 22 06 21 18 17 15
  22205482.188    -3238445.240 8  -2524634.20046  22205482.495    22205489.2214
  20675648.934    -3013658.984 9  -2350477.33247  20675648.606    20675655.2814
  22793078.388    -1657183.185 8  -1296018.49446  22793077.700    22793086.0714
  20944891.966     2608860.387 9   2013091.35247  20944892.023    20944898.5774
  24216427.496    -4954618.164 8  -3851666.76245  24216427.247    24216440.4204
  21224149.335    -5874475.942 9  -4574948.89347  21224149.127    21224155.1514
  20489492.056    -1570991.258 9  -1229319.59347  20489491.760    20489498.4584
  20832813.183    -3589368.327 9  -2799155.97947  20832812.734    20832819.8154
 01  7 14 16 48  0.0000000  0  8 26 23 22 06 21 18 17 15
  22200649.189    -3263842.468 8  -2544424.22846  22200649.490    22200656.2084
  20670954.220    -3038329.620 9  -2369701.17547  20670953.916    20670960.5834
  22792711.803    -1659109.404 8  -1297519.43246  22792711.164    22792719.5324
  20955372.750     2663937.047 9   2056008.20847  20955372.827    20955379.3584
  24198389.240    -5049408.558 8  -3925529.11545  24198388.925    24198402.1064
  21210966.308    -5943753.109 9  -4628931.03847  21210966.094    21210972.0874
  20487295.557    -1582533.628 9  -1238313.63047  20487295.321    20487302.0094
  20825077.303    -3630020.376 9  -2830832.86847  20825076.899    20825083.9924
 01  7 14 16 48 30.0000000  0  8 26 23 22 06 21 18 17 15
  22195929.585    -3288643.689 8  -2563749.83146  22195929.908    22195936.6894
  20666351.302    -3062518.069 9  -2388549.28847  20666350.973    20666357.6174
  22792452.655    -1660471.649 8  -1298580.91146  22792451.994    22792460.2694
  20965935.659     2719445.587 9   2099261.59247  20965935.725    20965942.3024
  24180381.110    -5144040.292 8  -3999267.82245  24180380.841    24180393.9724
  21197863.930    -6012606.365 9  -4682582.86647  21197863.705    21197869.6964
  20485147.404    -1593822.347 9  -1247110.02347  20485147.138    20485153.8394
  20817391.470    -3670409.698 9  -2862305.03847  20817391.040    20817398.1384
 01  7 14 16 49  0.0000000  0  8 26 23 22 06 21 18 17 15
  22191323.840    -3312847.334 8  -2582609.80046  22191324.116    22191330.8864
  20661840.068    -3086224.564 9  -2407021.85747  20661839.766    20661846.3574
  22792300.665    -1661270.737 8  -1299203.56946  22792299.999    22792308.1874
  20976580.503     2775385.123 9   2142850.80847  20976580.616    20976587.2554
  24162403.476    -5238511.902 8  -4072881.77645  24162403.267    24162416.2704
  21184842.393    -6081034.612 9  -4735903.52047  21184842.189    21184848.1964
  20483047.483    -1604857.433 9  -1255708.77847  20483047.231    20483053.9214
  20809755.645    -3710536.152 9  -2893572.37447  20809755.206    20809762.2744
 01  7 14 16 49 30.0000000  0  8 26 23 22 06 21 18 17 15
  22186831.888    -3336452.643 8  -2601003.53046  22186832.136    22186838.9904
  20657420.442    -3109449.942 9  -2425119.52447  20657420.146    20657426.7224
  22792255.497    -1661508.183 8  -1299388.58946  22792254.840    22792263.0124
  20987307.294     2831754.587 9   2186775.04147  20987307.389    20987314.0324
  24144456.442    -5332822.867 7  -4146370.54145  24144456.322    24144469.2214
  21171901.860    -6149037.152 9  -4788892.44747  21171901.657    21171907.6544
  20480995.715    -1615639.436 9  -1264110.32447  20480995.452    20481002.1574
  20802169.696    -3750400.317 9  -2924635.32847  20802169.258    20802176.3284
 01  7 14 16 50  0.0000000  0  8 26 23 22 06 21 18 17 15
  22182454.261    -3359457.090 8  -2618929.06746  22182454.527    22182461.4144
  20653092.494    -3132193.398 9  -2442841.67247  20653092.182    20653098.7714
  22792317.254    -1661183.434 8  -1299135.53646  22792316.657    22792324.8024
  20998115.969     2888554.107 9   2231034.37647  20998116.047    20998122.6834
  24126540.411    -5426970.910 7  -4219732.34645  24126540.324    24126553.2454
  21159042.829    -6216611.793 9  -4841547.95547  21159042.620    21159048.5734
  20478992.299    -1626167.629 9  -1272314.09947  20478992.039    20478998.6834
  20794633.891    -3790001.076 9  -2955493.03647  20794633.475    20794640.5274
 01  7 14 16 50 30.0000000  0  8 26 23 22 06 21 18 17 15
  22178191.177    -3381859.803 8  -2636385.72046  22178191.458    22178198.2964
  20648856.087    -3154455.711 9  -2460188.90347  20648855.795    20648862.3824
  22792485.888    -1660297.094 8  -1298444.88046  22792485.321    22792493.4964
  21009006.146     2945782.265 9   2275627.71847  21009006.237    21009012.8724
  24108655.604    -5520955.224 8  -4292966.56945  24108655.525    24108668.2614
  21146265.391    -6283757.601 9  -4893869.30447  21146265.185    21146271.0954
  20477037.074    -1636442.585 9  -1280320.54347  20477036.763    20477043.4024
  20787148.133    -3829338.977 9  -2986145.91747  20787147.707    20787154.7864
 01  7 14 16 51  0.0000000  0  8 26 23 22 06 21 18 17 15
  22174042.899    -3403659.366 8  -2653372.37446  22174043.179    22174049.9674
  20644711.215    -3176237.073 9  -2477161.37047  20644710.904    20644717.5124
  22792761.341    -1658849.637 8  -1297316.99546  22792760.760    22792768.9324
  21019977.768     3003438.412 9   2320554.55847  21019977.822    21019984.4604
  24090802.400    -5614774.117 8  -4366071.89845  24090802.185    24090814.7684
  21133569.690    -6350473.571 9  -4945855.71347  21133569.484    21133575.4114
  20475129.983    -1646464.273 9  -1288129.63747  20475129.683    20475136.3664
  20779712.425    -3868413.854 9  -3016593.84447  20779711.975    20779719.0654
 01  7 14 16 51 30.0000000  0  8 26 23 22 06 21 18 17 15
  22170009.680    -3424854.430 8  -2669888.00646  22170009.941    22170016.6934
  20640657.855    -3197537.591 9  -2493759.14947  20640657.540    20640664.1194
  22793143.432    -1656842.069 8  -1295752.66146  22793142.786    22793150.9154
  21031030.757     3061521.950 9   2365814.43347  21031030.840    21031037.4384
  24072980.797    -5708426.187 8  -4439047.21245  24072980.623    24072993.1924
  21120956.143    -6416758.110 9  -4997505.94547  21120955.927    21120961.8584
  20473271.095    -1656232.745 9  -1295741.42347  20473270.800    20473277.4474
  20772326.848    -3907225.220 9  -3046836.44247  20772326.408    20772333.4754
 01  7 14 16 52  0.0000000  0  8 26 23 22 06 21 18 17 15
  22166091.851    -3445442.951 8  -2685930.98246  22166092.124    22166098.8104
  20636695.950    -3218357.083 9  -2509982.10647  20636695.663    20636702.2494
  22793632.012    -1654274.846 8  -1293752.21746  22793631.307    22793639.3924
  21042165.063     3120032.558 9   2411407.08847  21042165.142    21042171.6844
  24055191.290    -5801909.594 8  -4511891.11145  24055191.029    24055203.7074
  21108424.956    -6482609.823 9  -5048818.91147  21108424.732    21108430.6564
  20471460.433    -1665747.563 9  -1303155.55247  20471460.143    20471466.8004
  20764991.527    -3945772.464 9  -3076873.23347  20764991.106    20764998.1624
 01  7 14 16 52 30.0000000  0  8 26 23 22 06 21 18 17 15
  22162289.631    -3465423.578 8  -2701500.30046  22162289.896    22162296.5094
  20632825.668    -3238695.641 9  -2525830.31147  20632825.382    20632831.9724
  22794227.028    -1651148.002 8  -1291315.73446  22794226.356    22794234.4254
  21053380.437     3178969.539 9   2457331.98347  21053380.488    21053387.0394
  24037433.988    -5895223.038 8  -4584602.59545  24037433.741    24037446.4334
  21095976.359    -6548027.312 9  -5099793.52447  21095976.150    21095982.0534
  20469698.107    -1675008.665 9  -1310371.98547  20469697.823    20469704.4534
  20757706.530    -3984055.461 9  -3106704.11447  20757706.099    20757713.1394
 01  7 14 16 53  0.0000000  0  8 26 23 22 06 21 18 17 15
  22158603.228    -3484795.039 8  -2716594.91346  22158603.518    22158610.1454
  20629046.765    -3258553.829 9  -2541304.20348  20629046.478    20629053.0944
  22794928.406    -1647461.894 8  -1288443.44046  22794927.740    22794935.8414
  21064676.716     3238332.036 9   2503588.45147  21064676.798    21064683.3464
  24019709.450    -5988364.729 8  -4657180.25345  24019709.212    24019721.7454
  21083610.574    -6613009.602 9  -5150429.01947  21083610.360    21083616.2834
  20467984.054    -1684016.066 9  -1317390.72447  20467983.760    20467990.4104
  20750471.787    -4022074.161 9  -3136329.05047  20750471.368    20750478.3884
 01  7 14 16 53 30.0000000  0  8 26 23 22 06 21 18 17 15
  22155033.152    -3503555.413 8  -2731213.37146  22155033.420    22155040.1004
  20625359.337    -3277931.235 9  -2556403.45948  20625359.061    20625365.6504
  22795736.349    -1643216.886 8  -1285135.65446  22795735.650    22795743.6834
  21076053.940     3298119.755 9   2550176.25847  21076054.031    21076060.6244
  24002017.943    -6081333.009 8  -4729622.76445  24002017.739    24002030.1824
  21071327.922    -6677554.894 9  -5200723.99247  21071327.743    21071333.6974
  20466318.364    -1692769.400 9  -1324211.49547  20466318.063    20466324.7264
  20743287.487    -4059827.650 9  -3165747.33747  20743287.091    20743294.1104
 01  7 14 16 54  0.0000000  0  8 26 23 22 06 21 18 17 15
  22151579.151    -3521706.107 8  -2745356.74846  22151579.401    22151586.0384
  20621762.917    -3296830.709 9  -2571130.30048  20621762.611    20621769.1894
  22796649.754    -1638416.734 8  -1281395.27646  22796649.058    22796657.1394
  21087511.451     3358329.232 9   2597092.70247  21087511.519    21087518.1494
  23984359.130    -6174129.692 8  -4801931.56845  23984358.874    23984371.0654
  21059128.238    -6741664.515 9  -5250679.49147  21059128.059    21059133.9744
  20464700.516    -1701271.207 9  -1330836.26847  20464700.213    20464706.8604
  20736153.295    -4097318.313 9  -3194960.81547  20736152.890    20736159.8694
 01  7 14 16 54 30.0000000  0  8 26 23 22 06 21 18 17 15
  22148241.945    -3539242.443 8  -2759021.41246  22148242.211    22148248.9754
  20618257.934    -3315249.160 9  -2585482.31748  20618257.667    20618264.2324
  22797669.210    -1633058.569 8  -1277220.08246  22797668.622    22797676.8334
  21099049.802     3418963.348 9   2644340.04047  21099049.862    21099056.4434
  23966733.991    -6266749.535 8  -4874102.58945  23966733.736    23966745.7754
  21047012.364    -6805333.853 9  -5300291.90347  21047012.157    21047018.0484
  20463131.161    -1709518.097 9  -1337262.40347  20463130.879    20463137.5154
  20729069.724    -4134542.562 9  -3223966.70447  20729069.314    20729076.3024
 01  7 14 16 55  0.0000000  0  8 26 23 22 06 21 18 17 15
  22145021.654    -3556164.904 8  -2772207.72346  22145021.920    22145028.7654
  20614844.124    -3333188.755 9  -2599461.20048  20614843.841    20614850.4304
  22798794.792    -1627144.283 8  -1272611.55246  22798794.133    22798802.2774
  21110668.453     3480019.496 9   2691916.22547  21110668.488    21110675.0114
  23949142.341    -6359193.059 8  -4946136.22045  23949142.074    23949154.0774
  21034980.087    -6868563.639 9  -5349561.81647  21034979.897    21034985.7504
  20461610.015    -1717511.722 9  -1343491.18747  20461609.713    20461616.3594
  20722036.568    -4171501.895 9  -3252766.16247  20722036.173    20722043.1594
 01  7 14 16 55 30.0000000  0  8 26 23 22 06 21 18 17 15
  22141918.309    -3572472.288 8  -2784914.76246  22141918.599    22141925.6004
  20611521.342    -3350649.845 9  -2613067.21647  20611521.071    20611527.7014
  22800025.930    -1620674.835 8  -1267570.39546  22800025.301    22800033.4244
  21122367.166     3541496.603 9   2739820.42947  21122367.219    21122373.7334
  23931584.541    -6451458.808 8  -5018031.33945  23931584.329    23931596.2024
  21023031.693    -6931352.736 9  -5398488.31947  21023031.488    21023037.3504
  20460137.043    -1725252.187 9  -1349522.70447  20460136.742    20460143.4234
  20715053.848    -4208196.338 9  -3281359.22547  20715053.467    20715060.4254
 01  7 14 16 56  0.0000000  0  8 26 23 22 06 21 18 17 15
  22138932.155    -3588164.087 8  -2797142.12846  22138932.436    22138939.6064
  20608289.503    -3367633.271 9  -2626301.03347  20608289.228    20608295.8454
  22801362.302    -1613651.792 8  -1262097.89946  22801361.686    22801369.8174
  21134145.761     3603393.337 9   2788051.61247  21134145.805    21134152.3214
  23914060.657    -6543546.019 8  -5089787.33245  23914060.521    23914072.3294
  21011167.216    -6993700.567 9  -5447070.99647  21011167.032    21011172.8874
  20458712.115    -1732740.175 9  -1355357.49547  20458711.828    20458718.4934
  20708121.500    -4244626.022 9  -3309745.94847  20708121.096    20708128.0824
 01  7 14 16 56 30.0000000  0  9 26 03 23 22 06 21 18 17 15
  22136063.133    -3603240.867 8  -2808890.22946  22136063.363    22136070.6614
  24621096.505    -4188194.999 7  -3234847.49645  24621096.289    24621106.0824
  20605148.126    -3384141.127 9  -2639164.29247  20605147.853    20605154.5014
  22802803.531    -1606078.138 8  -1256196.37646  22802802.958    22802811.0674
  21146003.720     3665707.167 9   2836607.82947  21146003.756    21146010.2714
  23896570.665    -6635455.229 8  -5161404.61745  23896570.519    23896582.4144
  20999386.593    -7055607.723 9  -5495310.30247  20999386.427    20999392.2634
  20457334.977    -1739977.245 9  -1360996.75947  20457334.672    20457341.3094
  20701239.234    -4280792.562 9  -3337927.64747  20701238.831    20701245.8094
 01  7 14 16 57  0.0000000  0  9 26 03 23 22 06 21 18 17 15
  22133312.223    -3617696.107 8  -2820154.00846  22133312.467    22133319.9794
  24601491.929    -4291217.925 7  -3315124.99745  24601491.801    24601501.3104
  20602098.176    -3400168.684 9  -2651653.28248  20602097.934    20602104.5384
  22804350.590    -1597948.762 8  -1249861.78046  22804349.927    22804358.0074
  21157941.837     3728442.246 8   2885492.28247  21157941.842    21157948.4454
  23879115.809    -6727179.635 8  -5232877.94445  23879115.802    23879127.6274
  20987691.216    -7117067.567 9  -5543201.04947  20987691.004    20987696.8144
  20456006.565    -1746958.140 9  -1366436.41148  20456006.271    20456012.8594
  20694408.018    -4316690.760 9  -3365900.24247  20694407.600    20694414.5824
 01  7 14 16 57 30.0000000  0  9 26 03 23 22 06 21 18 17 15
  22130679.517    -3631530.222 8  -2830933.84246  22130679.819    22130687.3874
  24581900.780    -4394170.107 7  -3395347.31945  24581900.535    24581910.0474
  20599139.294    -3415717.683 9  -2663769.36748  20599139.043    20599145.6334
  22806002.784    -1589265.755 8  -1243095.80946  22806002.213    22806010.2754
  21169959.736     3791596.575 9   2934703.41047  21169959.782    21169966.4684
  23861696.290    -6818719.300 8  -5304207.27445  23861696.232    23861707.9194
  20976080.695    -7178080.946 9  -5590743.88447  20976080.502    20976086.3074
  20454726.632    -1753684.253 9  -1371677.52247  20454726.328    20454732.9404
  20687627.639    -4352321.764 9  -3393664.63547  20687627.234    20687634.2074
 01  7 14 16 58  0.0000000  0  9 26 03 23 22 06 21 18 17 15
  22128165.012    -3644743.916 8  -2841230.22146  22128165.310    22128172.9264
  24562322.952    -4497051.082 7  -3475514.17445  24562322.709    24562332.1694
  20596271.104    -3430790.392 9  -2675514.31748  20596270.818    20596277.3804
  22807759.929    -1580031.941 8  -1235900.62346  22807759.336    22807767.4454
  21182056.979     3855167.422 9   2984239.10347  21182056.977    21182063.6664
  23844311.743    -6910075.086 8  -5375393.32845  23844311.527    23844323.2764
  20964555.132    -7238648.154 9  -5637939.06047  20964554.931    20964560.7294
  20453494.801    -1760157.464 9  -1376721.57147  20453494.500    20453501.0964
  20680897.831    -4387686.992 9  -3421221.92847  20680897.443    20680904.4044
 01  7 14 16 58 30.0000000  0  9 26 03 23 22 06 21 18 17 15
  22125769.055    -3657335.015 8  -2851041.45346  22125769.378    22125776.7964
  24542759.078    -4599857.672 7  -3555623.06445  24542758.712    24542768.5034
  20593493.654    -3445386.134 9  -2686887.60748  20593493.361    20593499.8684
  22809621.848    -1570247.495 8  -1228276.38346  22809621.208    22809629.3214
  21194233.461     3919155.067 9   3034099.57547  21194233.448    21194240.1444
  23826962.582    -7001244.252 8  -5446433.97445  23826962.398    23826974.0754
  20953114.851    -7298767.242 9  -5684785.05447  20953114.641    20953120.4034
  20452311.367    -1766376.575 9  -1381567.61947  20452311.090    20452317.6544
  20674218.874    -4422785.228 9  -3448571.17547  20674218.447    20674225.3854
 01  7 14 16 59  0.0000000  0  9 26 03 23 22 06 21 18 17 15
  22123491.820    -3669302.595 8  -2860366.84246  22123492.205    22123499.2794
  24523209.902    -4702588.049 7  -3635672.59145  24523209.755    24523219.7464
  20590806.829    -3459505.416 9  -2697889.63048  20590806.541    20590813.0344
  22811588.411    -1559913.452 8  -1220223.89346  22811587.726    22811595.8434
  21206488.932     3983558.360 9   3084283.91947  21206488.973    21206495.6714
  23809649.240    -7092225.175 8  -5517327.96545  23809649.063    23809660.7764
  20941760.003    -7358437.207 9  -5731281.08847  20941759.802    20941765.5804
  20451176.212    -1772341.643 9  -1386215.71847  20451175.946    20451182.5134
  20667590.705    -4457616.317 9  -3475712.26147  20667590.275    20667597.2314
 01  7 14 16 59 30.0000000  0  9 26 03 23 22 06 21 18 17 15
  22121333.153    -3680647.481 8  -2869206.96746  22121333.480    22121340.2424
  24503675.487    -4805241.746 7  -3715662.30645  24503675.229    24503685.1804
  20588210.276    -3473150.414 9  -2708522.07948  20588209.979    20588216.4704
  22813659.103    -1549031.897 8  -1211744.76946  22813658.443    22813666.6044
  21218822.992     4048374.618 9   3134790.06947  21218823.055    21218829.7534
  23792371.495    -7183018.974 8  -5588076.14645  23792371.365    23792383.0774
  20930490.456    -7417658.815 9  -5777427.74847  20930490.243    20930495.9924
  20450089.110    -1778054.378 9  -1390667.18847  20450088.828    20450095.4114
  20661013.101    -4492181.737 9  -3502646.32547  20661012.698    20661019.6194
 01  7 14 17  0  0.0000000  0  9 26 03 23 22 06 21 18 17 15
  22119293.326    -3691366.948 8  -2877559.77146  22119293.691    22119300.3934
  24484156.014    -4907815.136 7  -3795589.48145  24484155.873    24484166.1204
  20585704.218    -3486319.712 9  -2718783.85748  20585703.924    20585710.3984
  22815834.129    -1537601.891 8  -1202838.26846  22815833.518    22815841.7014
  21231235.888     4113604.713 9   3185618.68547  21231235.951    21231242.6234
  23775130.181    -7273622.243 8  -5658675.83645  23775129.971    23775141.5634
  20919306.765    -7476429.249 9  -5823222.84547  20919306.566    20919312.2814
  20449050.391    -1783512.907 9  -1394920.57947  20449050.107    20449056.6834
  20654486.433    -4526479.533 9  -3529371.85747  20654486.027    20654492.8914
 01  7 14 17  0 30.0000000  0  9 26 03 23 22 06 21 18 17 15
  22117372.680    -3701460.375 8  -2885424.74546  22117373.002    22117379.7184
  24464652.239    -5010306.591 7  -3875452.79845  24464652.304    24464662.5314
  20583288.519    -3499014.262 9  -2728675.69748  20583288.226    20583294.7034
  22818113.251    -1525625.165 8  -1193505.76646  22818112.619    22818120.8124
  21243727.292     4179247.245 9   3236768.67247  21243727.353    21243733.9694
  23757925.393    -7364033.435 8  -5729125.87845  23757925.211    23757936.6524
  20908209.083    -7534747.821 9  -5868665.84547  20908208.878    20908214.5764
  20448059.920    -1788717.662 9  -1398976.22747  20448059.683    20448066.2224
  20648010.710    -4560509.666 9  -3555888.81747  20648010.310    20648017.1554
 01  7 14 17  1  0.0000000  0  9 26 03 23 22 06 21 18 17 15
  22115571.216    -3710927.001 8  -2892801.30246  22115571.509    22115578.3204
  24445164.650    -5112714.387 7  -3955250.94745  24445164.645    24445174.9374
  20580963.006    -3511234.962 9  -2738198.30848  20580962.696    20580969.1854
  22820496.131    -1513103.349 8  -1183748.51246  22820495.480    22820503.6064
  21256296.948     4245300.956 9   3288239.05947  21256296.982    21256303.6304
  23740757.170    -7454252.234 8  -5799425.98845  23740756.996    23740768.3024
  20897197.476    -7592613.866 9  -5913756.22347  20897197.281    20897202.9924
  20447117.761    -1793668.843 9  -1402834.27947  20447117.485    20447124.0494
  20641585.870    -4594272.101 9  -3582197.18647  20641585.498    20641592.3344
 01  7 14 17  1 30.0000000  0  9 26 03 23 22 06 21 18 17 15
  22113889.294    -3719765.071 8  -2899688.07946  22113889.593    22113896.5264
  24425693.304    -5215035.578 7  -4034981.59345  24425693.514    24425703.6574
  20578727.751    -3522981.242 9  -2747351.24048  20578727.463    20578733.9114
  22822982.754    -1500035.982 8  -1173566.17146  22822982.128    22822990.1944
  21268944.796     4311766.021 9   3340029.98447  21268944.846    21268951.5704
  23723626.004    -7544276.022 8  -5869574.17445  23723625.866    23723636.9874
  20886272.432    -7650025.282 9  -5958492.34947  20886272.245    20886277.9534
  20446224.035    -1798365.366 9  -1406493.90147  20446223.764    20446230.3454
  20635212.238    -4627765.781 9  -3608296.13047  20635211.870    20635218.6874
 01  7 14 17  2  0.0000000  0  9 26 03 23 22 06 21 18 17 15
  22112326.824    -3727975.524 8  -2906085.81746  22112327.134    22112334.0714
  24406238.977    -5317269.546 7  -4114644.31445  24406238.992    24406249.1194
  20576582.317    -3534255.536 9  -2756136.38748  20576582.019    20576588.4514
  22825572.701    -1486425.668 8  -1162960.74846  22825572.105    22825580.1294
  21281670.379     4378639.468 9   3392139.12347  21281670.456    21281677.2674
  23706531.804    -7634105.943 8  -5939571.27745  23706531.610    23706542.6174
  20875433.702    -7706982.981 9  -6002874.92947  20875433.538    20875439.2464
  20445378.434    -1802808.941 9  -1409956.41647  20445378.179    20445384.7604
  20628889.483    -4660992.128 9  -3634186.76547  20628889.087    20628895.8774
 01  7 14 17  2 30.0000000  0  9 26 03 23 22 06 21 18 17 15
  22110884.159    -3735557.280 8  -2911993.65246  22110884.463    22110891.2524
  24386801.605    -5419413.968 7  -4194237.25245  24386801.579    24386811.5574
  20574526.669    -3545058.034 9  -2764553.90448  20574526.382    20574532.8074
  22828265.908    -1472273.152 8  -1151932.81446  22828265.300    22828273.3874
  21294473.706     4445920.774 9   3444566.08147  21294473.753    21294480.5864
  23689474.740    -7723740.048 8  -6009415.81845  23689474.568    23689485.4774
  20864681.600    -7763485.732 9  -6046902.99947  20864681.412    20864687.0784
  20444581.059    -1806999.337 9  -1413221.65147  20444580.801    20444587.3734
  20622617.680    -4693950.717 9  -3659868.76047  20622617.249    20622624.0384
 01  7 14 17  3  0.0000000  0  9 26 03 23 22 06 21 18 17 15
  22109561.315    -3742509.291 8  -2917410.77446  22109561.589    22109568.2934
  24367381.741    -5521466.538 7  -4273758.57045  24367381.523    24367391.5734
  20572560.718    -3555389.205 9  -2772604.15248  20572560.443    20572566.8434
  22831061.963    -1457579.911 8  -1140483.54646  22831061.335    22831069.4634
  21307354.353     4513608.883 9   3497310.02547  21307354.405    21307361.2714
  23672455.285    -7813176.968 8  -6079106.66945  23672455.151    23672465.9934
  20854016.226    -7819532.423 9  -6090575.70547  20854016.035    20854021.7064
  20443831.861    -1810936.350 9  -1416289.44647  20443831.620    20443838.1764
  20616396.853    -4726641.255 9  -3685341.88547  20616396.416    20616403.1714
 01  7 14 17  3 30.0000000  0  9 26 03 23 22 06 21 18 17 15
  22108358.596    -3748829.871 8  -2922335.87646  22108358.851    22108365.5264
  24347979.734    -5623424.265 7  -4353206.04445  24347979.605    24347989.4024
  20570684.551    -3565248.586 9  -2780286.77148  20570684.262    20570690.6754
  22833960.962    -1442345.954 8  -1128612.93546  22833960.318    22833968.3434
  21320312.451     4581703.870 9   3550371.01947  21320312.495    21320319.3584
  23655474.008    -7902414.087 8  -6148641.88345  23655473.767    23655484.5004
  20843438.003    -7875121.018 9  -6133891.45147  20843437.828    20843443.4914
  20443131.119    -1814618.711 9  -1419158.81147  20443130.875    20443137.4184
  20610227.351    -4759062.447 9  -3710605.12947  20610226.897    20610233.6194
 01  7 14 17  4  0.0000000  0  9 26 03 23 22 06 21 18 17 15
  22107276.169    -3754518.130 8  -2926768.25146  22107276.401    22107283.0934
  24328596.140    -5725285.092 7  -4432578.00445  24328595.804    24328605.6644
  20568898.065    -3574636.609 9  -2787602.10248  20568897.778    20568904.1804
  22836962.705    -1426571.961 8  -1116321.52246  22836962.000    22836969.9664
  21333347.754     4650204.665 9   3603748.22547  21333347.791    21333354.6414
  23638530.760    -7991450.412 8  -6218020.60945  23638530.496    23638541.1874
  20832947.124    -7930250.811 9  -6176849.69147  20832946.931    20832952.5654
  20442478.828    -1818046.410 9  -1421829.74147  20442478.567    20442485.1444
  20604109.076    -4791213.971 9  -3735658.24647  20604108.642    20604115.3644
 01  7 14 17  4 30.0000000  0  9 26 03 23 22 06 21 18 17 15
  22106313.981    -3759573.944 8  -2930707.79246  22106314.247    22106320.8454
  24309231.423    -5827047.484 7  -4511873.26745  24309230.900    24309240.6404
  20567201.088    -3583554.272 9  -2794550.91248  20567200.783    20567207.1604
  22840066.896    -1410259.302 8  -1103610.35746  22840066.231    22840074.2254
  21346459.988     4719109.794 9   3657440.49947  21346460.023    21346466.8644
  23621625.952    -8080284.970 8  -6287242.12145  23621625.719    23621636.3384
  20822543.695    -7984921.282 9  -6219450.01347  20822543.503    20822549.0914
  20441874.952    -1821219.769 9  -1424302.47147  20441874.715    20441881.2734
  20598042.042    -4823096.297 9  -3760501.59347  20598041.603    20598048.3164
 01  7 14 17  5  0.0000000  0  9 26 03 23 22 06 21 18 17 15
  22105472.708    -3763995.346 8  -2934152.99346  22105472.999    22105479.4274
  24289885.857    -5928707.749 7  -4591088.92345  24289885.512    24289895.1144
  20565593.712    -3592001.121 9  -2801132.86948  20565593.396    20565599.7514
  22843273.600    -1393408.262 8  -1090479.69846  22843272.842    22843280.8794
  21359649.209     4788419.338 9   3711447.88747  21359649.292    21359656.0464
  23604760.005    -8168915.104 8  -6356304.35945  23604759.765    23604770.3964
  20812228.084    -8039130.190 9  -6261690.68547  20812227.874    20812233.4534
  20441319.711    -1824137.606 9  -1426576.10947  20441319.439    20441326.0314
  20592026.613    -4854707.829 9  -3785133.94347  20592026.177    20592032.8264
 01  7 14 17  5 30.0000000  0  9 26 03 23 22 06 21 18 17 15
  22104751.892    -3767783.581 8  -2937104.83746  22104752.178    22104758.4994
  24270559.954    -6030265.658 7  -4670224.83845  24270559.562    24270569.3394
  20564075.447    -3599979.847 9  -2807350.04748  20564075.137    20564081.4534
  22846581.933    -1376022.408 8  -1076932.29846  22846581.280    22846589.2974
  21372914.919     4858130.335 9   3765768.08747  21372914.959    21372921.6384
  23587932.757    -8257341.770 8  -6425208.03745  23587932.624    23587943.1194
  20802000.070    -8092878.536 9  -6303572.47647  20801999.865    20802005.4744
  20440812.766    -1826801.782 9  -1428652.08247  20440812.480    20440819.0634
  20586062.365    -4886050.151 9  -3809556.51347  20586061.936    20586068.5864
 01  7 14 17  6  0.0000000  0  9 26 03 23 22 06 21 18 17 15
  22104151.578    -3770938.792 8  -2939563.41846  22104151.863    22104158.0934
  24251253.650    -6131719.914 7  -4749279.96845  24251253.326    24251263.1994
  20562646.008    -3607491.725 9  -2813203.45048  20562645.667    20562651.9744
  22849991.882    -1358103.268 8  -1062969.35346  22849991.260    22849999.2564
  21386256.573     4928240.865 9   3820399.62147  21386256.573    21386263.2954
  23571144.441    -8345564.462 8  -6493952.77745  23571144.227    23571154.7364
  20791859.658    -8146166.564 9  -6345095.57947  20791859.465    20791865.0484
  20440353.913    -1829212.924 9  -1430530.89447  20440353.638    20440360.2174
  20580149.246    -4917123.733 9  -3833769.67947  20580148.809    20580155.4604
 01  7 14 17  6 30.0000000  0  9 26 03 23 22 06 21 18 17 15
  22103671.869    -3773460.475 8  -2941528.34346  22103672.146    22103678.2744
  24231967.677    -6233068.722 7  -4828252.93445  24231967.258    24231976.8664
  20561305.255    -3614537.399 9  -2818693.57248  20561304.915    20561311.2434
  22853503.111    -1339651.740 8  -1048591.54946  22853502.490    22853510.4674
  21399674.015     4998749.847 9   3875341.63947  21399674.024    21399680.7454
  23554395.020    -8433582.079 8  -6562537.70745  23554394.812    23554405.4154
  20781807.066    -8198993.279 9  -6386259.21447  20781806.845    20781812.4234
  20439943.318    -1831370.833 9  -1432212.37447  20439943.022    20439949.5844
  20574287.362    -4947928.302 9  -3857773.22147  20574286.888    20574293.5284
 01  7 14 17  7  0.0000000  0  9 26 03 23 22 06 21 18 17 15
  22103312.935    -3775347.013 8  -2942998.37146  22103313.174    22103319.3134
  24212702.087    -6334309.020 7  -4907141.33445  24212701.826    24212711.3154
  20560053.205    -3621116.698 9  -2823820.28848  20560052.922    20560059.2334
  22857115.502    -1320668.174 8  -1033799.18146  22857114.919    22857122.9764
  21413167.296     5069657.051 9   3930593.95547  21413167.263    21413173.9844
  23537685.079    -8521392.634 8  -6630961.31046  23537684.870    23537695.4634
  20771842.535    -8251357.012 9  -6427062.08447  20771842.323    20771847.8764
  20439581.054    -1833274.772 9  -1433695.95747  20439580.743    20439587.2854
  20568476.834    -4978462.745 9  -3881566.27247  20568476.370    20568483.0444
 01  7 14 17  7 30.0000000  0  9 26 03 23 22 06 21 18 17 15
  22103074.839    -3776597.690 8  -2943972.90446  22103075.070    22103081.3774
  24193457.678    -6435438.115 7  -4985943.09445  24193457.448    24193466.9024
  20558889.867    -3627230.107 9  -2828583.97148  20558889.577    20558895.8704
  22860828.985    -1301154.146 8  -1018593.45846  22860828.387    22860836.3944
  21426736.106     5140961.606 9   3986155.89747  21426736.119    21426742.8264
  23521015.053    -8608994.232 8  -6699222.08546  23521014.731    23521025.2564
  20761966.323    -8303256.785 9  -6467503.42347  20761966.110    20761971.6354
  20439267.183    -1834924.206 9  -1434981.21947  20439266.890    20439273.3654
  20562717.796    -5008726.626 9  -3905148.49447  20562717.327    20562723.9984
 01  7 14 17  8  0.0000000  0  9 26 03 23 22 06 21 18 17 15
  22102957.531    -3777214.030 8  -2944453.12946  22102957.771    22102964.1754
  24174234.381    -6536456.077 7  -5064658.23045  24174234.366    24174243.6004
  20557814.648    -3632880.367 9  -2832986.75248  20557814.341    20557820.6634
  22864642.725    -1281113.038 8  -1002977.04246  22864642.107    22864650.1134
  21440379.938     5212660.338 9   4042024.99747  21440379.944    21440386.6644
  23504384.489    -8696387.802 8  -6767320.76546  23504384.114    23504394.5434
  20752178.195    -8354693.722 9  -6507584.10847  20752177.966    20752183.4694
  20439001.344    -1836321.200 9  -1436069.77547  20439001.054    20439007.5474
  20557009.951    -5038721.470 9  -3928521.07247  20557009.508    20557016.1394
 01  7 14 17  8 30.0000000  0  9 26 03 23 22 06 21 18 17 15
  22102961.281    -3777194.374 8  -2944437.78846  22102961.478    22102968.0004
  24155033.083    -6637359.298 7  -5143283.95045  24155032.949    24155042.3164
  20556827.657    -3638066.925 9  -2837028.21248  20556827.355    20556833.6834
  22868556.753    -1260544.485 8   -986949.61546  22868556.158    22868564.2504
  21454098.834     5284753.289 9   4098201.27447  21454098.846    21454105.5444
  23487793.907    -8783571.067 8  -6835255.58246  23487793.609    23487803.8914
  20742478.469    -8405665.956 9  -6547302.68547  20742478.251    20742483.7664
  20438783.819    -1837464.415 9  -1436960.58547  20438783.505    20438789.9904
  20551353.563    -5068446.061 9  -3951683.06147  20551353.114    20551359.7224
 01  7 14 17  9  0.0000000  0  9 26 03 23 22 06 21 18 17 15
  22103086.249    -3776537.026 8  -2943925.52746  22103086.502    22103093.0834
  24135854.179    -6738144.113 7  -5221817.40945  24135854.196    24135863.5084
  20555929.032    -3642789.303 9  -2840707.97248  20555928.717    20555935.0654
  22872571.130    -1239448.259 8   -970511.02846  22872570.549    22872578.7654
  21467892.768     5357240.605 9   4154684.84747  21467892.767    21467899.4864
  23471243.813    -8870541.641 8  -6903024.66746  23471243.546    23471253.7544
  20732867.562    -8456171.325 9  -6586657.47547  20732867.365    20732872.8694
  20438614.808    -1838352.374 9  -1437652.49247  20438614.512    20438620.9774
  20545748.838    -5097898.901 9  -3974633.30247  20545748.414    20545755.0624
 01  7 14 17  9 30.0000000  0  9 26 03 23 22 06 21 18 17 15
  22103332.676    -3775241.393 8  -2942915.92846  22103332.961    22103339.6824
  24116698.118    -6838808.581 7  -5300257.12045  24116698.177    24116707.5474
  20555118.607    -3647048.179 9  -2844026.56448  20555118.298    20555124.6104
  22876685.753    -1217825.933 8   -953662.48046  22876685.150    22876693.3684
  21481761.454     5430120.991 9   4211474.71047  21481761.486    21481768.2334
  23454734.385    -8957298.353 8  -6970627.09646  23454734.136    23454744.3644
  20723345.698    -8506209.054 9  -6625647.87047  20723345.506    20723351.0064
  20438494.422    -1838985.085 9  -1438145.50547  20438494.125    20438500.6084
  20540195.906    -5127079.520 9  -3997371.42247  20540195.479    20540202.1344
 01  7 14 17 10  0.0000000  0  9 26 03 23 22 06 21 18 17 15
  22103700.782    -3773306.856 8  -2941408.48246  22103701.076    22103707.8654
  24097565.523    -6939350.253 7  -5378601.12845  24097565.653    24097574.9684
  20554396.269    -3650843.907 9  -2846984.26048  20554395.958    20554402.2694
  22880900.186    -1195679.029 8   -936405.18046  22880899.573    22880907.7284
  21495704.877     5503393.890 9   4268570.42547  21495704.903    21495711.6574
  23438265.997    -9043839.434 8  -7038061.52446  23438265.717    23438275.9974
  20713912.964    -8555778.226 9  -6664273.16047  20713912.757    20713918.2444
  20438422.678    -1839361.914 9  -1438439.13347  20438422.385    20438428.8404
  20534694.956    -5155987.274 9  -4019896.92747  20534694.557    20534701.1164
 01  7 14 17 10 30.0000000  0  9 26 03 23 22 06 21 18 17 15
  22104190.440    -3770733.592 8  -2939403.32046  22104190.677    22104197.5724
  24078456.850    -7039767.465 7  -5456848.18045  24078456.972    24078466.0834
  20553761.823    -3654177.908 9  -2849582.16848  20553761.547    20553767.8454
  22885214.071    -1173009.371 8   -918740.53246  22885213.446    22885221.6854
  21509722.535     5577057.372 9   4325970.49247  21509722.589    21509729.3674
  23421838.724    -9130164.118 8  -7105327.33146  23421838.539    23421848.7984
  20704569.429    -8604878.687 9  -6702533.21747  20704569.235    20704574.6924
  20438399.498    -1839483.492 9  -1438533.86447  20438399.270    20438405.7154
  20529245.826    -5184622.673 9  -4042210.20447  20529245.399    20529251.9604
 01  7 14 17 11  0.0000000  0  9 26 03 23 22 06 21 18 17 15
  22104801.303    -3767522.389 8  -2936901.08446  22104801.584    22104808.5334
  24059371.924    -7140059.224 8  -5534997.45345  24059372.073    24059381.0154
  20553214.873    -3657052.089 9  -2851821.77748  20553214.586    20553220.9124
  22889627.007    -1149818.904 8   -900670.04346  22889626.411    22889634.7564
  21523814.096     5651108.906 9   4383672.93347  21523814.164    21523820.9724
  23405452.730    -9216272.336 8  -7172424.46946  23405452.602    23405462.7544
  20695315.022    -8653510.700 9  -6740428.25147  20695314.822    20695320.2884
  20438424.801    -1839350.852 9  -1438430.50447  20438424.493    20438430.9704
  20523848.311    -5212986.304 9  -4064311.71247  20523847.926    20523854.5214
 01  7 14 17 11 30.0000000  0  9 26 03 23 22 06 21 18 17 15
  22105534.035    -3763671.273 8  -2933900.21246  22105534.347    22105541.3754
  24040311.641    -7240221.612 7  -5613045.94045  24040311.699    24040320.6104
  20552755.580    -3659465.596 9  -2853702.41848  20552755.304    20552761.6074
  22894139.213    -1126107.438 8   -882193.59646  22894138.598    22894147.0194
  21537979.631     5725549.093 9   4441678.22247  21537979.697    21537986.4864
  23389108.450    -9302161.532 8  -7239350.92846  23389108.278    23389118.3684
  20686150.160    -8701672.077 9  -6777956.55247  20686149.976    20686155.4424
  20438498.709    -1838962.110 9  -1438127.58347  20438498.462    20438504.9414
  20518503.007    -5241076.374 9  -4086200.05947  20518502.606    20518509.1864
 01  7 14 17 12  0.0000000  0  9 26 03 23 22 06 21 18 17 15
  22106388.638    -3759180.635 8  -2930400.99346  22106388.906    22106395.9304
  24021276.392    -7340252.906 8  -5690992.27445  24021276.447    24021285.1434
  20552383.686    -3661419.917 9  -2855225.25548  20552383.411    20552389.7054
  22898750.099    -1101877.552 8   -863313.18546  22898749.465    22898757.8854
  21552218.747     5800375.949 8   4499984.81747  21552218.809    21552225.6084
  23372805.936    -9387830.985 8  -7306106.17946  23372805.784    23372815.7424
  20677074.870    -8749362.886 9  -6815118.18747  20677074.719    20677080.1644
  20438621.341    -1838317.766 9  -1437625.49647  20438621.107    20438627.5664
  20513209.557    -5268893.368 9  -4107875.62147  20513209.171    20513215.7494
 01  7 14 17 12 30.0000000  0  9 26 03 23 22 06 21 18 17 15
  22107364.722    -3754050.788 8  -2926403.71746  22107365.030    22107372.1734
  24002266.280    -7440151.363 8  -5768835.10145  24002266.297    24002274.9394
  20552098.877    -3662916.425 9  -2856391.35348  20552098.608    20552104.9224
  22903459.176    -1077131.332 8   -844030.43846  22903458.505    22903466.9214
  21566531.130     5875587.695 9   4558591.31647  21566531.191    21566537.9754
  23356545.363    -9473280.234 8  -7372689.84046  23356545.201    23356555.1104
  20668089.193    -8796582.792 9  -6851912.88248  20668089.050    20668094.4644
  20438792.513    -1837418.347 9  -1436924.64747  20438792.249    20438798.7124
  20507968.115    -5296437.258 9  -4129338.37547  20507967.729    20507974.3054
 01  7 14 17 13  0.0000000  0  9 26 03 23 22 06 21 18 17 15
  22108462.592    -3748281.282 8  -2921907.97846  22108462.910    22108470.1244
  23983281.846    -7539914.645 8  -5846572.59845  23983281.990    23983290.5524
  20551901.078    -3663955.839 9  -2857201.27648  20551900.795    20551907.1394
  22908266.363    -1051869.768 8   -824346.12546  22908265.738    22908273.9584
  21580916.608     5951183.261 8   4617496.90247  21580916.622    21580923.4004
  23340326.902    -9558507.641 8  -7439100.62946  23340326.749    23340336.6854
  20659193.282    -8843331.188 9  -6888340.16748  20659193.108    20659198.5014
  20439012.238    -1836263.466 9  -1436024.74147  20439012.016    20439018.4564
  20502778.689    -5323707.851 9  -4150588.16847  20502778.272    20502784.8834
 01  7 14 17 13 30.0000000  0  9 26 03 23 22 06 21 18 17 15
  22109682.046    -3741872.450 8  -2916914.08846  22109682.366    22109689.6534
  23964323.639    -7639541.061 8  -5924203.45745  23964323.624    23964332.1224
  20551790.027    -3664539.553 9  -2857656.10448  20551789.732    20551796.0454
  22913171.230    -1026094.607 8   -804261.59646  22913170.562    22913178.6804
  21595374.661     6027160.707 8   4676700.05047  21595374.673    21595381.5074
  23324150.755    -9643512.860 8  -7505338.30546  23324150.657    23324160.5514
  20650387.072    -8889607.857 9  -6924399.87648  20650386.905    20650392.2964
  20439280.553    -1834853.633 9  -1434926.16847  20439280.271    20439286.7734
  20497641.229    -5350705.341 9  -4171625.15247  20497640.829    20497647.4304
 01  7 14 17 14  0.0000000  0  9 26 03 23 22 06 21 18 17 15
  22111023.241    -3734824.610 8  -2911422.25246  22111023.557    22111030.8084
  23945391.710    -7739028.937 8  -6001726.33345  23945391.581    23945400.0784
  20551765.372    -3664668.944 9  -2857756.91948  20551765.079    20551771.4124
  22918173.402     -999807.917 8   -783778.47546  22918172.759    22918180.9204
  21609905.039     6103518.310 8   4736199.41947  21609905.064    21609911.9604
  23308016.941    -9728295.789 8  -7571402.75646  23308016.776    23308026.6934
  20641670.671    -8935412.792 9  -6960091.99548  20641670.499    20641675.8814
  20439597.259    -1833189.044 9  -1433629.08947  20439597.041    20439603.5364
  20492555.650    -5377429.810 9  -4192449.39747  20492555.279    20492561.8894
 01  7 14 17 14 30.0000000  0  9 26 03 23 22 06 21 18 17 15
  22112486.098    -3727137.324 8  -2905432.13746  22112486.394    22112493.4644
  23926486.610    -7838375.589 8  -6079139.20745  23926486.489    23926494.9164
  20551827.133    -3664344.413 9  -2857504.02548  20551826.836    20551833.1544
  22923272.647     -973011.559 8   -762898.21446  22923271.949    22923280.1324
  21624507.529     6180255.182 8   4795994.32547  21624507.595    21624514.5674
  23291925.854    -9812854.499 8  -7637292.49146  23291925.656    23291935.5424
  20633044.227    -8980745.027 9  -6995415.78348  20633044.071    20633049.4284
  20439962.654    -1831269.193 9  -1432133.09947  20439962.399    20439968.8974
  20487522.269    -5403880.619 9  -4213060.39647  20487521.884    20487528.4684
 01  7 14 17 15  0.0000000  0  9 26 03 23 22 06 21 18 17 15
  22114070.773    -3718809.439 8  -2898942.85946  22114071.077    22114078.2234
  23907608.965    -7937577.597 8  -6156439.36245  23907608.877    23907617.1764
  20551975.244    -3663566.166 9  -2856897.58748  20551974.954    20551981.2534
  22928468.693     -945705.875 8   -741621.07946  22928468.042    22928476.2684
  21639182.174     6257371.050 8   4856084.56047  21639182.266    21639189.2744
  23275877.880    -9897186.524 8  -7703005.59546  23275877.676    23275887.4284
  20624508.095    -9025602.853 9  -7030369.89748  20624507.910    20624513.2494
  20440376.682    -1829093.048 9  -1430437.40447  20440376.462    20440382.9614
  20482541.185    -5430056.529 9  -4233457.19047  20482540.752    20482547.3614
 01  7 14 17 15 30.0000000  0  9 26 03 23 22 06 21 18 17 15
  22115777.197    -3709841.126 8  -2891954.60146  22115777.585    22115784.9694
  23888759.324    -8036633.020 8  -6233625.28645  23888759.256    23888767.6414
  20552209.485    -3662335.103 9  -2855938.30748  20552209.182    20552215.4974
  22933761.447     -917892.266 8   -719948.16646  22933760.808    22933769.1174
  21653928.693     6334864.312 8   4916468.85047  21653928.767    21653935.7554
  23259873.092    -9981291.565 8  -7768541.84746  23259872.975    23259882.5844
  20616062.202    -9069986.130 9  -7064954.23748  20616062.027    20616067.3534
  20440839.626    -1826660.699 9  -1428542.06847  20440839.391    20440845.8574
  20477612.409    -5455957.476 9  -4253639.72647  20477611.964    20477618.5714
 01  7 14 17 16  0.0000000  0  9 26 03 23 22 06 21 18 17 15
  22117605.750    -3700232.902 8  -2884467.66646  22117606.100    22117613.4174
  23869937.766    -8135540.164 8  -6310695.66545  23869937.666    23869945.9704
  20552529.596    -3660652.663 9  -2854627.30348  20552529.300    20552535.6434
  22939150.464     -889572.717 8   -697881.00746  22939149.847    22939158.1774
  21668746.764     6412733.196 8   4977145.84747  21668746.809    21668753.7484
  23243911.684   -10065168.900 8  -7833900.65046  23243911.565    23243921.0984
  20607706.684    -9113894.675 9  -7099168.65248  20607706.512    20607711.8264
  20441351.199    -1823972.460 9  -1426447.34147  20441350.947    20441357.4524
  20472735.864    -5481583.719 9  -4273608.21147  20472735.450    20472741.9974
 01  7 14 17 16 30.0000000  0  9 26 03 23 22 06 21 18 17 15
  22119555.944    -3689984.819 8  -2876482.10946  22119556.221    22119563.4514
  23851144.849    -8234296.662 8  -6387648.66345  23851144.817    23851153.1434
  20552935.429    -3658519.930 9  -2852965.42348  20552935.149    20552941.4514
  22944635.349     -860749.400 8   -675421.31146  22944634.760    22944643.0534
  21683635.964     6490976.257 8   5038114.40247  21683635.991    21683642.9754
  23227993.858   -10148817.170 8  -7899080.96746  23227993.655    23228003.2434
  20599441.503    -9157328.276 9  -7133012.98648  20599441.324    20599446.6344
  20441911.476    -1821028.310 9  -1424153.19847  20441911.219    20441917.6834
  20467911.658    -5506935.113 9  -4293362.52947  20467911.210    20467917.7324
 01  7 14 17 17  0.0000000  0  9 26 03 23 22 06 21 18 17 15
  22121627.855    -3679095.794 8  -2867997.14946  22121628.196    22121635.4144
  23832381.386    -8332899.230 8  -6464481.72045  23832381.226    23832389.6664
  20553426.945    -3655936.873 9  -2850952.64348  20553426.679    20553432.9984
  22950215.940     -831423.284 8   -652569.81946  22950215.356    22950223.6554
  21698596.188     6569593.007 8   5099374.15047  21698596.274    21698603.3334
  23212119.799   -10232234.644 8  -7964081.43946  23212119.674    23212129.2744
  20591266.977    -9200285.491 9  -7166486.10748  20591266.813    20591272.1174
  20442520.654    -1817827.218 9  -1421658.83747  20442520.398    20442526.8254
  20463139.913    -5532010.464 9  -4312901.74647  20463139.513    20463146.0564
 01  7 14 17 17 30.0000000  0  9 26 03 23 22 06 21 18 17 15
  22123821.343    -3667568.928 8  -2859015.15946  22123821.707    22123828.8754
  23813646.925    -8431348.609 8  -6541195.41545  23813646.825    23813655.3334
  20554003.423    -3652907.530 9  -2848592.10748  20554003.150    20554009.4804
  22955891.429     -801598.475 8   -629329.73846  22955890.847    22955899.1614
  21713626.860     6648579.158 8   5160921.73647  21713626.909    21713634.0054
  23196289.521   -10315422.703 8  -8028903.14746  23196289.383    23196298.9984
  20583182.682    -9242768.656 9  -7199589.84248  20583182.519    20583187.8114
  20443178.182    -1814371.834 9  -1418966.34047  20443177.932    20443184.3804
  20458420.320    -5556812.221 9  -4332227.77947  20458419.901    20458426.4764
 01  7 14 17 18  0.0000000  0  9 26 03 23 22 06 21 18 17 15
  22126136.831    -3655401.517 8  -2849534.03746  22126137.214    22126144.2674
  23794942.690    -8529639.453 8  -6617785.57745  23794942.594    23794951.0594
  20554665.183    -3649429.811 9  -2845882.18948  20554664.922    20554671.2484
  22961662.123     -771273.530 8   -605699.92946  22961661.512    22961669.7854
  21728728.075     6727936.199 8   5222758.31947  21728728.124    21728735.1894
  23180503.645   -10398377.848 8  -8093543.38646  23180503.462    23180513.0054
  20575189.269    -9284774.319 9  -7232321.50448  20575189.103    20575194.3744
  20443884.778    -1810659.090 9  -1416073.29047  20443884.523    20443890.8844
  20453753.375    -5581337.145 9  -4351338.09747  20453752.961    20453759.5214
 01  7 14 17 18 30.0000000  0  9 26 03 23 22 06 21 18 17 15
  22128573.854    -3642595.369 8  -2839555.20746  22128574.207    22128581.0744
  23776268.699    -8627771.555 8  -6694252.04345  23776268.572    23776277.0004
  20555411.814    -3645506.462 9  -2842825.02148  20555411.555    20555417.8474
  22967527.181     -740452.158 8   -581683.30246  22967526.632    22967534.8894
  21743899.245     6807660.879 8   5284881.37947  21743899.272    21743906.2854
  23164761.977   -10481100.955 8  -8158002.78646  23164761.729    23164771.2104
  20567286.452    -9326303.931 9  -7264682.20748  20567286.264    20567291.5054
  20444639.896    -1806690.829 9  -1412981.13847  20444639.621    20444646.0324
  20449138.814    -5605586.911 9  -4370234.00147  20449138.386    20449144.9504
 01  7 14 17 19  0.0000000  0  9 26 03 23 22 06 21 18 17 15
  22131132.520    -3629149.956 8  -2829078.24746  22131132.836    22131139.5154
  23757625.488    -8725741.895 8  -6770592.47545  23757625.328    23757633.6874
  20556243.123    -3641138.061 9  -2839421.06748  20556242.829    20556249.1004
  22973486.573     -709135.945 8   -557281.08646  22973485.956    22973494.1364
  21759140.258     6887752.588 8   5347290.43347  21759140.330    21759147.3424
  23149064.692   -10563590.186 8  -8222279.97146  23149064.496    23149073.8744
  20559474.397    -9367356.469 9  -7296671.16848  20559474.212    20559479.4244
  20445443.878    -1802466.082 9  -1409689.12747  20445443.584    20445450.0194
  20444576.819    -5629560.274 9  -4388914.52647  20444576.404    20444582.9454
 01  7 14 17 19 30.0000000  0  9 26 03 23 22 06 21 18 17 15
  22133812.781    -3615065.132 8  -2818103.03646  22133813.110    22133819.7284
  23739013.570    -8823547.311 8  -6846804.41145  23739013.543    23739021.8794
  20557158.987    -3636325.129 9  -2835670.72048  20557158.695    20557164.9534
  22979539.799     -677326.012 8   -532494.15046  22979539.236    22979547.4364
  21774450.938     6968210.208 8   5409984.61447  21774450.941    21774458.0214
  23133412.217   -10645843.976 8  -8286373.69246  23133412.022    23133421.3364
  20551753.301    -9407931.095 9  -7328287.72948  20551753.107    20551758.3224
  20446296.679    -1797984.236 9  -1406196.78147  20446296.413    20446302.8374
  20440067.512    -5653256.585 9  -4407379.17147  20440067.116    20440073.6634
 01  7 14 17 20  0.0000000  0  9 26 03 23 22 06 21 18 17 15
  22136614.737    -3600340.579 8  -2806629.35346  22136615.100    22136621.7874
  23720433.475    -8921185.635 8  -6922886.11445  23720433.475    23720441.8414
  20558159.312    -3631068.287 9  -2831574.46948  20558159.033    20558165.2994
  22985686.800     -645023.255 8   -507323.21046  22985686.250    22985694.5264
  21789830.880     7049032.487 8   5472962.94747  21789830.964    21789838.0884
  23117804.730   -10727861.050 8  -8350282.95146  23117804.567    23117813.9034
  20544123.251    -9448026.904 9  -7359531.18848  20544123.070    20544128.3134
  20447198.657    -1793244.749 9  -1402503.67447  20447198.339    20447204.7374
  20435611.117    -5676675.192 9  -4425627.41447  20435610.711    20435617.2404
 01  7 14 17 20 30.0000000  0  9 26 03 23 22 06 21 18 17 15
  22139538.204    -3584978.147 8  -2794658.62446  22139538.536    22139545.2194
  23701885.517    -9018656.185 8  -6998837.11245  23701885.486    23701893.7134
  20559243.643    -3625370.173 9  -2827134.37448  20559243.362    20559249.6574
  22991927.020     -612231.107 8   -481770.90846  22991926.430    22991934.8014
  21805279.733     7130216.383 8   5536223.05447  21805279.809    21805286.9254
  23102242.258   -10809641.965 8  -8414008.21446  23102242.071    23102251.2984
  20536584.102    -9487645.406 9  -7390402.72148  20536583.939    20536589.1514
  20448149.279    -1788249.250 9  -1398611.07347  20448148.951    20448155.3404
  20431207.239    -5699817.577 9  -4443660.42647  20431206.820    20431213.3824
 01  7 14 17 21  0.0000000  0  9 26 03 23 22 06 21 18 17 15
  22142582.939    -3568977.739 8  -2782190.76246  22142583.229    22142589.9714
  23683370.070    -9115955.846 8  -7074654.95545  23683369.914    23683378.1084
  20560411.772    -3619231.514 9  -2822350.99348  20560411.473    20560417.7624
  22998260.073     -578951.200 8   -455838.55046  22998259.446    22998267.8044
  21820797.298     7211761.172 8   5599764.37047  21820797.356    21820804.4434
  23086725.034   -10891185.157 8  -8477548.23546  23086724.843    23086733.9674
  20529135.932    -9526785.682 9  -7420901.61048  20529135.765    20529140.9944
  20449148.733    -1782996.981 9  -1394518.39647  20449148.449    20449154.8124
  20426856.084    -5722683.122 9  -4461477.71548  20426855.672    20426862.2184
 01  7 14 17 21 30.0000000  0  9 26 03 23 22 06 21 18 17 15
  22145749.265    -3552338.601 8  -2769225.18346  22145749.616    22145756.2904
  23664887.708    -9213081.283 8  -7150337.03945  23664887.609    23664895.6654
  20561663.741    -3612652.382 9  -2817224.39148  20561663.467    20561669.7404
  23004685.711     -545184.860 8   -429527.14046  23004685.028    23004693.3814
  21836383.344     7293665.957 8   5663586.20647  21836383.396    21836390.4724
  23071253.392   -10972488.895 8  -8540901.65546  23071253.175    23071262.2574
  20521779.057    -9565446.180 9  -7451026.64548  20521778.888    20521784.1104
  20450197.220    -1777486.930 9  -1390224.85347  20450196.973    20450203.3594
  20422557.866    -5745270.384 9  -4479078.16048  20422557.458    20422563.9824
 01  7 14 17 22  0.0000000  0  9 26 03 23 22 06 21 18 17 15
  22149037.047    -3535061.559 8  -2755762.54946  22149037.400    22149043.9514
  23646438.625    -9310030.918 8  -7225882.12245  23646438.571    23646446.6184
  20562999.207    -3605634.328 9  -2811755.76648  20562998.922    20563005.2064
  23011203.453     -510933.799 8   -402838.03046  23011202.766    23011211.0994
  21852037.513     7375928.772 8   5727687.02147  21852037.559    21852044.6014
  23055827.474   -11053552.237 8  -8604067.76446  23055827.233    23055836.3054
  20514513.428    -9603627.322 9  -7480778.16048  20514513.268    20514518.4814
  20451294.780    -1771719.252 9  -1385730.56547  20451294.493    20451300.8974
  20418312.576    -5767579.458 9  -4496461.83247  20418312.177    20418318.7174
 01  7 14 17 22 30.0000000  0  9 26 03 23 22 06 21 18 17 15
  22152446.114    -3517146.663 8  -2741802.85946  22152446.450    22152453.0024
  23628023.648    -9406801.803 8  -7301287.92945  23628023.639    23628031.5484
  20564418.093    -3598178.098 9  -2805945.70648  20564417.790    20564424.0634
  23017813.237     -476199.387 8   -375772.27846  23017812.530    23017820.8134
  21867759.585     7458548.629 8   5792066.05147  21867759.655    21867766.7084
  23040447.532   -11134373.981 8  -8667045.62246  23040447.280    23040456.3064
  20507339.144    -9641328.282 9  -7510155.50248  20507338.985    20507344.1944
  20452441.483    -1765693.526 9  -1381035.18847  20452441.190    20452447.5804
  20414120.353    -5789609.729 9  -4513628.25948  20414119.929    20414126.4704
 01  7 14 17 23  0.0000000  0  9 26 03 23 22 06 21 18 17 15
  22155976.357    -3498594.934 8  -2727346.96246  22155976.687    22155983.2474
  23609642.903    -9503392.296 8  -7376553.15745  23609642.945    23609650.9284
  20565919.976    -3590285.531 9  -2799795.64348  20565919.690    20565925.9724
  23024514.558     -440984.151 8   -348331.86046  23024513.820    23024521.9814
  21883549.203     7541523.395 8   5856721.62247  21883549.254    21883556.3744
  23025113.627   -11214953.875 8  -8729835.02046  23025113.346    23025122.3274
  20500256.172    -9678549.490 9  -7539159.01748  20500255.988    20500261.1884
  20453637.182    -1759410.167 9  -1376139.06947  20453636.892    20453643.2894
  20409981.104    -5811361.724 9  -4530577.85348  20409980.674    20409987.1734
 01  7 14 17 23 30.0000000  0  9 26 03 23 22 06 21 18 17 15
  22159627.813    -3479406.374 8  -2712394.82546  22159628.159    22159634.7134
  23591296.987    -9599799.848 8  -7451675.83845  23591297.015    23591305.0724
  20567504.763    -3581957.516 9  -2793306.27348  20567504.473    20567510.7634
  23031306.890     -405290.312 8   -320518.50746  23031306.198    23031314.3094
  21899406.104     7624851.935 8   5921652.87647  21899406.197    21899413.3434
  23009825.930   -11295290.844 8  -8792435.12746  23009825.610    23009834.5624
  20493264.559    -9715290.355 9  -7567788.23648  20493264.378    20493269.6024
  20454881.915    -1752868.864 9  -1371041.95347  20454881.650    20454888.0444
  20405894.947    -5832834.666 9  -4547309.99948  20405894.513    20405901.0154
 01  7 14 17 24  0.0000000  0  9 26 03 23 22 06 21 18 17 15
  22163400.111    -3459582.545 8  -2696947.68946  22163400.438    22163407.1544
  23572986.119    -9696023.090 8  -7526654.87045  23572986.181    23572994.4344
  20569172.011    -3573196.152 9  -2786479.22348  20569171.699    20569177.9984
  23038189.784     -369120.703 8   -292334.43046  23038189.093    23038197.1534
  21915329.933     7708531.582 8   5986857.71247  21915329.972    21915337.1444
  22994584.431   -11375384.818 8  -8854845.90146  22994584.121    22994593.0664
  20486364.214    -9751551.768 9  -7596043.85848  20486364.055    20486369.3084
  20456175.654    -1746070.360 9  -1365744.41747  20456175.375    20456181.7874
  20401861.746    -5854029.134 9  -4563825.15148  20401861.345    20401867.8134
 01  7 14 17 24 30.0000000  0  9 26 03 23 22 06 21 18 17 15
  22167293.353    -3439122.380 8  -2681004.75546  22167293.672    22167300.6684
  23554711.272    -9792058.163 8  -7601487.29445  23554711.263    23554719.5854
  20570921.733    -3564001.319 9  -2779314.41048  20570921.417    20570927.7034
  23045163.162     -332475.325 8   -263779.61346  23045162.456    23045170.4974
  21931320.546     7792562.230 8   6052336.06547  21931320.583    21931327.7664
  22979389.762   -11455233.045 8  -8917065.18246  22979389.430    22979398.3154
  20479555.428    -9787332.026 9  -7623924.55448  20479555.249    20479560.4934
  20457518.554    -1739013.041 9  -1360245.20747  20457518.314    20457524.6674
  20397881.853    -5874943.463 9  -4580122.01548  20397881.470    20397887.8984
 01  7 14 17 25  0.0000000  0  9 26 03 23 22 06 21 18 17 15
  22171307.537    -3418027.035 8  -2664566.84346  22171307.853    22171315.0044
  23536472.618    -9887903.127 8  -7676171.59045  23536472.530    23536480.8184
  20572753.619    -3554374.473 9  -2771812.96448  20572753.309    20572759.6134
  23052226.675     -295356.579 8   -234855.93346  23052225.926    23052234.0374
  21947377.479     7876941.779 8   6118086.28247  21947377.516    21947384.7624
  22964241.819   -11534835.795 8  -8979093.18446  22964241.467    22964250.3294
  20472838.190    -9822631.330 9  -7651430.48148  20472838.019    20472843.2504
  20458910.783    -1731697.229 9  -1354544.57347  20458910.521    20458916.8714
  20393955.236    -5895577.990 9  -4596200.85148  20393954.839    20393961.2804
 01  7 14 17 25 30.0000000  0  9 26 03 23 22 06 21 18 17 15
  22175442.587    -3396297.035 8  -2647634.40446  22175442.980    22175450.1124
  23518270.390    -9983555.980 8  -7750706.18245  23518270.340    23518278.7054
  20574667.503    -3544316.958 9  -2763975.93148  20574667.194    20574673.5154
  23059379.694     -257766.878 8   -205565.28646  23059379.024    23059387.2394
  21963500.484     7961668.424 8   6184106.95947  21963500.525    21963507.7744
  22949140.674   -11614191.938 8  -9040929.03046  22949140.351    22949149.2564
  20466212.467    -9857449.710 9  -7678561.66848  20466212.306    20466217.5204
  20460352.112    -1724122.893 9  -1348642.49447  20460351.833    20460358.1964
  20390081.830    -5915932.561 9  -4612061.54648  20390081.470    20390087.9054
 01  7 14 17 26  0.0000000  0  9 26 03 23 22 06 21 18 17 15
  22179698.393    -3373933.747 8  -2630208.46746  22179698.664    22179705.7074
  23500105.123   -10079014.722 8  -7825089.50945  23500105.036    23500113.4664
  20576663.018    -3533830.432 9  -2755804.60148  20576662.723    20576669.0354
  23066621.909     -219709.219 8   -175909.99546  23066621.251    23066629.4874
  21979689.138     8046740.102 8   6250396.50747  21979689.198    21979696.4484
  22934086.500   -11693301.348 8  -9102572.60546  22934086.252    22934095.1394
  20459678.212    -9891787.476 9  -7705318.34448  20459678.030    20459683.2494
  20461842.595    -1716290.550 9  -1342539.37047  20461842.331    20461848.6754
  20386261.810    -5936007.322 9  -4627704.20148  20386261.415    20386267.8354
 01  7 14 17 26 30.0000000  0  9 26 03 23 22 06 21 18 17 15
  22184074.510    -3350936.947 8  -2612288.89046  22184074.824    22184081.7944
  23481977.334   -10174276.499 8  -7899319.36045  23481977.276    23481985.7584
  20578740.020    -3522915.680 9  -2747299.59548  20578739.715    20578746.0394
  23073952.915     -181184.706 8   -145890.93246  23073952.225    23073960.4364
  21995943.244     8132155.663 8   6316954.00947  21995943.295    21995950.4944
  22919079.725   -11772162.237 8  -9164022.53346  22919079.432    22919088.2744
  20453235.500    -9925644.005 9  -7731700.03348  20453235.330    20453240.5164
  20463382.223    -1708199.413 9  -1336234.59247  20463381.916    20463388.3294
  20382495.080    -5955801.454 9  -4643128.18948  20382494.653    20382501.1004
 01  7 14 17 27  0.0000000  0  9 26 03 23 22 06 21 18 17 15
  22188571.110    -3327307.672 8  -2593876.46346  22188571.382    22188578.3774
  23463887.380   -10269339.135 8  -7973394.03545  23463887.409    23463895.8064
  20580898.258    -3511574.093 9  -2738461.98148  20580897.951    20580904.2304
  23081372.402     -142195.152 8   -115509.48646  23081371.689    23081379.9514
  22012262.449     8217913.450 8   6383778.17546  22012262.498    22012269.7424
  22904120.345   -11850773.866 8  -9225278.23146  22904120.058    22904128.9154
  20446884.399    -9959019.179 9  -7757706.64348  20446884.237    20446889.4104
  20464971.204    -1699849.391 9  -1329728.08647  20464970.935    20464977.2994
  20378781.766    -5975314.805 9  -4658333.38448  20378781.353    20378787.7974
 01  7 14 17 27 30.0000000  0  9 26 03 23 22 06 21 18 17 15
  22193188.206    -3303045.454 8  -2574970.81746  22193188.485    22193195.3064
  23445835.844   -10364199.364 8  -8047310.99945  23445836.056    23445844.3724
  20583137.653    -3499806.070 9  -2729292.08648  20583137.360    20583143.6154
  23088880.081     -102741.715 8    -84766.57246  23088879.431    23088887.7314
  22028646.634     8304012.702 8   6450868.41846  22028646.705    22028653.9914
  22889208.737   -11929134.415 8  -9286338.29846  22889208.441    22889217.3444
  20440625.038    -9991912.120 9  -7783337.48148  20440624.900    20440630.0944
  20466609.651    -1691239.430 9  -1323019.02347  20466609.341    20466615.7294
  20375122.162    -5994546.084 9  -4673318.78948  20375121.757    20375128.2034
 01  7 14 17 28  0.0000000  0  9 26 03 23 22 06 21 18 17 15
  22197925.416    -3278151.478 8  -2555572.89346  22197925.726    22197932.2894
  23427823.343   -10458855.269 8  -8121068.75745  23427823.576    23427831.8194
  20585457.853    -3487613.211 9  -2719791.14748  20585457.544    20585463.8104
  23096475.711      -62827.372 8    -53664.53346  23096475.003    23096483.2574
  22045095.437     8390451.285 8   6518223.07646  22045095.498    22045102.7604
  22874345.024   -12007243.539 8  -9347202.43746  22874344.731    22874353.5554
  20434457.423   -10024323.022 9  -7808592.71148  20434457.280    20434462.4454
  20468297.441    -1682369.701 9  -1316107.55347  20468297.192    20468303.5874
  20371516.249    -6013495.434 9  -4688084.50348  20371515.793    20371522.2394
 01  7 14 17 28 30.0000000  0  9 26 03 23 22 06 21 18 17 15
  22202782.296    -3252628.572 8  -2535684.89946  22202782.574    22202789.0164
  23409849.871   -10553306.430 8  -8194666.94845  23409850.078    23409858.3384
  20587858.247    -3474998.880 9  -2709961.79448  20587857.963    20587864.2184
  23104158.080      -22456.477 8    -22206.72046  23104157.365    23104165.6774
  22061608.021     8477225.441 8   6585839.22146  22061608.096    22061615.3714
  22859528.772   -12085102.844 8  -9407871.93046  22859528.458    22859537.2664
  20428381.168   -10056253.876 9  -7833473.87748  20428381.036    20428386.2024
  20470034.349    -1673242.306 9  -1308995.29347  20470034.050    20470040.4814
  20367963.621    -6032164.459 9  -4702631.78748  20367963.173    20367969.6704
 01  7 14 17 29  0.0000000  0  9 26 03 23 22 06 21 18 17 15
  22207759.248    -3226474.518 8  -2515305.11346  22207759.518    22207765.9784
  23391916.369   -10647547.565 8  -8268101.51945  23391916.493    23391924.7924
  20590339.204    -3461961.311 9  -2699802.64148  20590338.935    20590345.1534
  23111927.494       18372.349 8      9607.90546  23111926.806    23111935.1154
  22078184.782     8564336.561 8   6653717.92946  22078184.861    22078192.1764
  22844760.715   -12162708.407 8  -9468343.69746  22844760.532    22844769.2874
  20422396.856   -10087701.737 9  -7857978.67948  20422396.689    20422401.8514
  20471820.878    -1663853.974 9  -1301679.71347  20471820.633    20471827.1004
  20364464.900    -6050550.111 9  -4716958.25848  20364464.495    20364470.9464
 01  7 14 17 29 30.0000000  0  9 26 03 23 22 06 21 18 17 15
  22212855.900    -3199691.325 8  -2494435.10346  22212856.190    22212862.7674
  23374023.012   -10741577.466 8  -8341371.48045  23374023.091    23374031.3764
  20592900.250    -3448502.985 9  -2689315.62948  20592899.952    20592906.1854
  23119783.541       59655.986 8     41776.94246  23119782.877    23119791.1494
  22094825.228     8651781.863 8   6721857.03746  22094825.241    22094832.5514
  22830041.079   -12240059.918 8  -9528617.50746  22830040.911    22830049.6094
  20416504.122   -10118667.974 9  -7882108.19648  20416503.978    20416509.1374
  20473656.870    -1654205.740 9  -1294161.61047  20473656.583    20473663.0174
  20361019.997    -6068653.233 9  -4731064.57748  20361019.580    20361026.0494
 01  7 14 17 30  0.0000000  0  9 26 03 23 22 06 21 18 17 15
  22218072.013    -3172279.579 8  -2473075.33046  22218072.289    22218079.1384
  23356170.284   -10835393.546 8  -8414474.81645  23356170.310    23356178.6514
  20595541.133    -3434625.061 9  -2678501.65448  20595540.854    20595547.0874
  23127725.746      101392.163 8     74298.59246  23127725.040    23127733.2774
  22111528.792     8739559.633 8   6790255.21646  22111528.857    22111536.2254
  22815369.938   -12317156.853 8  -9588692.92746  22815369.758    22815378.4514
  20410703.219   -10149152.042 9  -7905861.99448  20410703.054    20410708.2224
  20475542.306    -1644297.413 9  -1286440.83547  20475542.077    20475548.5014
  20357628.902    -6086473.296 9  -4744950.33148  20357628.507    20357634.9814
 01  7 14 17 30 30.0000000  0  9 26 03 23 22 06 21 18 17 15
  22223407.488    -3144240.087 8  -2451226.40846  22223407.785    22223414.8444
  23338358.768   -10928993.540 8  -8487409.79445  23338358.810    23338367.0114
  20598261.585    -3420328.968 9  -2667361.83448  20598261.310    20598267.5504
  23135753.515      143578.150 8    107170.75546  23135752.791    23135761.0634
  22128295.357     8827668.080 8   6858911.06846  22128295.400    22128302.7914
  22800747.369   -12393998.516 8  -9648569.45546  22800747.201    22800755.8734
  20404993.971   -10179154.101 9  -7929240.20348  20404993.827    20404999.0044
  20477477.384    -1634128.784 9  -1278517.22547  20477477.138    20477483.4984
  20354291.772    -6104010.159 9  -4758615.40848  20354291.387    20354297.8524
 01  7 14 17 31  0.0000000  0  9 26 03 23 22 06 21 18 17 15
  22228862.286    -3115574.186 8  -2428889.36446  22228862.608    22228869.9284
  23320588.779   -11022375.434 8  -8560174.81945  23320588.773    23320597.0354
  20601061.271    -3405616.477 9  -2655897.54748  20601060.992    20601067.2254
  23143866.390      186211.628 8    140391.59746  23143865.715    23143874.0384
  22145124.448     8916105.168 8   6927822.99546  22145124.499    22145131.9004
  22786173.423   -12470584.615 8  -9708246.84446  22786173.281    22786181.9284
  20399376.378   -10208674.620 9  -7952243.18548  20399376.246    20399381.3934
  20479461.874    -1623700.066 9  -1270390.95447  20479461.624    20479468.0654
  20351008.478    -6121264.162 9  -4772060.07848  20351008.070    20351014.4724
 01  7 14 17 31 30.0000000  0  9 26 03 23 22 06 21 18 17 15
  22234436.303    -3086282.567 8  -2406064.75046  22234436.669    22234444.0174
  23302860.778   -11115536.466 8  -8632767.74145  23302860.755    23302868.9524
  20603939.996    -3390488.709 9  -2644109.67248  20603939.719    20603945.9744
  23152064.163      229291.157 8    173960.02446  23152063.500    23152071.9114
  22162015.772     9004869.445 8   6996989.87546  22162015.816    22162023.2114
  22771648.350   -12546913.889 8  -9767724.11046  22771648.216    22771656.8604
  20393850.503   -10237713.436 9  -7974870.81548  20393850.361    20393855.4774
  20481495.968    -1613010.869 9  -1262061.70547  20481495.756    20481502.1134
  20347779.052    -6138234.694 9  -4785283.86248  20347778.666    20347785.0784
 01  7 14 17 32  0.0000000  0  9 26 03 23 22 06 21 18 17 15
  22240129.335    -3056366.541 8  -2382753.59246  22240129.678    22240136.9434
  23285175.173   -11208474.510 8  -8705186.93045  23285175.239    23285183.3794
  20606897.387    -3374947.346 9  -2631999.51448  20606897.102    20606903.3944
  23160346.271      272814.091 8    207873.95946  23160345.647    23160354.0964
  22178968.967     9093958.786 8   7066410.05546  22178969.029    22178976.4514
  22757172.257   -12622985.836 8  -9827000.86146  22757172.148    22757180.7574
  20388416.265   -10266270.628 9  -7997123.15248  20388416.113    20388421.2104
  20483579.654    -1602061.294 9  -1253529.56647  20483579.433    20483585.8164
  20344603.601    -6154921.842 9  -4798286.82548  20344603.204    20344609.5754
 01  7 14 17 32 30.0000000  0  9 26 03 23 22 06 21 18 17 15
  22245941.037    -3025826.976 8  -2358956.53046  22245941.365    22245948.4454
  23267532.473   -11301187.359 8  -8777430.62045  23267532.463    23267540.6034
  20609933.242    -3358993.834 9  -2619568.20348  20609932.970    20609939.2454
  23168712.152      316777.749 8    242131.31546  23168711.624    23168720.2194
  22195983.653     9183371.352 8   7136082.09446  22195983.750    22195991.1794
  22742745.304   -12698799.849 8  -9886076.61346  22742745.135    22742753.7214
  20383073.549   -10294346.710 9  -8019000.60048  20383073.382    20383078.5134
  20485712.783    -1590851.224 9  -1244794.44747  20485712.546    20485718.9794
  20341482.147    -6171325.052 9  -4811068.53648  20341481.775    20341488.1734
 01  7 14 17 33  0.0000000  0  9 26 03 23 22 06 21 18 17 15
  22251871.237    -2994664.106 8  -2334673.77446  22251871.580    22251878.5574
  23249933.175   -11393671.973 8  -8849496.47645  23249933.176    23249941.2004
  20613047.460    -3342628.571 9  -2606816.04748  20613047.204    20613053.4534
  23177161.776      361180.508 8    276730.83046  23177161.235    23177169.7664
  22213059.749     9273106.410 8   7206005.43546  22213059.839    22213067.2404
  22728367.741   -12774354.171 8  -9944950.02746  22728367.569    22728376.1564
  20377822.554   -10321940.598 9  -8040502.30748  20377822.407    20377827.5374
  20487895.781    -1579379.620 9  -1235855.52947  20487895.575    20487901.9954
  20338414.964    -6187443.148 9  -4823628.08248  20338414.599    20338421.0404
 01  7 14 17 33 30.0000000  0  9 26 03 23 22 06 21 18 17 15
  22257919.642    -2962880.025 8  -2309906.97146  22257919.933    22257926.7444
  23232377.564   -11485926.985 8  -8921383.42146  23232377.630    23232385.5484
  20616239.507    -3325854.081 9  -2593745.01148  20616239.265    20616245.4684
  23185694.363      406019.421 8    311670.19146  23185693.829    23185702.2904
  22230196.645     9363160.843 8   7276177.63946  22230196.715    22230204.1304
  22714039.586   -12849648.665 8 -10003620.97146  22714039.428    22714048.0004
  20372663.148   -10349053.541 9  -8061629.25848  20372663.009    20372668.1014
  20490128.359    -1567647.518 9  -1226713.62347  20490128.120    20490134.5284
  20335401.849    -6203277.116 9  -4835966.22848  20335401.445    20335407.9014
 01  7 14 17 34  0.0000000  0  9 26 03 23 22 06 21 18 17 15
  22264086.278    -2930474.067 8  -2284655.59646  22264086.634    22264093.2714
  23214866.571   -11577948.113 8  -8993088.12346  23214866.592    23214874.4564
  20619509.549    -3308670.067 9  -2580354.87248  20619509.291    20619515.5214
  23194309.962      451294.327 8    346949.28246  23194309.383    23194317.9204
  22247394.255     9453534.603 8   7346598.66146  22247394.309    22247401.7664
  22699761.289   -12924681.257 8 -10062087.84146  22699761.083    22699769.6674
  20367595.468   -10375684.175 9  -8082380.38048  20367595.327    20367600.4334
  20492410.784    -1555652.968 9  -1217367.21847  20492410.589    20492417.0024
  20332443.174    -6218824.851 9  -4848081.33848  20332442.813    20332449.2704
 01  7 14 17 34 30.0000000  0  9 26 03 23 22 06 21 18 17 15
  22270371.002    -2897448.510 8  -2258921.40546  22270371.313    22270377.8554
  23197400.287   -11669734.313 8  -9064609.77145  23197400.214    23197408.0234
  20622857.021    -3291079.069 9  -2566647.59548  20622856.763    20622862.9664
  23203007.708      497001.408 8    382565.13846  23203007.142    23203015.6644
  22264652.077     9544224.673 8   7417266.15846  22264652.132    22264659.5734
  22685532.691   -12999452.723 8 -10120351.23246  22685532.522    22685541.0674
  20362619.400   -10401833.536 9  -8102756.48448  20362619.272    20362624.3484
  20494743.097    -1543396.964 9  -1207817.07847  20494742.865    20494749.2794
  20329538.908    -6234087.174 9  -4859974.04348  20329538.503    20329544.9604
 01  7 14 17 35  0.0000000  0  9 26 03 23 22 06 21 18 17 15
  22276773.363    -2863804.257 8  -2232705.10446  22276773.670    22276780.1484
  23179979.034   -11761282.855 8  -9135946.22045  23179979.004    23179986.8484
  20626281.713    -3273082.254 9  -2552624.10348  20626281.423    20626287.6474
  23211787.321      543138.097 8    418515.75246  23211786.774    23211795.2984
  22281969.786     9635229.621 8   7488179.01246  22281969.824    22281977.3534
  22671354.058   -13073962.060 8 -10178410.37546  22671353.858    22671362.2634
  20357734.936   -10427501.591 9  -8122757.55048  20357734.794    20357739.8974
  20497125.151    -1530879.103 9  -1198062.89547  20497124.896    20497131.2544
  20326688.964    -6249063.594 9  -4871643.97348  20326688.586    20326694.9574
 01  7 14 17 35 30.0000000  0  9 26 03 23 22 06 21 18 17 15
  22283293.316    -2829541.744 8  -2206007.03946  22283293.627    22283300.0864
  23162603.560   -11852591.031 8  -9207095.37245  23162603.523    23162611.3714
  20629783.406    -3254680.621 9  -2538285.16748  20629783.148    20629789.3454
  23220648.303      589702.726 8    454799.83446  23220647.700    23220656.3324
  22299347.072     9726547.959 8   7559336.06546  22299347.143    22299354.7584
  22657225.448   -13148208.225 8 -10236264.43046  22657225.189    22657233.5564
  20352942.047   -10452688.133 9  -8142383.41048  20352941.931    20352947.0514
  20499557.144    -1518098.765 9  -1188104.18747  20499556.912    20499563.3234
  20323893.572    -6263753.561 9  -4883090.68948  20323893.152    20323899.5324
 01  7 14 17 36  0.0000000  0  9 26 03 23 22 06 21 18 17 15
  22289930.605    -2794662.573 8  -2178828.45646  22289930.892    22289937.2064
  23145274.367   -11943656.378 8  -9278055.30246  23145274.310    23145282.1544
  20633361.818    -3235875.758 9  -2523632.03348  20633361.571    20633367.7774
  23229590.413      636693.316 8    491415.83346  23229589.719    23229598.3794
  22316783.701     9818177.753 8   7630735.80946  22316783.752    22316791.3854
  22643146.885   -13222190.783 8 -10293913.09546  22643146.706    22643155.0694
  20348240.811   -10477393.423 9  -8161634.26948  20348240.656    20348245.7514
  20502039.027    -1505055.965 9  -1177940.96147  20502038.804    20502045.2644
  20321152.718    -6278156.792 9  -4894313.97748  20321152.329    20321158.6594
 01  7 14 17 36 30.0000000  0  9 26 03 23 22 06 21 18 17 15
  22296684.886    -2759167.904 8  -2151170.27746  22296685.246    22296691.4774
  23127991.751   -12034476.523 8  -9348824.16146  23127991.725    23127999.5694
  20637016.675    -3216669.300 9  -2508665.96248  20637016.421    20637022.6374
  23238613.053      684107.201 8    528361.66246  23238612.393    23238620.9354
  22334279.236     9910116.863 8   7702376.57246  22334279.320    22334286.9604
  22629118.761   -13295908.739 8 -10351355.57046  22629118.567    22629126.9224
  20343630.995   -10501618.031 9  -8180510.57048  20343630.867    20343635.9504
  20504570.869    -1491750.900 9  -1167573.37447  20504570.671    20504577.2034
  20318466.420    -6292273.224 9  -4905313.78848  20318466.009    20318472.4074
 01  7 14 17 37  0.0000000  0  9 26 03 23 22 06 21 18 17 15
  22303556.091    -2723059.311 8  -2123033.70846  22303556.449    22303562.5784
  23110756.304   -12125049.250 8  -9419400.24546  23110756.356    23110764.0714
  20640747.655    -3197062.876 9  -2493388.23048  20640747.408    20640753.6094
  23247715.744      731941.385 8    565634.99846  23247715.061    23247723.5064
  22351833.210    10002363.245 8   7774256.77846  22351833.308    22351840.8684
  22615141.132   -13369361.679 8 -10408591.54246  22615140.924    22615149.2214
  20339112.625   -10525362.103 9  -8199012.42548  20339112.465    20339117.5574
  20507152.709    -1478183.285 9  -1157001.19647  20507152.494    20507159.0184
  20315834.728    -6306102.649 9  -4916089.95448  20315834.361    20315840.8144
 01  7 14 17 37 30.0000000  0  9 26 03 23 22 06 21 18 17 15
  22310543.981    -2686337.206 8  -2094419.08646  22310544.342    22310550.4344
  23093568.599   -12215371.632 8  -9489781.24446  23093568.555    23093576.1694
  20644554.633    -3177057.154 9  -2477799.36048  20644554.353    20644560.5684
  23256897.927      780194.101 8    603234.45746  23256897.275    23256905.7474
  22369445.507    10094915.864 8   7846375.60346  22369445.545    22369453.1514
  22601214.166   -13442548.160 8 -10465619.87546  22601213.945    22601222.2294
  20334685.813   -10548625.319 9  -8217139.59048  20334685.640    20334690.7184
  20509784.686    -1464352.259 9  -1146223.77547  20509784.461    20509790.9944
  20313257.883    -6319644.124 9  -4926641.74748  20313257.484    20313263.9224
 01  7 14 17 38  0.0000000  0  9 26 03 23 22 06 21 18 17 15
  22317648.442    -2649002.670 8  -2065327.25746  22317648.714    22317654.8804
  23076428.864   -12305441.306 8  -9559965.34846  23076428.901    23076436.4644
  20648437.254    -3156653.673 9  -2461900.54948  20648436.994    20648443.2214
  23266159.388      828863.451 8    641158.56246  23266158.763    23266167.2314
  22387115.695    10187772.989 8   7918731.70946  22387115.712    22387123.3584
  22587337.940   -13515467.889 8 -10522440.35646  22587337.702    22587345.9924
  20330350.414   -10571407.947 9  -8234892.27248  20330350.251    20330355.3194
  20512466.853    -1450257.552 9  -1135240.87947  20512466.595    20512473.1634
  20310735.885    -6332897.318 9  -4936968.90148  20310735.510    20310741.9474
 01  7 14 17 38 30.0000000  0  9 26 03 23 22 06 21 18 17 15
  22324868.812    -2611057.996 8  -2035760.00046  22324869.145    22324875.6294
  23059337.612   -12395256.751 8  -9629951.34446  23059337.603    23059344.9894
  20652395.187    -3135854.718 9  -2445693.57248  20652394.934    20652401.0924
  23275499.493      877946.299 8    679404.89246  23275498.877    23275507.4494
  22404843.261    10280931.946 8   7991323.01646  22404843.320    22404850.9974
  22573512.398   -13588120.859 8 -10579052.97546  22573512.203    22573520.5344
  20326106.239   -10593710.974 9  -8252271.23748  20326106.090    20326111.1424
  20515198.902    -1435899.958 9  -1124053.14047  20515198.703    20515205.3164
  20308268.691    -6345862.594 9  -4947071.70448  20308268.298    20308274.7354
 01  7 14 17 39  0.0000000  0  9 26 03 23 22 06 21 18 17 15
  22332205.617    -2572503.402 8  -2005717.49246  22332205.985    22332212.5734
  23042295.311   -12484814.245 8  -9699736.35046  23042295.331    23042302.6404
  20656428.304    -3114660.646 9  -2429178.71548  20656428.032    20656434.2104
  23284918.120      927441.225 8    717972.29746  23284917.527    23284926.1774
  22422628.170    10374391.802 8   8064148.77046  22422628.257    22422635.9214
  22559738.159   -13660504.877 8 -10635456.02646  22559737.929    22559746.2484
  20321953.474   -10615533.693 9  -8269275.94048  20321953.344    20321958.4044
  20517981.357    -1421278.210 9  -1112659.56947  20517981.207    20517987.8024
  20305856.535    -6358538.552 9  -4956949.06648  20305856.138    20305862.5964
 01  7 14 17 39 30.0000000  0  9 26 03 23 22 06 21 18 17 15
  22339658.257    -2533340.728 8  -1975201.13746  22339658.566    22339665.2274
  23025302.487   -12574111.968 8  -9769318.92446  23025302.494    23025309.8964
  20660536.197    -3093073.506 9  -2412357.57048  20660535.939    20660542.1014
  23294414.499      977344.818 8    756858.14046  23294413.953    23294422.5074
  22440469.871    10468150.135 8   8137207.11646  22440469.976    22440477.6444
  22546015.026   -13732620.166 8 -10691649.65846  22546014.779    22546023.0854
  20317891.998   -10636876.831 9  -8285906.94148  20317891.866    20317896.9044
  20520814.059    -1406392.453 9  -1101060.27747  20520813.846    20520820.3684
  20303499.339    -6370925.600 9  -4966601.30648  20303498.960    20303505.3994
 01  7 14 17 40  0.0000000  0  9 26 03 23 22 06 21 18 17 15
  22347226.115    -2493571.598 8  -1944212.22547  22347226.497    22347233.2444
  23008359.434   -12663147.903 8  -9838697.50246  23008359.415    23008366.9184
  20664718.513    -3071095.108 9  -2395231.54648  20664718.263    20664724.4444
  23303988.022     1027654.331 8    796060.31146  23303987.525    23303996.0934
  22458367.829    10562204.521 8   8210496.14446  22458367.995    22458375.7264
  22532343.053   -13804466.208 8 -10747633.50446  22532342.854    22532351.1614
  20313921.689   -10657740.897 9  -8302164.64048  20313921.585    20313926.5884
  20523696.839    -1391242.900 9  -1089255.43347  20523696.700    20523703.1944
  20301197.126    -6383023.577 9  -4976028.29748  20301196.774    20301203.2144
 01  7 14 17 40 30.0000000  0  9 26 03 23 22 06 21 18 17 15
  22354909.219    -2453197.382 8  -1912751.83747  22354909.528    22354916.4004
  22991466.601   -12751919.632 8  -9907870.21846  22991466.639    22991474.1364
  20668975.019    -3048727.000 9  -2377801.85048  20668974.776    20668980.9594
  23313638.454     1078367.830 8    835577.26245  23313637.934    23313646.5554
  22476321.863    10656553.310 8   8284014.59346  22476321.996    22476329.8204
  22518722.402   -13876042.702 8 -10803407.31546  22518722.203    22518730.5114
  20310042.455   -10678126.388 9  -8318049.42548  20310042.320    20310047.3234
  20526630.086    -1375829.374 9  -1077244.89447  20526629.870    20526636.4234
  20298950.014    -6394832.289 9  -4985229.88848  20298949.640    20298956.0834
 01  7 14 17 41  0.0000000  0  9 26 03 23 22 06 21 18 17 15
  22362707.080    -2412218.671 8  -1880820.46246  22362707.430    22362714.4604
  22974624.709   -12840423.761 8  -9976834.40046  22974624.729    22974632.2734
  20673305.567    -3025969.885 9  -2360069.03648  20673305.309    20673311.5084
  23323365.513     1129483.690 8    875407.75945  23323364.960    23323373.6104
  22494331.719    10751195.406 8   8357761.57246  22494331.828    22494339.6714
  22505153.351   -13947348.251 8 -10858969.99746  22505153.127    22505161.4364
  20306254.404   -10698032.704 9  -8333560.82848  20306254.263    20306259.2714
  20529613.465    -1360150.988 9  -1065027.98547  20529613.235    20529619.8794
  20296758.145    -6406350.649 9  -4994205.22848  20296757.777    20296764.2294
 01  7 14 17 41 30.0000000  0  9 26 03 23 22 06 21 18 17 15
  22370619.585    -2370637.851 8  -1848419.88146  22370619.942    22370627.0044
  22957834.076   -12928658.636 8 -10045588.79146  22957834.142    22957841.6844
  20677709.669    -3002826.015 9  -2342034.85448  20677709.440    20677715.6544
  23333168.516     1180998.248 8    915548.90945  23333167.924    23333176.5894
  22512396.926    10846128.038 8   8431734.95446  22512396.992    22512404.8444
  22491635.773   -14018382.980 8 -10914321.65546  22491635.635    22491643.8914
  20302557.356   -10717460.943 9  -8348699.70248  20302557.192    20302562.2204
  20532647.288    -1344208.290 9  -1052605.09947  20532647.104    20532653.5204
  20294621.441    -6417579.120 9  -5002954.68048  20294621.056    20294627.5094
 01  7 14 17 42  0.0000000  0  9 26 03 23 22 06 21 18 17 15
  22378646.710    -2328456.010 8  -1815550.85546  22378646.965    22378653.6864
  22941095.330   -13016621.399 8 -10114131.14546  22941095.360    22941102.8824
  20682187.171    -2979296.655 9  -2323700.28648  20682186.920    20682193.1394
  23343046.949     1232908.870 8    955998.69045  23343046.345    23343054.9314
  22530517.028    10941349.595 8   8505933.45446  22530517.068    22530524.9674
  22478169.978   -14089145.864 8 -10969461.48446  22478169.837    22478178.0424
  20298951.145   -10736411.524 9  -8363466.37748  20298951.009    20298956.0354
  20535731.542    -1328000.815 9  -1039975.90747  20535731.279    20535737.7194
  20292540.002    -6428517.041 9  -5011477.73448  20292539.627    20292546.0764
 01  7 14 17 42 30.0000000  0  9 26 03 23 22 06 21 18 17 15
  22386787.926    -2285674.277 8  -1782214.37746  22386788.199    22386794.5434
  22924408.783   -13104309.465 8 -10182459.42446  22924408.782    22924416.3244
  20686737.776    -2955383.066 9  -2305066.32448  20686737.530    20686743.7534
  23353000.309     1285213.914 8    996755.81045  23352999.724    23353008.3604
  22548691.812    11036858.283 8   8580355.70046  22548691.865    22548699.7764
  22464756.048   -14159636.120 8 -11024388.87646  22464755.913    22464764.1054
  20295435.846   -10754884.411 9  -8377860.82348  20295435.692    20295440.7374
  20538866.227    -1311528.026 9  -1027139.98747  20538865.979    20538872.5194
  20290513.963    -6439163.849 9  -5019773.94448  20290513.600    20290520.0034
 01  7 14 17 43  0.0000000  0  9 26 03 23 22 06 21 18 17 15
  22395042.749    -2242295.503 9  -1748412.71046  22395043.064    22395049.2724
  22907774.764   -13191721.707 8 -10250572.79946  22907774.768    22907782.3414
  20691361.009    -2931087.961 9  -2286135.07648  20691360.749    20691366.9844
  23363028.034     1337909.915 8   1037817.58445  23363027.433    23363036.0734
  22566920.736    11132651.015 8   8654999.29346  22566920.756    22566928.6584
  22451393.975   -14229853.992 8 -11079104.02046  22451393.833    22451401.9784
  20292011.147   -10772881.268 9  -8391884.33348  20292011.003    20292016.0494
  20542051.287    -1294790.862 9  -1014098.03947  20542051.044    20542057.4344
  20288543.172    -6449520.491 9  -5027844.05248  20288542.824    20288549.1924
 01  7 14 17 43 30.0000000  0  9 26 03 23 22 06 21 18 17 15
  22403411.152    -2198319.916 8  -1714146.03146  22403411.461    22403417.6654
  22891193.863   -13278854.618 8 -10318468.52646  22891193.887    22891201.4094
  20696056.748    -2906411.769 9  -2266906.87548  20696056.468    20696062.7114
  23373129.869     1390995.279 8   1079182.74245  23373129.269    23373137.9054
  22585203.524    11228727.109 8   8729863.67946  22585203.539    22585211.4404
  22438084.061   -14299798.084 8 -11133605.83346  22438083.868    22438091.9664
  20288677.209   -10790401.238 9  -8405536.24748  20288677.061    20288682.1164
  20545286.725    -1277788.021 9  -1000849.08447  20545286.464    20545292.9474
  20286627.938    -6459585.309 9  -5035686.76148  20286627.580    20286633.9274
 01  7 14 17 44  0.0000000  0  9 26 03 23 22 06 21 18 17 15
  22411892.866    -2153748.447 8  -1679415.05546  22411893.149    22411899.5524
  22874666.663   -13365704.949 8 -10386144.03846  22874666.737    22874674.2094
  20700824.792    -2881355.409 9  -2247382.43648  20700824.507    20700830.7824
  23383305.396     1444467.705 8   1120849.51145  23383304.755    23383313.4644
  22603540.010    11325084.972 8   8804947.62546  22603539.994    22603547.8244
  22424826.401   -14369467.354 8 -11187893.49746  22424826.206    22424834.2244
  20285434.056   -10807444.110 9  -8418816.39548  20285433.886    20285438.9454
  20548573.003    -1260518.596 9   -987392.39947  20548572.749    20548579.2294
  20284768.320    -6469357.389 9  -5043301.36548  20284767.977    20284774.3474
 01  7 14 17 44 30.0000000  0  9 26 03 23 22 06 21 18 17 15
  22420487.469    -2108582.916 8  -1644221.22546  22420487.710    22420494.3634
  22858193.738   -13452270.494 8 -10453597.63746  22858193.752    22858201.3094
  20705664.850    -2855920.558 9  -2227563.07248  20705664.597    20705670.8424
  23393554.039     1498324.318 8   1162815.64245  23393553.430    23393562.1384
  22621929.548    11421722.545 8   8880249.52546  22621929.545    22621937.4684
  22411621.196   -14438860.947 8 -11241966.35346  22411621.018    22411628.9814
  20282281.545   -10824010.431 9  -8431725.20648  20282281.399    20282286.4484
  20551909.990    -1242982.751 9   -973728.10947  20551909.759    20551916.1884
  20282964.503    -6478836.480 9  -5050687.66948  20282964.146    20282970.5014
 01  7 14 17 45  0.0000000  0  9 26 03 23 22 06 21 18 17 15
  22429194.746    -2062824.728 8  -1608565.58146  22429195.072    22429201.9234
  22841775.517   -13538548.529 8 -10520827.22246  22841775.548    22841783.0604
  20710576.675    -2830108.706 9  -2207449.94348  20710576.406    20710582.6834
  23403875.535     1552563.380 8   1205079.78346  23403874.904    23403883.5214
  22640371.809    11518637.900 8   8955767.87646  22640371.887    22640379.9724
  22398468.542   -14507978.238 8 -11295823.90446  22398468.383    22398476.3664
  20279219.705   -10840100.663 9  -8444263.03848  20279219.558    20279224.5804
  20555297.668    -1225180.005 9   -959855.85347  20555297.424    20555303.9214
  20281216.490    -6488022.185 9  -5057845.36148  20281216.146    20281222.5234
 01  7 14 17 45 30.0000000  0  9 26 03 23 22 06 21 18 17 15
  22438014.557    -2016476.221 8  -1572449.92846  22438014.796    22438021.8154
  22825412.313   -13624537.572 8 -10587831.61846  22825412.366    22825419.8824
  20715559.864    -2803922.129 9  -2187044.81848  20715559.587    20715565.7944
  23414269.170     1607181.633 8   1247639.41046  23414268.459    23414277.1174
  22658866.540    11615828.532 8   9031500.73446  22658866.653    22658874.9104
  22385368.303   -14576819.957 8 -11349466.72246  22385368.172    22385376.1314
  20276248.247   -10855715.898 9  -8456430.74648  20276248.086    20276253.0894
  20558736.119    -1207110.775 9   -945775.94347  20558735.903    20558742.4204
  20279524.257    -6496914.967 9  -5064774.79648  20279523.898    20279530.2704
 01  7 14 17 46  0.0000000  0  9 26 03 23 22 06 21 18 17 15
  22446946.296    -1969539.289 8  -1535875.65345  22446946.612    22446953.3374
  22809104.538   -13710235.330 8 -10654609.03246  22809104.585    22809112.0704
  20720613.966    -2777362.595 9  -2166349.07848  20720613.688    20720619.9374
  23424734.224     1662176.015 8   1290492.10646  23424733.574    23424742.3034
  22677413.377    11713292.311 8   9107446.41346  22677413.472    22677421.7674
  22372320.724   -14645385.109 8 -11402894.04247  22372320.585    22372328.5374
  20273367.043   -10870856.768 9  -8468228.81348  20273366.880    20273371.8674
  20562225.370    -1188775.119 9   -931488.42147  20562225.108    20562231.6254
  20277887.824    -6505514.423 9  -5071475.66848  20277887.441    20277893.8194
 01  7 14 17 46 30.0000000  0  9 26 03 23 22 06 21 18 17 15
  22455989.900    -1922015.173 8  -1498843.73145  22455990.191    22455996.5684
  22792852.762   -13795638.947 8 -10721157.23846  22792852.786    22792860.2454
  20725738.779    -2750431.485 9  -2145363.79748  20725738.490    20725744.7734
  23435270.458     1717543.727 8   1333635.71746  23435269.780    23435278.4874
  22696011.892    11811027.369 8   9183603.47746  22696011.987    22696020.3324
  22359325.826   -14713673.408 8 -11456105.63047  22359325.681    22359333.6374
  20270576.059   -10885523.523 9  -8479657.44348  20270575.882    20270580.8694
  20565765.296    -1170172.576 9   -916992.94147  20565765.057    20565771.5224
  20276307.240    -6513820.401 9  -5077947.85048  20276306.875    20276313.2574
 01  7 14 17 47  0.0000000  0  9 26 03 23 22 06 21 18 17 15
  22465144.831    -1873906.090 8  -1461356.13446  22465145.094    22465151.5824
  22776657.316   -13880746.266 8 -10787474.57846  22776657.348    22776664.8574
  20730934.009    -2723130.495 9  -2124090.29548  20730933.713    20730939.9894
  23445877.272     1773282.228 8   1377068.25246  23445876.577    23445885.1644
  22714661.568    11909031.390 8   9259970.14246  22714661.657    22714669.9834
  22346383.750   -14781684.421 8 -11509101.14847  22346383.571    22346391.5504
  20267875.091   -10899717.077 9  -8490717.34548  20267874.922    20267879.9164
  20569356.010    -1151303.311 9   -902289.62547  20569355.791    20569362.2114
  20274782.545    -6521832.727 9  -5084191.21248  20274782.160    20274788.5954
 01  7 14 17 47 30.0000000  0  9 26 03 23 22 06 21 18 17 15
  22474410.598    -1825213.812 8  -1423414.13646  22474410.939    22474417.6024
  22760518.687   -13965554.912 8 -10853559.17146  22760518.721    22760526.1824
  20736199.244    -2695461.535 9  -2102530.06848  20736198.948    20736205.2174
  23456554.110     1829389.105 8   1420787.84046  23456553.406    23456562.0764
  22733362.006    12007302.263 8   9336544.73446  22733362.131    22733370.4494
  22333494.362   -14849418.032 8 -11561880.51147  22333494.224    22333502.1704
  20265264.037   -10913438.136 9  -8501409.06748  20265263.880    20265268.8714
  20572997.460    -1132167.130 9   -887378.32247  20572997.251    20573003.7724
  20273313.740    -6529551.284 9  -5090205.66448  20273313.367    20273319.7774
 01  7 14 17 48  0.0000000  0  9 26 03 23 22 06 21 18 17 15
  22483787.185    -1775939.018 8  -1385018.26946  22483787.518    22483794.4044
  22744437.501   -14050061.405 8 -10919408.33046  22744437.584    22744445.0864
  20741534.393    -2667425.089 9  -2080683.48348  20741534.125    20741540.3484
  23467300.710     1885862.755 8   1464793.21746  23467300.096    23467308.7034
  22752113.040    12105838.987 8   9413326.46846  22752113.160    22752121.4404
  22320658.220   -14916872.223 8 -11614442.13947  22320658.110    22320665.9844
  20262743.042   -10926686.141 9  -8511732.17748  20262742.885    20262747.8704
  20576689.968    -1112762.746 9   -872258.03347  20576689.764    20576696.3084
  20271901.138    -6536974.618 9  -5095990.07148  20271900.755    20271907.1514
 01  7 14 17 48 30.0000000  0  9 26 03 23 22 06 21 18 17 15
  22493274.524    -1726082.445 8  -1346169.06146  22493274.940    22493281.8984
  22728414.453   -14134262.433 8 -10985019.47146  22728414.547    22728422.0874
  20746939.417    -2639021.631 9  -2058550.92248  20746939.143    20746945.3604
  23478116.673     1942701.046 8   1509082.72546  23478116.029    23478124.7464
  22770914.390    12204640.705 8   9490314.70246  22770914.504    22770922.8774
  22307875.598   -14984045.415 8 -11666784.81347  22307875.419    22307883.2604
  20260312.137   -10939460.667 9  -8521686.34248  20260311.958    20260316.9324
  20580433.913    -1093089.098 9   -856927.91747  20580433.672    20580440.0584
  20270544.978    -6544101.341 9  -5101543.35948  20270544.584    20270551.0154
 01  7 14 17 49  0.0000000  0  9 26 03 23 22 06 21 18 17 15
  22502872.120    -1675647.679 8  -1306869.26546  22502872.485    22502879.4104
  22712449.767   -14218157.393 8 -11050392.12746  22712449.858    22712457.3354
  20752413.579    -2610254.843 9  -2036135.24348  20752413.273    20752419.5244
  23489001.045     1999899.356 8   1553652.78546  23489000.514    23489009.3834
  22789765.493    12303703.396 8   9567506.29546  22789765.593    22789773.9944
  22295146.091   -15050939.058 8 -11718909.66447  22295145.892    22295153.7624
  20257970.846   -10951763.989 9  -8531273.34148  20257970.699    20257975.6594
  20584228.676    -1073147.707 9   -841389.18147  20584228.356    20584234.7564
  20269244.980    -6550932.894 9  -5106866.64148  20269244.594    20269251.0304
 01  7 14 17 49 30.0000000  0  9 26 03 23 22 06 21 18 17 15
  22512579.409    -1624636.266 8  -1267120.09647  22512579.775    22512586.6864
  22696543.923   -14301743.614 8 -11115524.18346  22696543.869    22696551.3064
  20757956.603    -2581125.843 9  -2013437.32048  20757956.356    20757962.5544
  23499953.857     2057456.009 8   1598502.05646  23499953.241    23499962.0874
  22808665.943    12403025.537 8   9644900.04246  22808666.049    22808674.5034
  22282469.829   -15117552.782 8 -11770816.39447  22282469.687    22282477.5304
  20255719.230   -10963596.386 9  -8540493.37848  20255719.077    20255724.0514
  20588074.284    -1052937.860 9   -825641.26447  20588074.093    20588080.6564
  20268001.269    -6557468.742 9  -5111959.50248  20268000.855    20268007.2824
 01  7 14 17 50  0.0000000  0  9 26 03 23 22 06 21 18 17 15
  22522395.986    -1573050.454 8  -1226923.35847  22522396.329    22522403.1594
  22680697.110   -14385019.356 8 -11180414.31646  22680696.990    22680704.3664
  20763568.196    -2551636.996 9  -1990459.00148  20763567.931    20763574.0944
  23510974.212     2115367.694 8   1643627.98145  23510973.562    23510982.3734
  22827615.279    12502604.212 8   9722493.70546  22827615.430    22827623.8144
  22269846.911   -15183886.587 8 -11822505.00447  22269846.756    22269854.5744
  20253556.909   -10974959.364 9  -8549347.63848  20253556.764    20253561.7574
  20591971.137    -1032460.208 9   -809684.65547  20591970.945    20591977.4134
  20266813.707    -6563709.049 9  -5116822.07248  20266813.327    20266819.7694
 01  7 14 17 50 30.0000000  0  9 26 03 23 22 06 21 18 17 15
  22532321.512    -1520891.726 8  -1186280.19146  22532321.848    22532328.6324
  22664909.863   -14467981.446 8 -11245060.04146  22664909.799    22664917.0924
  20769248.008    -2521789.343 9  -1967201.09148  20769247.719    20769253.9064
  23522061.644     2173632.219 8   1689028.84145  23522060.926    23522069.7764
  22846613.232    12602437.986 8   9800286.13246  22846613.308    22846621.6994
  22257277.490   -15249939.486 8 -11873974.72647  22257277.268    22257285.0464
  20251483.943   -10985852.668 9  -8557835.91548  20251483.800    20251488.7954
  20595919.149    -1011713.750 9   -793518.58147  20595918.862    20595925.3054
  20265682.678    -6569652.759 9  -5121453.52948  20265682.270    20265688.7434
 01  7 14 17 51  0.0000000  0  9 26 03 23 22 06 21 18 17 15
  22542355.825    -1468160.853 8  -1145191.23946  22542356.142    22542363.0044
  22649183.015   -14550626.305 8 -11309458.57046  22649183.017    22649190.2084
  20774996.048    -2491583.331 9  -1943663.94048  20774995.750    20775001.9594
  23533215.687     2232247.334 8   1734702.89545  23533214.944    23533223.8504
  22865659.422    12702525.819 8   9878276.52046  22865659.533    22865667.8614
  22244761.693   -15315709.784 8 -11925224.24147  22244761.482    22244769.3034
  20249500.489   -10996275.933 9  -8565957.93148  20249500.343    20249505.3144
  20599918.321     -990697.341 9   -777142.17947  20599918.113    20599924.6394
  20264608.308    -6575298.483 9  -5125852.78748  20264607.914    20264614.3564
 01  7 14 17 51 30.0000000  0  9 26 03 23 22 06 21 18 17 15
  22552498.628    -1414859.050 8  -1103657.42146  22552498.970    22552505.9424
  22633517.090   -14632951.039 8 -11373607.65146  22633517.102    22633524.3114
  20780812.001    -2461020.259 9  -1919848.55948  20780811.733    20780817.9184
  23544436.133     2291211.126 8   1780648.63245  23544435.466    23544444.3714
  22884753.782    12802866.273 8   9956463.75346  22884753.795    22884762.1604
  22232299.925   -15381196.418 8 -11976252.71547  22232299.729    22232307.5134
  20247606.407   -11006229.427 9  -8573713.89048  20247606.244    20247611.1784
  20603969.205     -969410.257 9   -760554.84147  20603968.959    20603975.4114
  20263590.803    -6580645.497 9  -5130019.28848  20263590.428    20263596.8804
 01  7 14 17 52  0.0000000  0  9 26 03 23 22 06 21 18 17 15
  22562749.314    -1360989.974 8  -1061681.55046  22562749.703    22562756.7954
  22617912.270   -14714954.686 8 -11437506.53446  22617912.295    22617919.5774
  20786695.304    -2430103.262 9  -1895757.39848  20786695.010    20786701.2494
  23555722.260     2350519.866 8   1826863.15445  23555721.623    23555730.5114
  22903895.320    12903455.732 8  10034845.02946  22903895.363    22903903.6984
  22219891.912   -15446400.877 9 -12027061.31747  22219891.719    22219899.4364
  20245801.324   -11015715.146 9  -8581105.34648  20245801.154    20245806.1104
  20608071.304     -947853.742 9   -743757.56147  20608071.099    20608077.4764
  20262629.935    -6585695.070 9  -5133954.01248  20262629.523    20262635.9424
 01  7 14 17 52 30.0000000  0  9 26 03 23 22 06 21 18 17 15
  22573107.899    -1306555.287 8  -1019264.86146  22573108.302    22573115.2914
  22602369.052   -14796634.699 8 -11501153.23346  22602369.095    22602376.3694
  20792645.773    -2398833.726 9  -1871391.52548  20792645.431    20792651.6524
  23567073.538     2410171.076 8   1873344.54945  23567072.885    23567081.8634
  22923083.767    13004292.308 8  10113418.85746  22923083.909    22923092.3944
  22207537.671   -15511322.422 8 -12077649.46547  22207537.502    22207545.1884
  20244085.145   -11024733.670 9  -8588132.75348  20244084.982    20244089.9434
  20612224.838     -926027.346 9   -726749.98847  20612224.564    20612230.9594
  20261725.778    -6590446.654 9  -5137656.54148  20261725.359    20261731.7544
 01  7 14 17 53  0.0000000  0  9 26 03 23 22 06 21 18 17 15
  22583573.768    -1251557.365 8   -976409.33546  22583574.167    22583580.9924
  22586887.755   -14877989.106 8 -11564546.22246  22586887.753    22586895.1024
  20798662.885    -2367213.693 9  -1846752.54248  20798662.556    20798668.7524
  23578489.258     2470160.980 8   1920089.82745  23578488.632    23578497.6804
  22942318.839    13105373.373 8  10192183.19446  22942318.973    22942327.5874
  22195237.362   -15575960.571 8 -12128016.79347  22195237.187    22195244.8624
  20242457.699   -11033286.099 9  -8594796.97348  20242457.518    20242462.4834
  20616429.543     -903931.343 9   -709532.33547  20616429.283    20616435.7254
  20260878.233    -6594900.285 9  -5141126.89948  20260877.826    20260884.2424
 01  7 14 17 53 30.0000000  0  9 26 03 23 22 06 21 18 17 15
  22594146.273    -1195998.550 8   -933116.77746  22594146.638    22594153.5534
  22571468.915   -14959015.529 8 -11627683.64746  22571468.857    22571476.1904
  20804746.278    -2335245.099 9  -1821841.95148  20804745.964    20804752.1484
  23589968.876     2530486.444 8   1967096.60045  23589968.244    23589977.3714
  22961600.243    13206696.643 8  10271136.26246  22961600.275    22961608.9194
  22182991.003   -15640315.569 9 -12178163.47647  22182990.825    22182998.4884
  20240918.676   -11041373.542 9  -8601098.86448  20240918.514    20240923.4534
  20620685.571     -881565.691 9   -692104.55947  20620685.307    20620691.7154
  20260087.468    -6599055.758 9  -5144364.92948  20260087.094    20260093.4674
 01  7 14 17 54  0.0000000  0  9 26 03 23 22 06 21 18 17 15
  22604825.470    -1139879.151 8   -889387.42246  22604825.795    22604832.7854
  22556113.137   -15039710.229 8 -11690562.57246  22556113.078    22556120.4654
  20810895.978    -2302928.144 9  -1796659.91048  20810895.687    20810901.8424
  23601512.268     2591146.801 8   2014364.33045  23601511.553    23601520.6694
  22980927.588    13308261.520 8  10350277.57046  22980927.624    22980936.2314
  22170798.900   -15704385.376 8 -12228087.93647  22170798.675    22170806.3464
  20239468.368   -11048994.989 9  -8607037.64448  20239468.208    20239473.1234
  20624993.288     -858928.750 9   -674465.38247  20624993.024    20624999.3264
  20259353.813    -6602911.265 9  -5147369.21748  20259353.421    20259359.7814
 01  7 14 17 54 30.0000000  0  9 26 03 23 22 06 21 18 17 15
  22615610.839    -1083202.056 8   -845223.45946  22615611.108    22615618.0644
  22540820.764   -15120071.639 8 -11753181.80746  22540820.744    22540828.1104
  20817111.517    -2270265.322 9  -1771208.36048  20817111.224    20817117.3924
  23613118.618     2652138.706 8   2061890.41745  23613117.889    23613127.0724
  23000300.358    13410065.180 8  10429604.97146  23000300.393    23000308.9994
  22158660.907   -15768170.679 8 -12277790.70547  22158660.709    22158668.3454
  20238106.401   -11056152.046 9  -8612614.55848  20238106.221    20238111.1554
  20629352.459     -836021.043 9   -656615.22847  20629352.177    20629358.5674
  20258677.153    -6606467.247 9  -5150140.11148  20258676.730    20258683.1184
 01  7 14 17 55  0.0000000  0  9 26 03 23 22 06 21 18 17 15
  22626501.884    -1025969.238 8   -800626.47146  22626502.198    22626509.1944
  22525592.422   -15200097.567 8 -11815539.62246  22525592.357    22525599.6254
  20823392.498    -2237258.406 9  -1745488.68548  20823392.206    20823398.3864
  23624787.578     2713458.967 8   2109672.34545  23624786.810    23624796.0954
  23019718.136    13512105.453 8  10509116.74446  23019718.181    23019726.8034
  22146577.146   -15831670.940 8 -12327271.36447  22146576.924    22146584.5544
  20236832.658   -11062845.585 9  -8617830.29148  20236832.502    20236837.4454
  20633763.139     -812842.506 9   -638554.04147  20633762.893    20633769.3714
  20258057.509    -6609723.470 9  -5152677.42348  20258057.079    20258063.4404
 01  7 14 17 55 30.0000000  0  9 26 03 23 22 06 21 18 17 15
  22637498.347     -968183.171 8   -755598.38446  22637498.646    22637505.5854
  22510428.350   -15279785.410 8 -11877633.99646  22510428.275    22510435.4724
  20829738.669    -2203909.067 9  -1719502.18848  20829738.362    20829744.5704
  23636518.461     2775104.323 8   2157707.61545  23636517.709    23636526.9474
  23039180.420    13614380.076 8  10588811.12446  23039180.487    23039189.0854
  22134547.641   -15894885.922 8 -12376529.73547  22134547.452    22134555.0914
  20235646.966   -11069076.426 9  -8622685.47948  20235646.803    20235651.7364
  20638225.419     -789392.985 9   -620281.69147  20638225.204    20638231.6324
  20257494.922    -6612679.786 9  -5154981.03748  20257494.528    20257500.8394
 01  7 14 17 56  0.0000000  0  9 26 03 23 22 06 21 18 17 15
  22648599.842     -909844.525 8   -710139.69346  22648600.180    22648606.9664
  22495329.272   -15359131.755 8 -11939462.28346  22495329.177    22495336.2684
  20836149.884    -2170217.857 9  -1693249.29948  20836149.614    20836155.7654
  23648310.868     2837073.334 8   2205995.07545  23648310.086    23648319.2504
  23058686.956    13716887.825 8  10668687.12946  23058687.073    23058695.7824
  22122572.698   -15957814.341 8 -12425564.80647  22122572.532    22122580.1354
  20234549.329   -11074844.341 9  -8627179.94348  20234549.173    20234554.1144
  20642739.535     -765671.041 9   -601797.05847  20642739.309    20642745.7394
  20256989.721    -6615334.655 9  -5157049.76548  20256989.318    20256995.6104
 01  7 14 17 56 30.0000000  0  9 26 03 23 22 06 21 18 17 15
  22659806.008     -850955.856 8   -664252.43346  22659806.343    22659813.0604
  22480295.608   -15438134.511 8 -12001022.82946  22480295.465    22480302.4944
  20842625.774    -2136186.857 9  -1666731.64248  20842625.481    20842631.6764
  23660164.221     2899363.427 8   2254532.72945  23660163.550    23660172.7124
  23078237.503    13819626.177 8  10748742.84646  23078237.628    23078246.4264
  22110652.396   -16020456.175 9 -12474376.56547  22110652.204    22110659.7184
  20233539.646   -11080150.140 9  -8631314.32348  20233539.492    20233544.4164
  20647305.471     -741676.853 9   -583100.29247  20647305.268    20647311.7094
  20256541.877    -6617688.146 9  -5158883.65248  20256541.448    20256547.7674
 01  7 14 17 57  0.0000000  0  9 26 03 23 22 06 21 18 17 15
  22671116.218     -791520.127 8   -617938.86746  22671116.563    22671123.3014
  22465327.497   -15516791.938 8 -12062314.28546  22465327.418    22465334.3764
  20849165.855    -2101818.536 9  -1639951.13248  20849165.573    20849171.7404
  23672077.909     2961970.797 8   2303317.60945  23672077.362    23672086.5094
  23097831.387    13922592.200 8  10828975.96446  23097831.484    23097840.3864
  22098786.385   -16082812.017 8 -12522965.47847  22098786.229    22098793.7104
  20232617.553   -11084995.753 9  -8635090.11348  20232617.380    20232622.2944
  20651923.149     -717411.073 9   -564191.90247  20651922.891    20651929.4504
  20256151.248    -6619740.952 9  -5160483.24048  20256150.859    20256157.1724
 01  7 14 17 57 30.0000000  0  9 26 03 23 22 06 21 18 17 15
  22682530.503     -731537.776 8   -571199.38746  22682530.860    22682537.4974
  22450425.954   -15595099.849 8 -12123333.38646  22450425.834    22450432.8224
  20855770.013    -2067113.106 9  -1612907.94448  20855769.771    20855775.9284
  23684051.912     3024893.834 8   2352348.46445  23684051.313    23684060.3714
  23117468.682    14025785.535 8  10909386.19846  23117468.680    23117477.6174
  22086975.220   -16144880.008 9 -12571330.08047  22086975.045    22086982.5244
  20231783.203   -11089380.330 9  -8638506.65648  20231783.048    20231787.9444
  20656592.800     -692871.600 9   -545070.23847  20656592.598    20656599.0934
  20255818.309    -6621490.652 9  -5161846.64548  20255817.899    20255824.1984
 01  7 14 17 58  0.0000000  0  9 26 03 23 22 06 21 18 17 15
  22694048.482     -671011.042 8   -524035.70046  22694048.757    22694055.4284
  22435591.340   -15673056.032 8 -12184078.41446  22435591.274    22435598.2324
  20862438.109    -2032072.179 9  -1585603.33648  20862437.825    20862444.0044
  23696085.343     3088129.623 8   2401623.03345  23696084.722    23696093.7424
  23137148.653    14129203.998 8  10989971.85446  23137148.725    23137157.6264
  22075218.973   -16206659.430 8 -12619469.83447  22075218.784    22075226.2494
  20231036.456   -11093304.538 9  -8641564.46748  20231036.285    20231041.1804
  20661314.573     -668058.534 9   -525735.38447  20661314.380    20661320.9054
  20255543.098    -6622937.005 9  -5162973.67248  20255542.699    20255548.9644
 01  7 14 17 58 30.0000000  0  9 26 03 23 22 06 21 18 17 15
  22705669.205     -609943.713 8   -476450.77646  22705669.512    22705676.1514
  22420823.696   -15750659.868 8 -12244548.89646  22420823.717    22420830.7234
  20869169.350    -1996699.166 9  -1558039.95448  20869169.065    20869175.2774
  23708177.569     3151674.092 8   2451138.12345  23708176.941    23708185.8864
  23156870.810    14232843.880 8  11070730.04846  23156870.831    23156879.7824
  22063517.290   -16268151.947 8 -12667386.02347  22063517.075    22063524.5594
  20230376.774   -11096771.099 9  -8644265.67148  20230376.602    20230381.5114
  20666088.212     -642973.276 9   -506188.42847  20666087.985    20666094.3934
  20255325.338    -6624081.380 9  -5163865.39648  20255324.950    20255331.1764
 01  7 14 17 59  0.0000000  0  9 26 03 23 22 06 21 18 17 15
  22717392.458     -548337.550 8   -428445.99746  22717392.796    22717399.4244
  22406123.697   -15827908.539 8 -12304742.61846  22406123.703    22406130.7584
  20875963.614    -1960995.115 9  -1530218.62347  20875963.312    20875969.5264
  23720328.175     3215525.073 8   2500892.06145  23720327.488    23720336.4834
  23176634.580    14336703.234 8  11151659.26946  23176634.689    23176643.6504
  22051870.297   -16329356.817 9 -12715078.07747  22051870.128    22051877.6044
  20229804.130   -11099780.200 9  -8646610.40948  20229803.988    20229808.8604
  20670913.714     -617615.079 9   -486428.80347  20670913.425    20670919.9124
  20255165.092    -6624923.196 9  -5164521.35748  20255164.701    20255170.9624
 01  7 14 17 59 30.0000000  0  9 26 03 23 22 06 21 18 17 15
  22729217.976     -486194.198 8   -380022.60546  22729218.330    22729224.9314
  22391491.837   -15904799.054 8 -12364657.26846  22391491.902    22391498.9874
  20882820.578    -1924961.282 9  -1502140.32047  20882820.344    20882826.5314
  23732536.581     3279680.158 8   2550882.96245  23732535.947    23732544.9064
  23196439.978    14440780.663 8  11232758.40046  23196440.059    23196449.0504
  22040278.356   -16390272.842 9 -12762545.04647  22040278.153    22040285.6204
  20229318.503   -11102332.231 9  -8648598.99348  20229318.354    20229323.2344
  20675791.264     -591983.126 9   -466455.85747  20675791.048    20675797.5344
  20255062.677    -6625461.617 9  -5164940.90648  20255062.272    20255068.5204
 01  7 14 18  0  0.0000000  0  9 26 03 23 22 06 21 18 17 15
  22741145.183     -423516.269 8   -331182.63246  22741145.542    22741152.1404
  22376928.676   -15981329.357 8 -12424291.21846  22376928.655    22376935.7564
  20889740.015    -1888599.915 9  -1473806.79947  20889739.704    20889745.8624
  23744802.096     3344135.572 8   2601107.88745  23744801.456    23744810.4474
  23216286.442    14545073.478 8  11314025.37046  23216286.489    23216295.5064
  22028741.321   -16450899.895 8 -12809786.85347  22028741.130    22028748.6104
  20228919.578   -11104428.453 9  -8650232.40448  20228919.440    20228924.3294
  20680720.997     -566077.697 9   -446269.81447  20680720.715    20680727.1894
  20255017.969    -6625696.458 9  -5165123.90848  20255017.523    20255023.8454
 01  7 14 18  0 30.0000000  0  9 26 03 23 22 06 21 18 17 15
  22753173.713     -360305.910 8   -281927.82346  22753174.046    22753180.7004
  22362434.500   -16057497.111 8 -12483642.66546  22362434.429    22362441.4754
  20896721.384    -1851912.451 9  -1445219.16847  20896721.091    20896727.2504
  23757124.220     3408888.783 8   2651564.86045  23757123.596    23757132.6544
  23236173.495    14649579.804 8  11395458.71345  23236173.482    23236182.5194
  22017259.283   -16511238.270 9 -12856803.71147  22017259.089    22017266.5574
  20228607.248   -11106069.799 9  -8651511.36248  20228607.107    20228612.0024
  20685702.706     -539898.378 9   -425870.35447  20685702.446    20685708.9084
  20255031.060    -6625627.478 9  -5165070.15748  20255030.664    20255036.9804
 01  7 14 18  1  0.0000000  0  9 26 03 23 22 06 21 18 17 15
  22765303.117     -296564.801 7   -232259.52446  22765302.579    22765310.0514
  22348009.872   -16133299.177 8 -12542709.17046  22348009.755    22348016.7494
  20903764.587    -1814900.063 9  -1416378.35347  20903764.325    20903770.5024
  23769502.635     3473937.790 8   2702252.31145  23769502.076    23769511.1414
  23256100.698    14754297.749 8  11477056.95045  23256100.746    23256109.8534
  22005832.387   -16571286.877 9 -12903594.77747  22005832.180    22005839.6384
  20228381.404   -11107256.507 9  -8652436.05748  20228381.283    20228386.1714
  20690736.737     -513444.496 9   -405256.93947  20690736.481    20690742.8914
  20255102.220    -6625253.698 9  -5164778.89948  20255101.775    20255108.0514
 01  7 14 18  1 30.0000000  0  9 26 03 23 22 06 21 18 17 15
  22777533.145     -232294.935 8   -182179.15746  22777533.172    22777540.6034
  22333655.259   -16208733.067 8 -12601488.78346  22333655.192    22333662.1424
  20910869.359    -1777564.213 9  -1387285.49647  20910869.097    20910875.2904
  23781936.964     3539280.312 8   2753168.48845  23781936.348    23781945.4964
  23276067.926    14859225.467 8  11558818.63745  23276067.944    23276077.1254
  21994460.710   -16631045.134 9 -12950159.59547  21994460.492    21994467.9594
  20228241.968   -11107989.167 9  -8653006.95048  20228241.830    20228246.7254
  20695823.074     -486715.476 9   -384429.13947  20695822.820    20695829.2844
  20255231.447    -6624574.280 9  -5164249.49048  20255231.015    20255237.3744
 01  7 14 18  2  0.0000000  0  9 26 03 23 22 06 21 18 17 15
  22789863.278     -167499.413 7   -131689.20645  22789863.216    22789870.7114
  22319370.968   -16283797.163 8 -12659980.24546  22319370.931    22319377.8644
  20918035.270    -1739907.435 9  -1357942.56247  20918034.976    20918041.1374
  23794426.313     3604912.247 8   2804310.17245  23794425.671    23794434.9484
  23296074.365    14964359.946 8  11640741.44745  23296074.443    23296083.6554
  21983144.284   -16690513.342 9 -12996498.40447  21983144.046    21983151.5054
  20228188.591   -11108269.484 9  -8653225.36848  20228188.467    20228193.3354
  20700961.642     -459711.840 9   -363387.35547  20700961.402    20700967.8994
  20255418.807    -6623589.692 9  -5163482.28148  20255418.425    20255424.7484
 01  7 14 18  2 30.0000000  0  9 26 03 23 22 06 21 18 17 15
  22802292.984     -102180.718 8    -80791.56845  22802293.130    22802300.5214
  22305157.489   -16358488.958 8 -12718181.59246  22305157.461    22305164.4414
  20925261.885    -1701931.400 9  -1328350.85247  20925261.613    20925267.7214
  23806970.066     3670830.303 8   2855674.81745  23806969.468    23806978.7574
  23316119.681    15069698.889 8  11722823.58045  23316119.836    23316129.0904
  21971882.898   -16749691.874 9 -13042611.49547  21971882.702    21971890.1724
  20228221.095   -11108098.696 9  -8653092.27548  20228220.954    20228225.8224
  20706152.604     -432433.341 9   -342131.38647  20706152.349    20706158.7804
  20255664.341    -6622299.627 9  -5162477.03748  20255663.926    20255670.3154
 01  7 14 18  3  0.0000000  0  9 26 03 23 22 06 21 18 17 15
  22814821.923      -36341.323 8    -29488.19046  22814822.157    22814829.4104
  22291015.215   -16432806.363 8 -12776091.21646  22291015.271    22291022.2394
  20932548.841    -1663638.126 9  -1298511.96047  20932548.558    20932554.7044
  23819567.804     3737031.776 8   2907260.27845  23819567.296    23819576.5434
  23336203.602    15175239.849 8  11805063.10645  23336203.792    23336213.0674
  21960676.702   -16808580.630 9 -13088498.78447  21960676.480    21960683.9494
  20228339.243   -11107477.875 9  -8652608.50848  20228339.102    20228343.9784
  20711395.843     -404880.199 9   -320661.41047  20711395.579    20711401.9664
  20255967.914    -6620704.021 9  -5161233.71548  20255967.525    20255973.8844
 01  7 14 18  3 30.0000000  0  9 26 03 23 22 06 21 18 17 15
  22827449.579       30016.826 8     22219.43946  22827449.845    22827456.9654
  22276944.841   -16506746.696 8 -12833707.02346  22276944.862    22276951.7634
  20939895.957    -1625028.978 9  -1268426.91347  20939895.632    20939901.7834
  23832219.245     3803514.535 8   2959064.94345  23832218.648    23832227.7494
  23356325.639    15280981.102 8  11887458.72845  23356325.792    23356335.0114
  21949525.795   -16867178.692 9 -13134159.56247  21949525.620    21949533.0544
  20228542.891   -11106407.645 9  -8651774.54948  20228542.741    20228547.6364
  20716691.523     -377051.720 9   -298976.87847  20716691.243    20716697.5724
  20256329.848    -6618802.182 9  -5159751.76248  20256329.475    20256335.8144
 01  7 14 18  4  0.0000000  0  9 26 03 23 22 06 21 18 17 15
  22840175.972       96893.780 8     74331.34146  22840176.186    22840183.3044
  22262947.124   -16580305.217 8 -12891025.31446  22262947.122    22262953.9744
  20947303.268    -1586103.275 9  -1238095.20847  20947303.004    20947309.0974
  23844923.975     3870277.927 8   3011088.27545  23844923.303    23844932.5484
  23376485.827    15386922.887 8  11970010.59045  23376485.985    23376495.1954
  21938430.873   -16925483.122 9 -13179591.53947  21938430.680    21938438.0034
  20228832.350   -11104886.444 9  -8650589.19048  20228832.191    20228837.0984
  20722039.988     -348945.308 9   -277075.79147  20722039.650    20722046.1064
  20256750.665    -6616591.168 9  -5158028.89548  20256750.224    20256756.5694
 01  7 14 18  4 30.0000000  0  9 26 03 23 22 06 21 18 17 15
  22852999.678      164282.863 8    126842.33345  22852999.936    22853006.9294
  22249021.676   -16653484.001 8 -12948047.71446  22249021.633    22249028.4314
  20954769.673    -1546867.025 9  -1207521.52647  20954769.385    20954775.5404
  23857680.615     3937314.282 8   3063324.31445  23857680.042    23857689.3764
  23396682.996    15493058.706 8  12052713.65245  23396683.043    23396692.3074
  21927390.883   -16983498.688 9 -13224798.42247  21927390.673    21927397.9334
  20229206.607   -11102919.518 9  -8649056.51248  20229206.432    20229211.3394
  20727440.579     -320565.079 9   -254961.33747  20727440.282    20727446.7324
  20257229.374    -6614075.332 9  -5156068.50648  20257228.972    20257235.3084
 01  7 14 18  5  0.0000000  0  9 26 03 23 22 06 21 18 17 15
  22865921.176      232185.642 8    179753.69245  22865921.502    22865928.1444
  22235169.766   -16726276.449 8 -13004769.06946  22235169.702    22235176.4974
  20962295.696    -1507317.799 9  -1176703.95847  20962295.365    20962301.5734
  23870489.445     4004624.768 8   3115773.95645  23870488.844    23870498.2724
  23416917.294    15599390.398 8  12135569.34745  23416917.355    23416926.7394
  21916406.628   -17041221.091 9 -13269776.87147  21916406.408    21916413.6804
  20229666.335   -11100503.761 9  -8647174.09548  20229666.164    20229671.0524
  20732894.066     -291906.715 9   -232630.15147  20732893.766    20732900.1804
  20257767.039    -6611250.083 9  -5153867.01348  20257766.640    20257772.9704
 01  7 14 18  5 30.0000000  0  9 26 03 23 22 06 21 18 17 15
  22878939.392      300597.119 8    233061.31645  22878939.660    22878946.3904
  22221391.246   -16798683.221 8 -13061189.88946  22221391.091    22221397.9254
  20969880.320    -1467460.192 9  -1145646.08747  20969880.054    20969886.1914
  23883349.529     4072204.264 8   3168433.20745  23883348.911    23883358.2524
  23437187.945    15705912.969 8  12218573.75345  23437188.002    23437197.5494
  21905477.656   -17098652.709 9 -13314528.72747  21905477.454    21905484.7554
  20230210.707   -11097643.080 9  -8644944.97948  20230210.517    20230215.4184
  20738400.015     -262972.633 9   -210084.11947  20738399.724    20738406.0474
  20258363.114    -6608117.722 9  -5151426.21148  20258362.687    20258369.0024
 01  7 14 18  6  0.0000000  0  9 26 03 23 22 06 21 18 17 15
  22892054.238      369516.177 8    286764.43346  22892054.510    22892061.3804
  22207686.807   -16870700.205 8 -13117306.98946  22207686.669    22207693.5634
  20977523.641    -1427294.429 9  -1114348.10647  20977523.353    20977529.4964
  23896260.396     4140051.391 8   3221301.00445  23896259.873    23896269.1554
  23457494.748    15812625.549 8  12301726.22945  23457494.804    23457504.5284
  21894604.506   -17155791.400 9 -13359052.33547  21894604.271    21894611.6074
  20230839.784   -11094337.103 9  -8642368.88848  20230839.611    20230844.5504
  20743958.743     -233761.201 9   -187321.97547  20743958.486    20743964.8084
  20259017.905    -6604676.620 9  -5148744.83548  20259017.504    20259023.8484
 01  7 14 18  6 30.0000000  0  9 26 03 23 22 06 21 18 17 15
  22905265.082      438939.491 8    340860.49146  22905265.394    22905272.2394
  22194056.866   -16942326.203 8 -13173119.41746  22194056.684    22194063.5524
  20985225.119    -1386823.261 9  -1082812.13947  20985224.801    20985230.9204
  23909221.540     4208161.943 8   3274374.07545  23909220.950    23909230.2684
  23477837.100    15919524.972 8  12385024.29645  23477837.261    23477846.9574
  21883786.758   -17212638.769 9 -13403348.93847  21883786.560    21883793.8544
  20231553.231   -11090587.754 9  -8639447.30648  20231553.047    20231557.9974
  20749570.116     -204273.299 9   -164344.39447  20749569.852    20749576.2084
  20259731.351    -6600927.413 9  -5145823.38048  20259730.940    20259737.3164
 01  7 14 18  7  0.0000000  0  9 26 03 23 22 06 21 18 17 15
  22918571.389      508864.634 7    395347.51045  22918571.584    22918578.6604
  22180501.660   -17013558.837 8 -13228625.32846  22180501.518    22180508.3884
  20992984.313    -1346048.433 9  -1051039.56047  20992984.040    20992990.1654
  23922232.153     4276532.712 8   3327649.91845  23922231.584    23922240.9244
  23498214.903    16026609.080 8  12468466.27045  23498214.964    23498224.6064
  21873024.534   -17269194.556 9 -13447418.33347  21873024.340    21873031.5994
  20232350.875   -11086396.068 9  -8636181.04748  20232350.705    20232355.6414
  20755234.120     -174508.510 9   -141151.07347  20755233.821    20755240.3194
  20260503.567    -6596869.534 9  -5142661.39948  20260503.145    20260509.5384
 01  7 14 18  7 30.0000000  0  9 26 03 23 22 06 21 18 17 15
  22931972.844      579290.483 7    450224.69445  22931973.315    22931980.4574
  22167021.987   -17084394.538 8 -13283821.93546  22167021.890    22167028.7914
  21000801.195    -1304970.142 9  -1019030.52047  21000800.918    21000807.0994
  23935291.853     4345162.472 8   3381127.55345  23935291.263    23935300.8044
  23518627.533    16133877.099 8  12552051.52545  23518627.643    23518637.1894
  21862318.121   -17325456.984 9 -13491259.13247  21862317.912    21862325.1334
  20233232.800   -11081761.536 9  -8632569.71748  20233232.635    20233237.5684
  20760951.186     -144465.353 9   -117740.83347  20760950.873    20760957.3174
  20261334.809    -6592501.424 9  -5139257.67548  20261334.370    20261340.6984
 01  7 14 18  8  0.0000000  0  9 26 03 23 22 06 21 18 17 15
  22945469.168      650213.697 8    505489.47046  22945469.642    22945476.8484
  22153618.156   -17154831.732 8 -13338708.02746  22153618.119    22153624.9814
  21008675.410    -1263591.177 9   -986787.18447  21008675.107    21008681.2954
  23948400.309     4414047.811 8   3434804.35945  23948399.687    23948409.3564
  23539074.534    16241325.665 8  12635777.47145  23539074.627    23539084.1314
  21851667.454   -17381426.698 9 -13534871.84847  21851667.216    21851674.4294
  20234198.606   -11076686.212 9  -8628614.91348  20234198.426    20234203.3684
  20766721.118     -114144.586 9    -94114.27047  20766720.778    20766727.1134
  20262224.936    -6587823.749 9  -5135612.73948  20262224.524    20262230.8604
 01  7 14 18  8 30.0000000  0  9 26 03 23 22 06 21 18 17 15
  22959059.735      721631.939 8    561140.00046  22959060.143    22959067.3384
  22140290.648   -17224868.177 8 -13393281.84146  22140290.586    22140297.4534
  21016606.480    -1221913.014 9   -954310.69947  21016606.216    21016612.3614
  23961557.055     4483185.877 8   3488678.07145  23961556.359    23961565.9894
  23559555.649    16348952.860 8  12719642.61545  23559555.648    23559564.9874
  21841072.497   -17437103.235 9 -13578256.11147  21841072.270    21841079.4934
  20235248.079   -11071171.114 9  -8624317.42448  20235247.909    20235252.8414
  20772543.956      -83545.705 9    -70270.99747  20772543.657    20772549.9294
  20263174.184    -6582835.770 9  -5131725.99748  20263173.747    20263180.0494
 01  7 14 18  9  0.0000000  0  9 26 03 23 22 06 21 18 17 15
  22972743.802      793541.963 8    617173.79246  22972744.160    22972751.3684
  22127039.696   -17294502.128 8 -13447542.02746  22127039.629    22127046.4874
  21024594.030    -1179938.183 9   -921603.06247  21024593.747    21024599.9774
  23974760.958     4552572.516 8   3542745.48445  23974760.338    23974769.8154
  23580070.023    16456755.715 8  12803644.64145  23580070.047    23580079.4304
  21830533.165   -17492487.625 9 -13621412.73247  21830532.937    21830540.1364
  20236380.933   -11065217.920 9  -8619678.56448  20236380.745    20236385.6684
  20778419.554      -52669.181 9    -46211.38547  20778419.240    20778425.5944
  20264182.310    -6577537.639 9  -5127597.59048  20264181.889    20264188.2284
 01  7 14 18  9 30.0000000  0  9 26 03 23 22 06 21 18 17 15
  22986521.187      865942.154 8    673589.53146  22986521.522    22986528.6924
  22113865.975   -17363730.332 8 -13501486.03746  22113865.919    22113872.7654
  21032637.879    -1137667.520 9   -888664.88847  21032637.588    21032643.7884
  23988011.858     4622205.605 8   3597004.92845  23988011.255    23988020.6464
  23600617.483    16564732.876 8  12887782.46845  23600617.592    23600627.0164
  21820049.630   -17547578.817 9 -13664340.88947  21820049.414    21820056.5854
  20237597.071   -11058826.899 9  -8614698.53748  20237596.913    20237601.8324
  20784348.096      -21513.879 9    -21934.54647  20784347.845    20784354.2864
  20265249.773    -6571928.315 9  -5123226.68748  20265249.360    20265255.6694
 01  7 14 18 10  0.0000000  0  9 26 03 23 22 06 21 18 17 15
  23000391.475      938830.035 8    730385.26546  23000391.790    23000398.8394
  22100769.965   -17432550.381 8 -13555112.01746  22100769.876    22100776.7274
  21040737.735    -1095102.657 9   -855497.48147  21040737.430    21040743.6814
  24001309.136     4692082.726 8   3651454.54345  24001308.599    24001317.9374
  23621197.685    16672882.028 8  12972054.33445  23621197.835    23621207.3564
  21809622.007   -17602376.235 9 -13707040.13047  21809621.793    21809628.9504
  20238896.305   -11051999.197 9  -8609378.24548  20238896.164    20238901.0614
  20790329.933        9920.454 9      2559.72247  20790329.644    20790336.1444
  20266376.384    -6566007.484 9  -5118613.05348  20266375.980    20266382.3274
 01  7 14 18 10 30.0000000  0  9 26 03 23 22 06 21 18 17 15
  23014353.899     1012202.731 8    787558.74546  23014354.204    23014361.2234
  22087751.909   -17500960.400 8 -13608418.48546  22087751.828    22087758.6814
  21048893.140    -1052245.485 9   -822102.29247  21048892.835    21048899.0914
  24014652.258     4762200.987 8   3706092.05245  24014651.663    24014661.1414
  23641810.236    16781200.790 8  13056458.36445  23641810.255    23641819.9064
  21799250.197   -17656880.101 9 -13749510.62747  21799249.984    21799257.1344
  20240278.450   -11044735.962 9  -8603718.57048  20240278.307    20240283.2244
  20796364.782       41633.660 9     27271.29747  20796364.496    20796371.0214
  20267562.365    -6559775.106 9  -5113756.65148  20267561.979    20267568.3464
 01  7 14 18 11  0.0000000  0  9 26 03 23 22 06 21 18 17 15
  23028408.211     1086058.397 8    845108.53646  23028408.544    23028415.4694
  22074812.416   -17568957.739 8 -13661403.39346  22074812.335    22074819.1314
  21057104.003    -1009097.154 9   -788480.22647  21057103.711    21057109.9884
  24028040.599     4832557.655 7   3760915.32045  24028040.093    24028049.6724
  23662454.661    16889687.407 8  13140993.17845  23662454.723    23662464.4724
  21788934.351   -17711089.725 9 -13791751.84947  21788934.155    21788941.3274
  20241743.369   -11037037.984 9  -8597720.13748  20241743.213    20241748.1044
  20802452.915       73626.655 9     52200.88247  20802452.621    20802459.1394
  20268807.813    -6553230.229 9  -5108656.75248  20268807.447    20268813.8174
 01  7 14 18 11 30.0000000  0  9 26 03 23 22 06 21 18 17 15
  23042554.140     1160395.568 8    903033.55446  23042554.481    23042561.4284
  22061952.050   -17636538.768 8 -13714063.89746  22061952.038    22061958.7974
  21065370.126     -965658.248 9   -754631.73847  21065369.858    21065376.1564
  24041473.918     4903150.412 8   3815922.53945  24041473.514    24041483.1064
  23683130.745    16998340.802 7  13225657.94845  23683130.879    23683140.7574
  21778674.824   -17765003.933 9 -13833762.87947  21778674.638    21778681.7674
  20243290.989   -11028905.059 9  -8591382.78648  20243290.831    20243295.7234
  20808594.471      105900.715 9     77349.48147  20808594.140    20808600.6564
  20270113.068    -6546371.343 9  -5103312.16048  20270112.693    20270118.9664
 01  7 14 18 12  0.0000000  0  9 26 03 23 22 06 21 18 17 15
  23056790.831     1235209.870 8    961330.39446  23056791.176    23056798.1604
  22049171.026   -17703702.944 8 -13766399.58746  22049171.087    22049177.8724
  21073690.926     -921932.223 9   -720559.52647  21073690.627    21073696.9284
  24054951.547     4973975.049 8   3871110.45745  24054951.044    24054960.7674
  23703837.877    17107156.927 8  13310449.51045  23703838.024    23703848.0944
  21768471.122   -17818624.554 9 -13875545.13547  21768470.931    21768478.0444
  20244920.853   -11020340.115 9  -8584708.79648  20244920.693    20244925.5834
  20814789.147      138454.400 9    102715.96347  20814788.891    20814795.3644
  20271477.817    -6539199.729 9  -5097723.88348  20271477.388    20271483.6614
 01  7 14 18 12 30.0000000  0  9 26 03 23 22 06 21 18 17 15
  23071117.828     1310498.580 8   1019996.95346  23071118.167    23071125.1854
  22036469.877   -17770448.122 8 -13818408.78446  22036469.899    22036476.6734
  21082065.987     -877921.135 9   -686265.18247  21082065.700    21082071.9854
  24068472.829     5045028.819 8   3926476.92845  24068472.293    24068482.0084
  23724575.543    17216133.422 8  13395366.04645  23724575.748    23724585.6854
  21758323.291   -17871951.602 9 -13917098.63647  21758323.116    21758330.2074
  20246632.675   -11011344.404 9  -8577699.14748  20246632.518    20246637.3624
  20821037.186      171287.733 9    128300.35747  20821036.886    20821043.3584
  20272902.046    -6531715.287 9  -5091891.84848  20272901.602    20272907.8864
 01  7 14 18 13  0.0000000  0  9 26 03 23 22 06 21 18 17 15
  23085534.406     1386258.271 8   1079030.47245  23085534.687    23085541.7284
  22023848.646   -17836773.098 8 -13870090.55246  22023848.657    22023855.3924
  21090494.802     -833627.405 9   -651750.60047  21090494.514    21090500.8434
  24082037.003     5116307.875 8   3982018.92645  24082036.273    24082046.0964
  23745343.256    17325266.966 8  13480404.94545  23745343.430    23745353.2974
  21748231.141   -17924985.929 9 -13958424.03647  21748230.963    21748238.0634
  20248426.117   -11001920.068 9  -8570355.49948  20248425.936    20248430.7694
  20827338.288      204400.123 9    154102.20147  20827338.034    20827344.4844
  20274385.748    -6523918.479 9  -5085816.40748  20274385.305    20274391.5854
 01  7 14 18 13 30.0000000  0  9 26 03 23 22 06 21 18 17 15
  23100040.341     1462487.858 7   1138430.11845  23100040.655    23100047.6374
  22011308.109   -17902673.996 8 -13921441.87646  22011308.088    22011314.8124
  21098977.386     -789051.376 9   -617016.03547  21098977.062    21098983.3424
  24095643.496     5187810.296 8   4037734.98945  24095642.743    24095652.6704
  23766140.782    17434556.940 7  13565565.71945  23766140.822    23766150.6494
  21738195.027   -17977725.861 9 -13999520.04947  21738194.871    21738201.9604
  20250301.082   -10992066.867 9  -8562677.67848  20250300.918    20250305.7814
  20833692.847      237793.234 9    180122.77747  20833692.555    20833698.9664
  20275929.228    -6515807.486 9  -5079496.15048  20275928.786    20275935.0634
 01  7 14 18 14  0.0000000  0  9 26 03 23 22 06 21 18 17 15
  23114635.630     1539186.464 7   1198195.17145  23114635.950    23114642.9654
  21998848.991   -17968146.995 8 -13972459.76646  21998848.963    21998855.6944
  21107513.612     -744192.982 9   -582061.45347  21107513.343    21107519.6404
  24109292.211     5259534.559 8   4093623.92945  24109291.614    24109301.4744
  23786967.639    17544002.572 7  13650847.79545  23786967.785    23786977.6974
  21728215.272   -18030169.831 9 -14040385.43347  21728215.060    21728222.1704
  20252257.803   -10981784.268 9  -8554665.25648  20252257.664    20252262.5194
  20840101.124      271468.983 9    206363.60347  20840100.898    20840107.2384
  20277532.918    -6507380.233 9  -5072929.45348  20277532.427    20277538.7004
 01  7 14 18 14 30.0000000  0  9 26 03 23 22 06 21 18 17 15
  23129319.144     1616349.052 7   1258321.75145  23129319.515    23129326.5324
  21986471.328   -18033192.063 8 -14023144.21347  21986471.323    21986478.0004
  21116102.917     -699056.064 9   -546889.84447  21116102.616    21116108.9474
  24122982.396     5331476.274 8   4149682.28245  24122981.717    24122991.6774
  23807823.283    17653599.777 8  13736247.99345  23807823.387    23807833.5424
  21718291.474   -18082319.488 9 -14081021.48747  21718291.280    21718298.3604
  20254295.669   -10971075.243 9  -8546320.55748  20254295.503    20254300.3524
  20846562.928      305425.486 9    232823.18847  20846562.605    20846569.0504
  20279196.336    -6498638.531 9  -5066117.73148  20279195.895    20279202.1484
 01  7 14 18 15  0.0000000  0  9 26 03 23 22 06 21 18 17 15
  23144090.521     1693973.141 8   1318807.99545  23144090.909    23144097.9074
  21974175.622   -18097806.808 8 -14073493.33647  21974175.555    21974182.1974
  21124744.820     -653642.480 9   -511502.63747  21124744.554    21124750.8174
  24136713.324     5403632.645 8   4205907.89945  24136712.741    24136722.6384
  23828707.597    17763346.174 8  13821764.45045  23828707.649    23828717.7464
  21708423.769   -18134174.505 9 -14121427.95347  21708423.561    21708430.5934
  20256414.414   -10959941.091 9  -8537644.59348  20256414.246    20256419.0934
  20853077.980      339662.960 9    259501.72247  20853077.715    20853084.1564
  20280919.648    -6489582.094 9  -5059060.76348  20280919.212    20280925.5414
 01  7 14 18 15 30.0000000  0  9 26 03 23 22 06 21 18 17 15
  23158949.160     1772055.468 8   1379651.31346  23158949.523    23158956.5264
  21961962.096   -18161989.453 8 -14123505.76347  21961962.030    21961968.5934
  21133438.997     -607954.470 9   -475901.61147  21133438.705    21133445.0914
  24150484.414     5475999.761 8   4262297.75245  24150483.878    24150493.6664
  23849619.709    17873238.940 8  13907394.95545  23849619.791    23849629.8364
  21698611.976   -18185735.841 9 -14161605.57547  21698611.784    21698618.7674
  20258613.749   -10948383.647 9  -8528638.78448  20258613.574    20258618.4214
  20859646.563      374180.997 9    286398.87247  20859646.327    20859652.7284
  20282702.915    -6480210.935 9  -5051758.55748  20282702.527    20282708.8204
 01  7 14 18 16  0.0000000  0  9 26 03 23 22 06 21 18 17 15
  23173894.876     1850595.438 8   1440851.25746  23173895.166    23173902.1524
  21949831.488   -18225735.908 8 -14173178.29547  21949831.418    21949838.0364
  21142185.438     -561991.699 9   -440086.46047  21142185.130    21142191.4254
  24164295.441     5548576.498 8   4318850.94645  24164294.946    24164304.7424
  23870559.755    17983277.917 8  13993139.38245  23870559.725    23870569.7114
  21688856.526   -18237001.395 9 -14201552.71347  21688856.257    21688863.2494
  20260893.750   -10936402.095 9  -8519302.50848  20260893.595    20260898.4354
  20866269.143      408981.932 9    313516.47347  20866268.813    20866275.1404
  20284546.593    -6470522.728 9  -5044209.29748  20284546.191    20284552.4344
 01  7 14 18 16 30.0000000  0 10 26 14 03 23 22 06 21 18 17 15
  23188926.311     1929586.072 8   1502402.36546  23188926.610    23188933.6094
  24654899.582    -4790445.663 7  -3714125.16745  24654899.239    24654913.7284
  21937783.515   -18289048.318 8 -14222512.60847  21937783.458    21937790.0704
  21150982.998     -515760.193 9   -404061.92447  21150982.709    21150989.0454
  24178144.876     5621355.587 8   4375561.80945  24178144.408    24178154.2744
  23891526.256    18093456.428 8  14078992.55545  23891526.240    23891536.1794
  21679156.307   -18287975.850 9 -14241273.02847  21679156.053    21679163.0874
  20263253.403   -10924001.902 9  -8509640.01648  20263253.262    20263258.0964
  20872944.430      444061.608 9    340851.25847  20872944.132    20872950.5684
  20286449.754    -6460521.688 9  -5036416.27248  20286449.294    20286455.5674
 01  7 14 18 17  0.0000000  0 10 26 14 03 23 22 06 21 18 17 15
  23204044.070     2009029.914 8   1564306.61746  23204044.364    23204051.2994
  24633069.930    -4905159.157 8  -3803511.80345  24633069.651    24633083.9854
  21925819.574   -18351919.247 8 -14271502.91447  21925819.491    21925826.1134
  21159832.404     -469256.347 9   -367825.16947  21159832.093    21159838.4324
  24192033.462     5694339.822 8   4432432.54145  24192032.933    24192042.8234
  23912519.729    18203777.469 7  14164956.77945  23912519.846    23912529.8334
  21669512.680   -18338653.273 9 -14280761.88347  21669512.469    21669519.4894
  20265693.514   -10911179.177 9  -8499648.27848  20265693.362    20265698.1824
  20879673.832      479425.465 9    368407.48647  20879673.632    20879680.1344
  20288413.445    -6450201.929 9  -5028374.90248  20288413.024    20288419.3474
 01  7 14 18 17 30.0000000  0 10 26 14 03 23 22 06 21 18 17 15
  23219247.356     2088923.002 8   1626560.93146  23219247.609    23219254.5134
  24611240.422    -5019872.641 7  -3892898.45345  24611240.044    24611254.3154
  21913939.850   -18414347.731 8 -14320148.45547  21913939.725    21913946.3684
  21168733.024     -422483.179 9   -331378.55347  21168732.781    21168739.0684
  24205960.147     5767525.036 7   4489459.88245  24205959.643    24205969.5774
  23933539.580    18314237.501 8  14251029.27145  23933539.795    23933550.0734
  21659925.335   -18389035.168 9 -14320020.46247  21659925.066    21659932.0684
  20268213.559   -10897936.240 9  -8489329.10448  20268213.398    20268218.2134
  20886457.341      515072.515 9    396184.39447  20886457.097    20886463.5544
  20290437.684    -6439564.563 9  -5020086.03848  20290437.272    20290443.6024
 01  7 14 18 18  0.0000000  0 10 26 14 03 23 22 06 21 18 17 15
  23234535.281     2169261.552 8   1689162.37146  23234535.486    23234542.4574
  24589410.997    -5134584.741 7  -3982283.97345  24589410.606    24589424.8754
  21902144.513   -18476332.576 8 -14368448.29747  21902144.341    21902151.0214
  21177684.435     -375443.468 9   -294724.24047  21177684.154    21177690.4044
  24219924.118     5840906.812 7   4546640.38545  24219923.606    24219933.6094
  23954585.377    18424833.161 8  14337207.44145  23954585.545    23954595.9784
  21650393.910   -18439122.638 9 -14359049.62147  21650393.685    21650400.6964
  20270813.141   -10884275.461 9  -8478684.34048  20270812.978    20270817.7884
  20893294.572      551001.904 9    424181.29747  20893294.333    20893300.7134
  20292522.295    -6428610.214 9  -5011550.17548  20292521.859    20292528.1554
 01  7 14 18 18 30.0000000  0 10 26 14 03 23 22 06 21 18 17 15
  23249907.828     2250044.930 8   1752110.42446  23249908.024    23249915.0424
  24567582.739    -5249290.888 7  -4071664.85945  24567582.527    24567596.5434
  21890434.360   -18537869.918 8 -14416399.44347  21890434.198    21890440.8524
  21186686.597     -328136.958 9   -257862.03347  21186686.302    21186692.5714
  24233925.417     5914483.763 7   4603972.93145  24233924.922    24233934.9464
  23975656.989    18535564.049 8  14423491.00945  23975657.157    23975667.6774
  21640918.925   -18488913.876 9 -14397847.95247  21640918.694    21640925.6904
  20273492.317   -10870196.298 9  -8467713.56648  20273492.143    20273496.9664
  20900185.896      587215.874 9    452399.95447  20900185.583    20900192.0744
  20294667.584    -6417336.492 9  -5002765.45248  20294667.125    20294673.4684
 01  7 14 18 19  0.0000000  0 10 26 14 03 23 22 06 21 18 17 15
  23265364.049     2331267.865 8   1815400.96845  23265364.303    23265371.3094
  24545755.587    -5363990.882 7  -4161040.93145  24545755.418    24545769.4244
  21878809.224   -18598960.097 8 -14464002.15847  21878809.096    21878815.7004
  21195738.730     -280567.791 9   -220795.15047  21195738.436    21195744.6694
  24247963.048     5988251.145 8   4661453.87745  24247962.564    24247972.5944
  23996753.524    18646425.368 8  14509876.19745  23996753.563    23996764.1854
  21631499.839   -18538411.435 9 -14436417.44047  21631499.605    21631506.5674
  20276250.428   -10855702.176 9  -8456419.44348  20276250.274    20276255.1164
  20907130.709      623711.971 9    480838.44947  20907130.485    20907137.0754
  20296873.136    -6405745.575 9  -4993733.56748  20296872.727    20296879.0954
 01  7 14 18 19 30.0000000  0 10 26 14 03 23 22 06 21 18 17 15
  23280903.501     2412928.301 7   1879032.43145  23280903.726    23280910.8734
  24523930.296    -5478681.478 7  -4250409.67745  24523930.068    24523943.9644
  21867269.771   -18659600.220 8 -14511254.17347  21867269.635    21867276.2314
  21204840.594     -232736.874 9   -183524.31647  21204840.305    21204846.5774
  24262036.608     6062206.827 8   4719081.55945  24262035.992    24262045.9614
  24017874.523    18757415.600 8  14596361.83645  24017874.591    24017885.2224
  21622136.805   -18587614.275 9 -14474757.27647  21622136.576    21622143.5454
  20279087.392   -10840793.899 9  -8444802.60748  20279087.230    20279092.0734
  20914129.587      660491.404 9    509497.72647  20914129.359    20914135.9684
  20299139.408    -6393836.486 9  -4984453.74948  20299139.008    20299145.3124
 01  7 14 18 20  0.0000000  0 10 26 14 03 23 22 06 21 18 17 15
  23296525.787     2495023.680 7   1943002.81245  23296526.080    23296533.1604
  24502107.171    -5593359.959 7  -4339768.98645  24502107.036    24502120.7794
  21855816.347   -18719787.797 8 -14558153.55447  21855816.253    21855822.9114
  21213992.082     -184645.884 9   -146050.81947  21213991.789    21213998.0464
  24276145.450     6136347.842 8   4776853.64045  24276144.783    24276154.7444
  24039019.557    18868532.624 8  14682946.28245  24039019.682    24039030.4254
  21612829.830   -18636522.406 9 -14512867.46847  21612829.609    21612836.5934
  20282002.939   -10825472.500 9  -8432863.85748  20282002.792    20282007.6454
  20921182.466      697554.259 9    538377.85547  20921182.237    20921188.7984
  20301466.261    -6381608.809 9  -4974925.68748  20301465.858    20301472.1244
 01  7 14 18 20 30.0000000  0 10 26 14 03 23 22 06 21 18 17 15
  23312230.584     2577552.448 7   2007310.90545  23312230.789    23312237.8944
  24480287.207    -5708022.468 7  -4429115.81745  24480286.671    24480300.4004
  21844449.700   -18779519.486 8 -14604697.69647  21844449.642    21844456.3554
  21223192.839     -136295.301 9   -108375.04947  21223192.530    21223198.7994
  24290289.056     6210671.839 7   4834768.30945  24290288.214    24290298.2004
  24060188.491    18979775.401 7  14769628.70045  24060188.588    24060199.4434
  21603579.219   -18685134.400 9 -14550746.91047  21603579.024    21603586.0234
  20284997.109   -10809738.145 9  -8420603.31948  20284996.959    20285001.7524
  20928289.588      734902.049 9    567480.01547  20928289.347    20928295.8254
  20303854.021    -6369060.829 9  -4965148.03948  20303853.625    20303859.9614
 01  7 14 18 21  0.0000000  0 10 26 14 03 23 22 06 21 18 17 15
  23328017.142     2660511.120 7   2071953.97445  23328017.470    23328024.3154
  24458470.937    -5822666.906 7  -4518448.61344  24458470.632    24458483.7754
  21833170.175   -18838793.880 8 -14650885.51247  21833170.111    21833176.8014
  21232442.682      -87687.398 9    -70498.77247  21232442.366    21232448.6474
  24304466.538     6285175.549 7   4892823.03445  24304465.807    24304475.9734
  24081380.914    19091141.033 7  14856406.84345  24081380.986    24081391.8394
  21594384.799   -18733451.213 9 -14588396.34047  21594384.619    21594391.5744
  20288069.527   -10793592.596 9  -8408022.37848  20288069.372    20288074.1864
  20935450.697      772534.304 9    596803.81947  20935450.410    20935457.0314
  20306302.727    -6356192.665 9  -4955120.89748  20306302.319    20306308.6274
 01  7 14 18 21 30.0000000  0 10 26 14 03 23 22 06 21 18 17 15
  23343884.762     2743896.141 7   2136929.25644  23343885.815    23343891.7364
  24436658.019    -5937291.665 7  -4607766.05244  24436657.906    24436670.7234
  21821977.843   -18897609.958 8 -14696716.20247  21821977.769    21821984.4004
  21241740.878      -38824.750 9    -32423.98947  21241740.579    21241746.8594
  24318677.799     6359855.458 7   4951015.02645  24318676.921    24318687.1564
  24102596.020    19202626.359 7  14943278.26145  24102596.119    24102607.0224
  21585246.474   -18781473.644 9 -14625816.37947  21585246.275    21585253.1554
  20291219.762   -10777038.025 9  -8395122.71548  20291219.601    20291224.4344
  20942665.784      810450.279 9    626348.70747  20942665.584    20942672.3144
  20308812.265    -6343005.201 9  -4944844.95048  20308811.842    20308818.1084
 01  7 14 18 22  0.0000000  0 11 26 14 03 23 22 06 21 18 17 31 15
  23359833.076     2827705.078 7   2202234.87744  23359832.822    23359840.4294
  24414849.374    -6051893.735 7  -4697065.76844  24414849.223    24414861.6844
  21810873.170   -18955965.291 8 -14742187.86747  21810873.087    21810879.6894
  21251087.394       10291.171 9      5848.15347  21251087.089    21251093.3284
  24332921.804     6434708.972 7   5009342.32145  24332921.059    24332931.4814
  24123833.411    19314229.358 7  15030241.38245  24123833.468    24123844.4774
  21576164.179   -18829201.284 9 -14663006.71247  21576163.983    21576170.8514
  20294447.630   -10760075.456 9  -8381905.13448  20294447.476    20294452.2784
  20949935.256      848650.699 9    656115.24347  20949935.002    20949941.7434
  24434276.230    -5338987.816 7  -4135852.46345  24434275.913    24434284.7214
  20311382.733    -6329497.625 9  -4934319.56948  20311382.293    20311388.5524
 01  7 14 18 22 30.0000000  0 11 26 14 03 23 22 06 21 18 17 31 15
  23375860.777     2911931.716 7   2267865.98844  23375861.336    23375868.6534
  24393045.046    -6166473.890 7  -4786348.39745  24393044.827    24393057.2444
  21799855.872   -19013861.141 8 -14787301.49047  21799855.834    21799862.4314
  21260481.047       59655.359 9     44313.74347  21260480.716    21260487.0184
  24347197.850     6509729.426 7   5067799.67245  24347197.016    24347207.2964
  24145092.119    19425944.245 7  15117291.66245  24145092.260    24145103.2514
  21567137.324   -18876637.851 9 -14699970.23547  21567137.082    21567143.9414
  20297752.261   -10742709.540 9  -8368373.25348  20297752.099    20297756.8684
  20957258.047      887132.238 9    686100.82847  20957257.782    20957264.4564
  24415103.990    -5439738.053 7  -4214359.09445  24415103.696    24415112.5214
  20314013.497    -6315672.967 9  -4923547.11048  20314013.061    20314019.3184
 01  7 14 18 23  0.0000000  0 11 26 14 03 23 22 06 21 18 17 31 15
  23391968.524     2996578.172 6                  23391969.603    23391973.4384
  24371246.438    -6281024.537 7  -4875608.00845  24371246.529    24371258.2814
  21788927.434   -19071290.345 8 -14832051.49847  21788927.399    21788933.9834
  21269922.645      109270.938 9     82975.22447  21269922.329    21269928.5694
  24361505.881     6584918.417 7   5126388.35445  24361505.211    24361515.2994
  24166372.597    19537773.646 7  15204431.17145  24166372.788    24166383.5884
  21558166.767   -18923778.236 9 -14736702.97647  21558166.542    21558173.3634
  20301134.250   -10724936.879 9  -8354524.43648  20301134.107    20301138.8974
  20964635.371      925899.880 9    716309.36147  20964635.095    20964641.6754
  24395972.251    -5540275.627 7  -4292699.96245  24395972.041    24395980.9454
  20316705.647    -6301526.122 9  -4912523.59948  20316705.198    20316711.3854
 01  7 14 18 23 30.0000000  0 11 26 14 03 23 22 06 21 18 17 31 15
  23408155.817     3081641.887 6                  23408156.149    23408161.5684
  24349454.153    -6395542.698 7  -4964842.26545  24349454.005    24349465.9694
  21778088.266   -19128250.751 8 -14876436.20447  21778088.223    21778094.7874
  21279411.720      159136.601 9    121831.58047  21279411.420    21279417.6614
  24375845.820     6660273.692 7   5185106.60045  24375844.983    24375855.1494
  24187674.658    19649715.682 7  15291658.48145  24187674.671    24187685.6204
  21549252.572   -18970622.522 9 -14773204.98347  21549252.353    21549259.1854
  20304593.527   -10706758.369 9  -8340359.36548  20304593.373    20304598.1584
  20972067.151      964954.305 9    746741.36547  20972066.860    20972073.4664
  24376881.355    -5640597.723 7  -4370872.93045  24376881.236    24376890.1044
  20319459.201    -6287056.202 9  -4901248.33248  20319458.702    20319464.9334
 01  7 14 18 24  0.0000000  0 11 26 14 03 23 22 06 21 18 17 31 15
  23424421.942     3167119.47316                  23424422.509    23424426.3684
  24327668.156    -6510026.554 7  -5054049.82945  24327667.937    24327679.9994
  21767338.597   -19184740.948 8 -14920454.51747  21767338.515    21767345.0834
  21288948.003      209249.895 9    160880.88347  21288947.688    21288953.9344
  24390216.566     6735792.027 7   5243951.90545  24390215.834    24390225.9774
  24208997.619    19761767.363 7  15378971.20045  24208997.730    24209008.7634
  21540394.524   -19017171.536 9 -14809476.91447  21540394.315    21540401.1404
  20308129.632   -10688175.961 9  -8325879.57148  20308129.484    20308134.2864
  20979553.385     1004295.032 9    777396.45247  20979553.148    20979559.7984
  24357831.958    -5740702.179 7  -4448876.31745  24357832.103    24357840.7094
  20322273.989    -6272263.654 9  -4889721.67648  20322273.553    20322279.8474
 01  7 14 18 24 30.0000000  0 11 26 14 03 23 22 06 21 18 17 31 15
  23440765.675                                    23440752.758    23440881.4204
  24305888.850    -6624475.010 7  -5143229.81045  24305888.664    24305900.6854
  21756678.440   -19240760.707 8 -14964106.26347  21756678.335    21756684.8744
  21298530.714      259607.634 9    200120.66047  21298530.454    21298536.7224
  24404617.511     6811468.572 7   5302920.50545  24404616.755    24404626.8974
  24230340.699    19873924.774 7  15466366.29745  24230340.754    24230351.8854
  21531592.446   -19063426.677 9 -14845519.85347  21531592.249    21531599.0504
  20311742.070   -10669192.502 9  -8311087.27748  20311741.914    20311746.7104
  20987093.897     1043920.576 9    808273.46547  20987093.687    20987100.3214
  24338824.052    -5840588.409 7  -4526709.64045  24338824.293    24338832.9094
  20325150.082    -6257149.689 9  -4877944.56448  20325149.672    20325155.9644
 01  7 14 18 25  0.0000000  0 11 26 14 03 23 22 06 21 18 17 31 15
  23457187.214                                    23457174.250    23457192.5524
  24284117.124    -6738883.623 8  -5232378.73445  24284116.937    24284128.8734
  21746108.519   -19296305.784 8 -15007388.11947  21746108.433    21746114.9494
  21308160.138      310210.013 9    239551.08247  21308159.788    21308165.9944
  24419048.250     6887301.852 7   5362011.21945  24419047.485    24419057.7234
  24251703.905    19986187.266 7  15553843.29345  24251703.854    24251715.0134
  21522846.594   -19109386.287 9 -14881332.49947  21522846.384    21522853.2134
  20315430.928   -10649807.612 9  -8295982.17048  20315430.770    20315435.5684
  20994689.074     1083833.019 9    839374.05047  20994688.829    20994695.4604
  24319858.771    -5940251.688 7  -4604369.26945  24319858.833    24319867.4764
  20328087.684    -6241712.281 9  -4865915.41648  20328087.258    20328093.5824
 01  7 14 18 25 30.0000000  0 11 26 14 03 23 22 06 21 18 17 31 15
  23473685.467                                    23473672.788    23473692.9224
  24262353.394    -6853250.355 8  -5321495.05045  24262353.124    24262365.0484
  21735629.236   -19351374.883 8 -15050299.09147  21735629.147    21735635.6674
  21317835.515      361054.736 9    279170.33347  21317835.230    21317841.4074
  24433508.016     6963288.210 8   5421221.21645  24433507.264    24433517.6904
  24273086.530    20098552.266 8  15641400.12645  24273086.481    24273097.7724
  21514156.858   -19155050.672 9 -14916915.10747  21514156.679    21514163.5404
  20319195.762   -10630023.282 9  -8280565.81148  20319195.604    20319200.3904
  21002338.661     1124031.930 9    870697.85247  21002338.433    21002345.0744
  24300936.445    -6039689.807 7  -4681853.40645  24300936.262    24300944.8464
  20331086.867    -6225951.678 9  -4853634.42148  20331086.442    20331092.7294
 01  7 14 18 26  0.0000000  0 11 26 14 03 23 22 06 21 18 17 31 15
  23490260.572                                    23490248.073    23490347.4604
  24240598.062    -6967572.810 8  -5410576.87745  24240597.824    24240609.6214
  21725240.658   -19405966.591 8 -15092838.06647  21725240.639    21725247.1324
  21327556.639      412139.678 9    318976.76447  21327556.320    21327562.5914
  24447996.313     7039424.875 7   5480548.33745  24447995.645    24448006.1914
  24294487.998    20211016.896 8  15729034.61145  24294487.975    24294499.2644
  21505523.202   -19200420.975 9 -14952268.55647  21505523.016    21505529.8144
  20323036.245   -10609841.174 9  -8264839.50148  20323036.075    20323040.8754
  21010042.770     1164516.928 9    902244.57847  21010042.550    21010049.1374
  24282057.226    -6138900.839 7  -4759160.61345  24282056.853    24282065.5624
  20334147.550    -6209867.978 9  -4841101.66848  20334147.103    20334153.3864
 01  7 14 18 26 30.0000000  0 10 14 03 23 22 06 21 18 17 31 15
  24218850.812    -7081852.493 8  -5499625.38945  24218850.789    24218862.3934
  21714942.595   -19460083.025 8 -15135006.69847  21714942.578    21714949.1014
  21337322.445      463459.119 9    358965.92347  21337322.169    21337328.4154
  24462512.000     7115704.857 8   5539987.12045  24462511.465    24462521.9724
  24315907.359    20323574.788 8  15816741.76145  24315907.437    24315918.6584
  21496944.767   -19245501.135 9 -14987395.92947  21496944.525    21496951.3174
  20326951.434   -10589266.904 9  -8248807.60648  20326951.274    20326956.0674
  21017800.537     1205284.185 9    934011.24847  21017800.260    21017806.8374
  24263220.817    -6237886.247 7  -4836292.00545  24263220.411    24263229.1984
  20337268.900    -6193464.900 9  -4828320.05348  20337268.462    20337274.7414
 01  7 14 18 27  0.0000000  0 10 14 03 23 22 06 21 18 17 31 15
  24197113.478    -7196081.089 8  -5588634.11645  24197113.348    24197124.8834
  21704736.474   -19513716.387 8 -15176798.90647  21704736.454    21704742.9874
  21347133.678      515017.242 9    399141.07747  21347133.337    21347139.5854
  24477055.613     7192130.728 7   5599539.57845  24477054.877    24477065.6044
  24337345.122    20436229.339 7  15904524.22645  24337345.176    24337356.4894
  21488422.589   -19290285.242 9 -15022292.60447  21488422.355    21488429.1254
  20330942.057   -10568295.989 9  -8232466.63448  20330941.902    20330946.6674
  21025613.159     1246339.895 9    966002.67747  21025612.911    21025619.5684
  24244428.764    -6336637.655 7  -4913241.03545  24244428.662    24244437.3654
  20340452.179    -6176736.412 9  -4815284.85848  20340451.818    20340458.0764
 01  7 14 18 27 30.0000000  0 10 14 03 23 22 06 21 18 17 31 15
  24175386.295    -7310256.132 7  -5677601.13245  24175386.100    24175397.4914
  21694622.658   -19566864.828 8 -15218213.25947  21694622.635    21694629.1114
  21356989.852      566812.057 9    439500.65147  21356989.544    21356995.8424
  24491626.125     7268698.759 8   5659202.83045  24491625.400    24491636.2414
  24358800.801    20548978.013 7  15992380.01845  24358800.723    24358812.1704
  21479956.655   -19334773.978 9 -15056959.12747  21479956.426    21479963.1884
  20335007.880   -10546930.020 9  -8215817.83448  20335007.697    20335012.4934
  21033480.691     1287683.687 9    998218.58747  21033480.414    21033487.1684
  24225681.844    -6435153.126 7  -4990006.23145  24225681.600    24225690.5064
  20343697.478    -6159682.326 9  -4801995.95648  20343697.072    20343703.3084
 01  7 14 18 28  0.0000000  0 10 14 03 23 22 06 21 18 17 31 15
  24153669.299    -7424377.145 7  -5766526.06445  24153669.004    24153680.3874
  21684600.990   -19619528.885 8 -15259250.17047  21684601.003    21684607.4554
  21366890.401      618839.558 9    480041.55947  21366890.080    21366896.3264
  24506222.827     7345404.132 8   5718973.07745  24506222.175    24506232.9564
  24380273.352    20661815.977 7  16080305.38645  24380273.178    24380284.8504
  21471546.517   -19378969.557 9 -15091397.21047  21471546.278    21471553.0394
  20339148.163   -10525172.676 9  -8198864.06548  20339148.011    20339152.8004
  21041402.642     1329313.525 8   1030657.40047  21041402.341    21041409.0574
  24206980.202    -6533431.906 7  -5066586.99945  24206979.757    24206988.6994
  20347004.367    -6142304.827 9  -4788455.04548  20347003.912    20347010.2404
 01  7 14 18 28 30.0000000  0 10 14 03 23 22 06 21 18 17 31 15
  24131963.707    -7538438.725 7  -5855404.73045  24131963.331    24131974.5394
  21674672.462   -19671703.800 8 -15299905.93047  21674672.416    21674678.8764
  21376835.368      671100.953 9    520764.70447  21376835.055    21376841.3804
  24520845.709     7422247.109 8   5778850.56445  24520845.122    24520855.9564
  24401762.912    20774744.086 7  16168300.97045  24401762.840    24401774.6834
  21463192.683   -19422869.101 9 -15125604.61747  21463192.441    21463199.1874
  20343363.194   -10503022.504 9  -8181604.20048  20343363.043    20343367.8334
  21049379.447     1371232.397 9   1063321.43847  21049379.208    21049385.9034
  24188324.531    -6631468.429 7  -5142978.98445  24188323.882    24188332.9514
  20350373.321    -6124600.593 9  -4774659.53748  20350372.890    20350379.2664
 01  7 14 18 29  0.0000000  0 10 14 03 23 22 06 21 18 17 31 15
  24110269.055    -7652441.835 7  -5944237.82745  24110268.849    24110279.9114
  21664836.655   -19723391.121 8 -15340181.73947  21664836.626    21664843.0774
  21386823.929      723590.865 9    561665.92147  21386823.630    21386829.9334
  24535493.355     7499220.889 8   5838829.95745  24535492.912    24535503.7184
  24423268.697    20887756.160 7  16256361.97945  24423268.592    24423280.4134
  21454894.353   -19466476.894 9 -15159584.68447  21454894.116    21454900.8964
  20347652.025   -10480484.614 9  -8164042.21248  20347651.854    20347656.6364
  21057410.803     1413436.927 9   1096208.05547  21057410.548    21057417.2634
  24169714.535    -6729264.094 7  -5219183.30445  24169714.225    24169723.0344
  20353803.908    -6106573.127 9  -4760612.16248  20353803.455    20353809.7944
 01  7 14 18 29 30.0000000  0 10 14 03 23 22 06 21 18 17 31 15
  24088586.996    -7766379.744 7  -6033020.13945  24088586.729    24088597.8074
  21655094.807   -19774585.038 8 -15380073.08347  21655094.750    21655101.1824
  21396856.379      776311.660 9    602747.05347  21396856.025    21396862.3104
  24550165.905     7576326.106 7   5898911.77745  24550165.584    24550176.3784
  24444790.507    21000854.082 7  16344489.90945  24444790.644    24444802.6084
  21446652.305   -19509788.997 9 -15193334.34647  21446652.072    21446658.8474
  20352015.141   -10457556.412 9  -8146176.08348  20352014.963    20352019.7744
  21065497.303     1455931.041 9   1129320.32047  21065497.060    21065503.7514
  24151151.524    -6826812.235 7  -5295194.77345  24151151.277    24151159.9624
  20357296.852    -6088217.891 9  -4746309.38148  20357296.417    20357302.6054
 01  7 14 18 30  0.0000000  0 10 14 03 23 22 06 21 18 17 31 15
  24066917.329    -7880252.402 7  -6121751.63545  24066917.231    24066927.8954
  21645446.678   -19825286.131 8 -15419580.41647  21645446.609    21645453.0374
  21406931.964      829259.344 9    644004.96247  21406931.650    21406937.9834
  24564862.861     7653557.343 7   5959091.79245  24564862.419    24564873.2174
  24466327.969    21114032.984 7  16432680.92145  24466328.013    24466340.1164
  21438466.039   -19552808.014 9 -15226855.63047  21438465.789    21438472.5464
  20356451.786   -10434241.776 9  -8128008.84748  20356451.602    20356456.4244
  21073638.446     1498712.698 9   1162656.64447  21073638.174    21073644.8404
  24132635.837    -6924112.333 7  -5371012.92445  24132635.624    24132644.2494
  20360851.708    -6069537.166 9  -4731752.97048  20360851.236    20360857.3414
 01  7 14 18 30 30.0000000  0 10 14 03 23 22 06 21 18 17 31 15
  24045260.274    -7994058.118 7  -6210430.96445  24045260.144    24045270.8004
  21635892.475   -19875493.630 9 -15458703.12247  21635892.413    21635898.8464
  21417050.216      882431.118 9    685437.50747  21417049.865    21417056.2074
  24579582.824     7730910.856 7   6019367.09845  24579582.349    24579593.2004
  24487880.243    21227289.650 7  16520932.47345  24487880.233    24487892.5584
  21430335.280   -19595535.244 9 -15260149.54447  21430335.058    21430341.8134
  20360961.451   -10410543.194 9  -8109542.42448  20360961.310    20360966.0984
  21081834.071     1541780.705 9   1196216.12747  21081833.790    21081840.2954
  24114167.607    -7021163.474 7  -5446637.10245  24114167.499    24114175.9434
  20364468.267    -6050531.673 9  -4716943.50148  20364467.842    20364474.0294
 01  7 14 18 31  0.0000000  0 10 14 03 23 22 06 21 18 17 31 15
  24023617.234    -8107791.576 7  -6299054.05045  24023616.987    24023627.3244
  21626433.055   -19925203.346 8 -15497437.94347  21626432.982    21626439.4064
  21427211.267      935827.967 9    727045.43647  21427211.010    21427217.3234
  24594326.205     7808386.630 7   6079737.67245  24594325.434    24594336.4514
  24509447.486    21340624.124 7  16609244.66945  24509447.253    24509459.8054
  21422260.651   -19637967.826 9 -15293213.86347  21422260.418    21422267.1494
  20365544.408   -10386459.609 9  -8090776.00448  20365544.247    20365549.0624
  21090084.653     1585137.947 8   1230000.96947  21090084.379    21090090.9514
  24095747.856    -7117960.266 7  -5522063.08345  24095747.711    24095755.7094
  20368147.304    -6031198.506 9  -4701878.69848  20368146.816    20368153.0184
 01  7 14 18 31 30.0000000  0  9 14 03 23 22 21 18 17 31 15
  24001987.937    -8221452.100 8  -6387620.32145  24001987.770    24001998.0314
  21617068.291   -19974415.394 8 -15535784.98047  21617068.235    21617074.6884
  21437414.519      989446.253 9    768825.90447  21437414.227    21437420.5074
  24609091.675     7885979.414 7   6140199.37245  24609090.871    24609102.0704
  21414241.600   -19680108.200 9 -15326050.49147  21414241.349    21414248.0724
  20370200.038   -10361994.111 9  -8071711.98548  20370199.874    20370204.6994
  21098389.788     1628782.649 8   1264009.78347  21098389.569    21098396.2954
  24077376.620    -7214502.004 7  -5597290.29445  24077376.199    24077384.2904
  20371888.302    -6011539.288 9  -4686559.83848  20371887.825    20371894.0944
 01  7 14 18 32  0.0000000  0  9 14 03 23 22 21 18 17 31 15
  23980373.972    -8335032.766 8  -6476124.36245  23980373.913    23980383.9474
  21607799.375   -20023123.562 8 -15573739.37247  21607799.342    21607805.8674
  21447660.447     1043288.433 9    810780.84547  21447660.124    21447666.4014
  24623879.645     7963689.844 7   6200752.77445  24623878.933    24623890.0914
  21406278.908   -19721952.242 9 -15358656.20847  21406278.662    21406285.3734
  20374928.894   -10337144.092 9  -8052348.33848  20374928.710    20374933.5144
  21106750.662     1672718.884 9   1298245.78947  21106750.470    21106757.1084
  24059055.162    -7310781.772 7  -5672313.46745  24059054.674    24059062.6444
  20375692.227    -5991549.900 9  -4670983.69848  20375691.702    20375697.9174
 01  7 14 18 32 30.0000000  0  9 14 03 23 22 21 18 17 31 15
  23958775.034    -8448534.635 8  -6564566.99745  23958774.936    23958785.0084
  21598626.005   -20071329.688 9 -15611302.56647  21598625.972    21598632.5374
  21457947.755     1097349.215 9    852906.10847  21457947.472    21457953.8184
  24638688.925     8041511.649 7   6261392.96645  24638688.132    24638699.1204
  21398371.775   -19763504.318 9 -15391034.42247  21398371.526    21398378.2214
  20379729.905   -10311914.744 9  -8032689.11048  20379729.717    20379734.5194
  21115166.326     1716943.302 8   1332706.34547  21115166.075    21115172.7484
  24040783.097    -7406800.617 7  -5747133.21445  24040782.652    24040790.7624
  20379558.412    -5971233.454 9  -4655152.70148  20379557.886    20379563.9284
 01  7 14 18 33  0.0000000  0  9 14 03 23 22 21 18 17 31 15
  23937191.401    -8561956.549 8  -6652947.34445  23937191.208    23937201.1094
  21589548.280   -20119033.539 8 -15648474.38647  21589548.257    21589554.7234
  21468276.315     1151625.480 9    895199.30747  21468276.002    21468282.2514
  24653518.431     8119440.925 7   6322116.89745  24653517.765    24653528.6724
  21390519.973   -19804765.528 9 -15423185.99147  21390519.741    21390526.4194
  20384602.489   -10286308.979 9  -8012736.57648  20384602.313    20384607.1184
  21123636.585     1761454.591 9   1367390.45747  21123636.331    21123642.9414
  24022560.968    -7502557.470 7  -5821748.86445  24022560.677    24022568.8244
  20383486.477    -5950591.201 9  -4639067.83448  20383485.896    20383491.9924
 01  7 14 18 33 30.0000000  0  9 14 03 23 22 21 18 17 31 15
  23915624.091    -8675293.170 8  -6741261.25145  23915623.789    23915633.5334
  21580566.922   -20166231.013 9 -15685251.61547  21580566.864    21580573.3204
  21478645.816     1206118.015 9    937660.98847  21478645.533    21478651.8634
  24668368.359     8197477.112 7   6382924.13545  24668367.554    24668378.4704
  21382723.930   -19845733.926 9 -15455109.39347  21382723.708    21382730.3854
  20389546.956   -10260325.902 9  -7992490.02648  20389546.751    20389551.5334
  21132161.958     1806255.242 8   1402300.06047  21132161.689    21132168.1394
  24004389.732    -7598047.295 8  -5896156.41845  24004389.437    24004397.7474
  20387477.066    -5929620.291 9  -4622726.87248  20387476.564    20387482.6364
 01  7 14 18 34  0.0000000  0  9 14 03 23 22 21 18 17 31 15
  23894073.039    -8788543.083 8  -6829507.60445  23894072.648    23894082.5324
  21571682.065   -20212921.096 9 -15721633.48147  21571682.035    21571688.4944
  21489056.176     1260824.129 9    980289.13147  21489055.866    21489062.0794
  24683237.889     8275615.645 7   6443811.12945  24683236.820    24683247.8674
  21374983.337   -19886410.969 9 -15486805.76847  21374983.097    21374989.7824
  20394562.755   -10233967.853 9  -7971951.29448  20394562.538    20394567.3194
  21140742.176     1851344.348 8   1437434.40047  21140741.849    21140748.4294
  23986269.693    -7693268.395 8  -5970354.61145  23986269.471    23986277.7724
  20391530.105    -5908321.578 9  -4606130.48148  20391529.558    20391535.6784
 01  7 14 18 34 30.0000000  0  9 14 03 23 22 21 18 17 31 15
  23872539.071    -8901703.259 8  -6917684.03945  23872538.696    23872548.5954
  21562894.140   -20259101.894 9 -15757618.50947  21562894.119    21562900.5824
  21499506.760     1315742.701 9   1023082.80147  21499506.471    21499512.7614
  24698126.212     8353853.866 7   6504775.78045  24698125.144    24698135.9734
  21367298.269   -19926796.316 9 -15518274.84547  21367298.017    21367304.6624
  20399649.635   -10207235.990 9  -7951121.27948  20399649.447    20399654.2204
  21149377.274     1896722.386 8   1472793.87147  21149376.991    21149383.7174
  23968201.422    -7788217.823 8  -6044341.09245  23968201.190    23968209.5294
  20395645.624    -5886694.274 9  -4589278.04848  20395645.119    20395651.2584
 01  7 14 18 35  0.0000000  0  9 14 03 23 22 21 18 17 31 15
  23851022.647    -9014770.597 7  -7005788.12945  23851022.362    23851032.1914
  21554203.490   -20304771.414 9 -15793205.12547  21554203.485    21554209.9504
  21509997.612     1370872.336 9   1066040.93547  21509997.289    21510003.6694
  24713033.075     8432189.648 7   6565816.47945  24713032.184    24713043.0634
  21359668.695   -19966889.842 9 -15549516.52547  21359668.449    21359675.0934
  20404807.516   -10180131.243 9  -7930000.70748  20404807.316    20404812.1194
  21158067.565     1942389.836 9   1508378.87747  21158067.294    21158073.9864
  23950185.372    -7882892.715 8  -6118113.64145  23950184.993    23950193.4174
  20399823.792    -5864737.809 9  -4572169.11948  20399823.256    20399829.4444
 01  7 14 18 35 30.0000000  0  9 14 03 23 22 21 18 17 31 15
  23829524.369    -9127742.592 7  -7093817.94245  23829524.165    23829533.9774
  21545610.462   -20349928.337 9 -15828392.32547  21545610.454    21545616.8544
  21520528.211     1426211.171 9   1109162.09947  21520527.918    21520534.2174
  24727958.039     8510619.920 7   6626930.78545  24727957.041    24727968.0654
  21352094.584   -20006692.052 9 -15580531.21447  21352094.333    21352100.9614
  20410035.954   -10152655.631 9  -7908591.15148  20410035.786    20410040.5734
  21166812.985     1988346.346 8   1544189.16247  21166812.621    21166818.9994
  23932221.836    -7977290.698 8  -6191670.40245  23932221.477    23932229.8184
  20404064.508    -5842452.364 9  -4554803.84848  20404064.000    20404070.2154
 01  7 14 18 36  0.0000000  0  9 14 03 23 22 21 18 17 31 15
  23808044.726    -9240616.217 7  -7181771.09645  23808044.595    23808054.3844
  21537115.348   -20394570.610 9 -15863178.49647  21537115.315    21537121.6804
  21531098.525     1481757.923 9   1152445.27347  21531098.171    21531104.4884
  24742900.400     8589141.782 7   6688116.46645  24742899.448    24742910.6094
  21344575.922   -20046202.845 9 -15611318.82047  21344575.678    21344582.2734
  20415334.742   -10124810.332 9  -7886893.51948  20415334.568    20415339.3174
  21175613.320     2034592.546 8   1580225.15647  21175612.969    21175619.4024
  23914311.602    -8071409.048 8  -6265009.28945  23914311.297    23914319.6924
  20408367.958    -5819837.501 9  -4537181.88047  20408367.451    20408373.6534
 01  7 14 18 36 30.0000000  0  9 14 03 23 22 21 18 17 31 15
  23786584.577    -9353388.580 7  -7269645.36345  23786584.401    23786594.2674
  21528718.603   -20438695.956 9 -15897561.86447  21528718.558    21528724.9234
  21541708.093     1537511.450 9   1195889.55447  21541707.766    21541714.0534
  24757859.785     8667752.337 7   6749371.26745  24757858.681    24757869.9084
  21337112.708   -20085422.161 9 -15641879.30247  21337112.465    21337119.0804
  20420703.759   -10096596.360 9  -7864908.61248  20420703.551    20420708.3024
  21184468.744     2081128.885 8   1616487.21547  21184468.468    21184475.0014
  23896455.233    -8165244.825 7  -6338127.99645  23896454.769    23896463.2384
  20412734.178    -5796892.304 9  -4519302.51947  20412733.708    20412739.9934
 01  7 14 18 37  0.0000000  0  9 14 03 23 22 21 18 17 31 15
  23765144.102    -9466057.477 8  -7357439.01845  23765143.984    23765153.7634
  21520420.332   -20482303.387 9 -15931541.66447  21520420.283    21520426.6684
  21552356.630     1593469.340 9   1239493.10947  21552356.255    21552362.4434
  24772835.427     8746448.118 7   6810692.44045  24772834.353    24772845.2874
  21329704.809   -20124350.924 9 -15672213.37947  21329704.563    21329711.1524
  20426142.456   -10068015.746 9  -7842638.01248  20426142.276    20426147.0264
  21193379.471     2127954.678 8   1652974.82747  21193379.199    21193385.7774
  23878653.116    -8258795.701 7  -6411024.67145  23878652.613    23878660.9974
  20417163.376    -5773617.102 9  -4501166.00148  20417162.882    20417169.1644
 01  7 14 18 37 30.0000000  0  9 14 03 23 22 21 18 17 31 15
  23743724.121    -9578619.815 8  -7445149.66045  23743723.982    23743733.5934
  21512221.017   -20525390.954 9 -15965116.37447  21512220.929    21512227.3274
  21563043.664     1649630.451 9   1283254.98947  21563043.346    21563049.5284
  24787826.765     8825227.167 7   6872078.51945  24787825.716    24787836.7184
  21322352.297   -20162988.929 9 -15702320.89347  21322352.013    21322358.5944
  20431650.735   -10039069.670 9  -7820082.63648  20431650.543    20431655.3024
  21202345.370     2175070.684 9   1689688.57347  21202345.101    21202351.7244
  23860905.705    -8352058.638 7  -6483696.99545  23860905.219    23860913.6174
  20421655.333    -5750011.565 9  -4482772.08647  20421654.872    20421661.1664
 01  7 14 18 38  0.0000000  0  9 14 03 23 22 21 18 17 31 15
  23722324.724    -9691073.375 8  -7532775.54245  23722324.577    23722334.0204
  21504120.917   -20567957.192 9 -15998284.85047  21504120.827    21504127.2184
  21573769.146     1705992.827 9   1327173.71547  21573768.781    21573774.9424
  24802832.947     8904086.207 7   6933526.93145  24802832.156    24802843.3714
  21315054.945   -20201336.354 9 -15732201.98247  21315054.725    21315061.2804
  20437228.209   -10009759.950 9  -7797243.89548  20437228.021    20437232.7484
  21211366.482     2222476.525 9   1726628.18647  21211366.127    21211372.5914
  23843213.415    -8445031.457 7  -6556143.27445  23843212.908    23843221.3164
  20426210.271    -5726075.553 9  -4464120.64947  20426209.799    20426216.0294
 01  7 14 18 38 30.0000000  0  9 14 03 23 22 21 18 17 31 15
  23700946.653    -9803414.777 8  -7620314.03245  23700946.476    23700955.7174
  21496120.448   -20610000.104 9 -16031045.54347  21496120.365    21496126.7574
  21584532.626     1762555.420 9   1371248.43847  21584532.220    21584538.4454
  24817853.958     8983022.255 7   6995035.33845  24817853.218    24817864.4674
  21307812.928   -20239393.495 9 -15761856.87147  21307812.708    21307819.2624
  20442874.673    -9980087.519 9  -7774122.52748  20442874.473    20442879.2094
  21220442.725     2270172.783 8   1763794.07947  21220442.393    21220448.9894
  23825576.972    -8537711.065 7  -6628361.05245  23825576.437    23825584.9874
  20430828.204    -5701808.263 9  -4445211.08147  20430827.712    20430833.9244
 01  7 14 18 39  0.0000000  0  9 14 03 23 22 21 18 17 31 15
  23679590.501    -9915641.285 8  -7707763.02245  23679590.341    23679599.3794
  21488219.924   -20651517.990 9 -16063397.12447  21488219.815    21488226.2144
  21595333.966     1819316.619 9   1415477.93747  21595333.661    21595339.8224
  24832889.076     9062032.303 8   7056601.41945  24832888.519    24832899.6834
  21300626.098   -20277160.678 9 -15791285.81847  21300625.834    21300632.3874
  20448589.901    -9950053.920 9  -7750719.73248  20448589.696    20448594.4444
  21229574.431     2318159.544 8   1801186.36447  21229574.082    21229580.4504
  23807996.785    -8630094.770 8  -6700348.25545  23807996.407    23808004.8544
  20435509.233    -5677209.378 9  -4426043.12247  20435508.752    20435514.9434
 01  7 14 18 39 30.0000000  0  8 14 03 23 21 18 17 31 15
  23658257.357   -10027747.703 8  -7795118.41645  23658257.070    23658265.9684
  21480420.000   -20692506.909 9 -16095336.53047  21480419.865    21480426.2464
  21606173.172     1876277.467 9   1459862.97547  21606172.778    21606179.0694
  21293494.838   -20314635.790 9 -15820487.18347  21293494.551    21293501.1094
  20454373.994    -9919658.242 9  -7727034.79348  20454373.792    20454378.5414
  21238761.829     2366439.445 8   1838807.03947  21238761.471    21238767.9974
  23790473.899    -8722177.830 8  -6772101.22845  23790473.568    23790481.8874
  20440253.834    -5652276.459 9  -4406614.89047  20440253.317    20440259.5994
 01  7 14 18 40  0.0000000  0  8 14 03 23 21 18 17 31 15
  23636947.541   -10139730.745 8  -7882377.70745  23636947.262    23636955.9454
  21472721.209   -20732964.356 9 -16126861.79547  21472721.065    21472727.4244
  21617050.422     1933437.279 9   1504403.08147  21617050.078    21617056.2944
  21286419.311   -20351817.604 9 -15849460.00547  21286419.039    21286425.5914
  20460226.874    -9888901.012 9  -7703068.12848  20460226.680    20460231.4724
  21248005.076     2415013.400 8   1876656.83447  21248004.743    21248011.3504
  23773008.922    -8813956.466 8  -6843616.94845  23773008.678    23773016.7654
  20445062.248    -5627008.178 9  -4386925.32548  20445061.778    20445068.0364
 01  7 14 18 40 30.0000000  0  8 14 03 23 21 18 17 31 15
  23615660.320   -10251594.654 8  -7969544.14545  23615660.040    23615668.6944
  21465122.391   -20772896.038 9 -16157977.38047  21465122.305    21465128.6034
  21627963.706     1990787.144 9   1549091.26047  21627963.323    21627969.5774
  21279398.129   -20388714.093 9 -15878210.49247  21279397.869    21279404.3904
  20466146.956    -9857790.910 9  -7678826.49348  20466146.742    20466151.5154
  21257303.018     2463874.267 8   1914730.24247  21257302.676    21257309.1444
  23755601.017    -8905435.232 8  -6914899.04145  23755600.820    23755608.8114
  20449933.113    -5601411.589 9  -4366979.94047  20449932.616    20449938.9394
 01  7 14 18 41  0.0000000  0  8 14 03 23 21 18 17 31 15
  23594396.978   -10363333.638 8  -8056613.26245  23594396.680    23594405.2464
  21457624.631   -20812297.100 9 -16188679.49447  21457624.536    21457630.8294
  21638913.533     2048328.710 9   1593928.84047  21638913.182    21638919.3744
  21272431.686   -20425322.826 9 -15906736.75747  21272431.422    21272437.9364
  20472134.443    -9826326.452 9  -7654308.74348  20472134.227    20472139.0034
  21266656.072     2513025.258 8   1953029.71147  21266655.771    21266662.2204
  23738251.082    -8996608.568 8  -6985943.14445  23738251.001    23738259.0274
  20454867.064    -5575483.431 9  -4346776.18647  20454866.571    20454872.9454
 01  7 14 18 41 30.0000000  0  9 14 03 23 21 18 17 31 15 29
  23573156.496   -10474951.868 8  -8143588.28845  23573156.294    23573164.8374
  21450226.712   -20851173.313 9 -16218972.63647  21450226.627    21450232.9314
  21649898.122     2106053.414 9   1638909.09147  21649897.778    21649904.0834
  21265518.681   -20461650.621 9 -15935044.11147  21265518.448    21265524.9724
  20478187.715    -9794516.049 9  -7629521.42748  20478187.516    20478192.2944
  21276063.077     2562459.334 8   1991549.73947  21276062.778    21276069.2244
  23720958.568    -9087480.830 8  -7056752.60845  23720958.512    23720966.6114
  20459862.824    -5549230.213 9  -4326319.13747  20459862.362    20459868.7304
  24446815.594    -3043355.845 7  -2357876.63745  24446815.572    24446829.9314
 01  7 14 18 42  0.0000000  0  9 14 03 23 21 18 17 31 15 29
  23551940.883   -10586440.288 8  -8230462.16045  23551940.581    23551949.0584
  21442930.143   -20889516.791 9 -16248850.66647  21442930.088    21442936.3754
  21660918.625     2163966.131 9   1684035.86947  21660918.268    21660924.5454
  21258660.511   -20497690.725 9 -15963127.29047  21258660.246    21258666.7304
  20484307.785    -9762354.872 9  -7604460.77648  20484307.609    20484312.3644
  21285525.344     2612183.193 8   2030295.59047  21285525.018    21285531.4894
  23703725.268    -9178042.843 8  -7127320.33945  23703725.202    23703733.1914
  20464921.702    -5522645.251 9  -4305603.59247  20464921.280    20464927.6584
  24425728.370    -3154168.329 7  -2444223.33845  24425728.321    24425742.3264
 01  7 14 18 42 30.0000000  0  9 14 03 23 21 18 17 31 15 29
  23530751.256   -10697791.844 8  -8317229.39645  23530750.931    23530759.3904
  21435736.147   -20927321.343 9 -16278308.74447  21435736.079    21435742.3444
  21671975.344     2222069.842 9   1729311.47447  21671974.964    21671981.2574
  21251857.758   -20533439.263 9 -15990983.27147  21251857.505    21251863.9714
  20490495.221    -9729839.690 9  -7579124.28648  20490495.025    20490499.8664
  21295043.380     2662201.402 8   2069270.78747  21295043.039    21295049.7714
  23686552.290    -9268287.495 8  -7197640.78345  23686552.232    23686560.0734
  20470044.717    -5495723.868 9  -4284625.89847  20470044.273    20470050.5674
  24404647.766    -3264944.885 7  -2530542.07045  24404647.606    24404661.5984
 01  7 14 18 43  0.0000000  0  9 14 03 23 21 18 17 31 15 29
  23509587.942   -10809005.009 8  -8403888.80745  23509587.662    23509595.9814
  21428644.723   -20964586.935 9 -16307346.85147  21428644.648    21428650.9284
  21683067.876     2280361.477 9   1774733.49647  21683067.554    21683073.8934
  21245110.042   -20568898.608 9 -16018613.90547  21245109.797    21245116.2334
  20496749.450    -9696973.612 9  -7553514.35948  20496749.276    20496754.0734
  21304617.139     2712512.468 8   2108474.21147  21304616.881    21304623.5044
  23669439.927    -9358213.606 8  -7267712.98945  23669439.798    23669447.8654
  20475231.475    -5468467.374 9  -4263387.07247  20475231.022    20475237.2874
  24383574.029    -3375684.501 7  -2616832.02345  24383574.024    24383587.8874
 01  7 14 18 43 30.0000000  0  9 14 03 23 21 18 17 31 15 29
  23488451.254   -10920078.060 8  -8490439.05745  23488451.054    23488459.2494
  21421655.996   -21001312.904 9 -16335964.47647  21421655.906    21421662.2034
  21694195.870     2338838.831 9   1820300.25347  21694195.461    21694201.7064
  21238417.215   -20604069.658 9 -16046019.89947  21238416.980    21238423.4114
  20503070.014    -9663758.951 9  -7527632.81948  20503069.810    20503074.6214
  21314246.689     2763115.860 8   2147905.41547  21314246.364    21314252.8864
  23652388.456    -9447819.442 8  -7337535.62845  23652388.322    23652396.3854
  20480481.969    -5440876.224 9  -4241887.48947  20480481.508    20480487.7844
  24362507.753    -3486385.492 7  -2703091.90345  24362507.808    24362521.7194
 01  7 14 18 44  0.0000000  0  9 14 03 23 21 18 17 31 15 29
  23467341.816   -11031008.484 8  -8576878.16145  23467341.608    23467349.6394
  21414770.129   -21037498.367 9 -16364160.92747  21414770.053    21414776.3534
  21705358.601     2397499.943 9   1866010.19047  21705358.303    21705364.5554
  21231779.168   -20638952.755 9 -16073201.51247  21231778.925    21231785.3564
  20509456.585    -9630197.364 9  -7501480.93647  20509456.399    20509461.1604
  21323931.770     2814011.004 8   2187563.95647  21323931.449    21323937.9974
  23635398.427    -9537102.596 8  -7407106.85445  23635398.244    23635406.3124
  20485796.104    -5412950.478 9  -4220127.17947  20485795.639    20485801.9684
  24341449.026    -3597046.157 7  -2789320.38745  24341449.276    24341462.9074
 01  7 14 18 44 30.0000000  0  9 14 03 23 21 18 17 31 15 29
  23446259.645   -11141795.406 8  -8663205.44845  23446259.343    23446267.4064
  21407987.084   -21073143.733 9 -16391936.52847  21407986.999    21407993.2914
  21716555.825     2456341.367 9   1911860.63947  21716555.482    21716561.6984
  21225195.536   -20673550.087 9 -16100160.45347  21225195.273    21225201.6964
  20515908.442    -9596292.467 9  -7475061.55147  20515908.262    20515913.0934
  21333672.093     2865196.184 8   2227448.50447  21333671.737    21333678.2434
  23618469.772    -9626062.412 8  -7476426.13545  23618469.664    23618477.6914
  20491173.578    -5384691.808 9  -4198107.45047  20491173.106    20491179.4294
  24320398.244    -3707665.753 7  -2875516.91145  24320398.610    24320411.9314
 01  7 14 18 45  0.0000000  0  9 14 03 23 21 18 17 31 15 29
  23425205.788   -11252433.203 8  -8749416.56145  23425205.488    23425213.5224
  21401307.516   -21108244.742 9 -16419287.94647  21401307.453    21401313.7694
  21727787.517     2515364.692 9   1957852.79447  21727787.176    21727793.5794
  21218666.708   -20707859.207 9 -16126894.81047  21218666.453    21218672.9154
  20522425.931    -9562042.782 9  -7448373.49447  20522425.770    20522430.5634
  21343467.950     2916674.526 8   2267561.46247  21343467.655    21343474.3474
  23601603.812    -9714693.051 8  -7545488.88545  23601603.759    23601611.7964
  20496614.959    -5356097.048 9  -4175825.82847  20496614.519    20496620.8544
  24299356.406    -3818238.896 7  -2961677.25545  24299356.776    24299370.0304
 01  7 14 18 45 30.0000000  0  9 14 03 23 21 18 17 31 15 29
  23404180.363   -11362921.176 8  -8835510.92245  23404180.064    23404188.0814
  21394731.521   -21142801.911 9 -16446215.59947  21394731.446    21394737.7864
  21739053.310     2574566.400 9   2003984.00647  21739053.026    21739059.2324
  21212192.190   -20741882.777 9 -16153406.66347  21212191.935    21212198.4394
  20529008.457    -9527451.700 9  -7421419.41848  20529008.273    20529013.1014
  21353319.388     2968443.905 8   2307901.23747  21353319.125    21353325.7284
  23584800.709    -9802994.211 8  -7614294.91045  23584800.572    23584808.5124
  20502119.951    -5327168.191 9  -4153283.87147  20502119.498    20502125.8314
  24278323.586    -3928765.105 7  -3047801.02945  24278323.957    24278336.9194
 01  7 14 18 46  0.0000000  0  9 14 03 23 21 18 17 31 15 29
  23383183.894   -11473257.094 8  -8921486.80345  23383183.689    23383191.6824
  21388259.121   -21176814.197 9 -16472718.66147  21388259.046    21388265.4304
  21750352.593     2633944.542 8   2050252.64647  21750352.274    21750358.6704
  21205771.995   -20775621.076 9 -16179696.23147  21205771.740    21205778.2344
  20535655.503    -9492521.342 9  -7394200.96247  20535655.302    20535660.0944
  21363226.142     3020504.087 8   2348467.57647  21363225.866    21363232.6144
  23568060.598    -9890963.890 8  -7682842.62445  23568060.491    23568068.2614
  20507688.442    -5297905.296 9  -4130481.62947  20507688.013    20507694.2494
  24257299.945    -4039242.385 7  -3133886.68645  24257300.143    24257312.7784
 01  7 14 18 46 30.0000000  0  9 14 03 23 21 18 17 31 15 29
  23362217.260   -11583436.945 8  -9007341.07145  23362217.034    23362224.9484
  21381890.876   -21210279.373 9 -16498795.40947  21381890.825    21381897.2334
  21761685.341     2693498.554 9   2096658.35047  21761685.049    21761691.4144
  21199406.181   -20809073.447 9 -16205762.99647  21199405.927    21199412.4184
  20542366.978    -9457252.207 9  -7366718.53148  20542366.805    20542371.6054
  21373188.399     3072856.055 8   2389261.27947  21373188.090    21373194.9634
  23551384.397    -9978598.320 8  -7751129.10145  23551384.216    23551391.9834
  20513320.756    -5268307.156 9  -4107418.15247  20513320.334    20513326.5324
  24236286.321    -4149667.598 7  -3219931.78545  24236286.599    24236298.9874
 01  7 14 18 47  0.0000000  0  9 14 03 23 21 18 17 31 15 29
  23341280.856   -11693458.075 8  -9093071.67245  23341280.627    23341288.4674
  21375627.096   -21243195.972 9 -16524444.69447  21375627.031    21375633.3814
  21773051.457     2753227.012 8   2143200.00447  21773051.111    21773057.3974
  21193094.742   -20842240.238 9 -16231607.23547  21193094.496    21193100.9624
  20549142.723    -9421645.531 9  -7338973.08148  20549142.564    20549147.3494
  21383206.312     3125499.863 8   2430282.41447  21383205.975    21383212.7614
  23534772.368   -10065894.916 8  -7819152.32945  23534772.185    23534779.9734
  20519016.937    -5238373.672 9  -4084093.37947  20519016.520    20519022.7044
  24215283.055    -4260037.903 7  -3305934.10345  24215283.399    24215295.7574
 01  7 14 18 47 30.0000000  0  9 14 03 23 21 18 17 31 15 29
  23320374.877   -11803319.114 8  -9178677.52645  23320374.611    23320382.4044
  21369467.671   -21275563.875 9 -16549666.42347  21369467.606    21369473.9604
  21784449.922     2813127.440 9   2189875.61747  21784449.649    21784456.0654
  21186837.367   -20875122.904 9 -16257230.07547  21186837.108    21186843.6004
  20555982.135    -9385704.333 9  -7310966.96848  20555981.960    20555986.7574
  21393279.364     3178434.272 8   2471530.00247  21393279.091    21393285.7034
  23518224.941   -10152852.280 8  -7886911.24045  23518224.742    23518232.5834
  20524776.812    -5208105.762 9  -4060508.00547  20524776.363    20524782.5554
  24194290.654    -4370352.312 7  -3391892.89145  24194290.912    24194303.0924
 01  7 14 18 48  0.0000000  0  9 14 03 23 21 18 17 31 15 29
  23299500.231   -11913015.543 8  -9264155.11145  23299499.952    23299507.7354
  21363413.201   -21307380.319 9 -16574458.44547  21363413.147    21363419.4844
  21795881.489     2873199.751 9   2236685.19247  21795881.165    21795887.5344
  21180634.194   -20907720.512 9 -16282630.79747  21180633.962    21180640.4784
  20562885.236    -9349428.430 9  -7282700.04348  20562885.041    20562889.8754
  21403407.937     3231661.113 8   2513005.43446  21403407.689    21403414.2364
  23501742.807   -10239465.984 8  -7954402.36645  23501742.532    23501750.4114
  20530600.554    -5177501.590 9  -4036660.61747  20530600.081    20530606.3344
  24173309.677    -4480606.651 7  -3477804.85145  24173309.886    24173321.9384
 01  7 14 18 48 30.0000000  0  9 14 03 23 21 18 17 31 15 29
  23278657.113   -12022546.102 8  -9349503.45445  23278656.812    23278664.6384
  21357463.652   -21338645.591 9 -16598820.98747  21357463.546    21357469.8424
  21807344.980     2933440.985 8   2283626.41147  21807344.630    21807350.9374
  21174485.004   -20940034.829 9 -16307810.76947  21174484.759    21174491.2404
  20569851.431    -9312820.716 9  -7254174.56547  20569851.258    20569856.0464
  21413592.047     3285178.802 8   2554707.48547  21413591.699    21413598.4594
  23485326.325   -10325735.065 8  -8021624.95945  23485325.937    23485333.8164
  20536488.107    -5146562.354 9  -4012552.14047  20536487.675    20536493.9384
  24152340.488    -4590800.078 7  -3563669.41145  24152340.513    24152352.3444
 01  7 14 18 49  0.0000000  0  9 14 03 23 21 18 17 31 15 29
  23257846.456   -12131906.116 8  -9434718.89845  23257846.158    23257854.0444
  21351619.599   -21369356.172 9 -16622751.29647  21351619.492    21351625.7964
  21818840.786     2993851.968 9   2330699.87347  21818840.531    21818846.8544
  21168390.010   -20972064.159 9 -16332768.67947  21168389.779    21168396.2394
  20576880.928    -9275880.682 9  -7225390.13448  20576880.732    20576885.5174
  21423831.950     3338989.462 8   2596637.83947  21423831.699    21423838.4224
  23468976.295   -10411654.734 8  -8088575.28645  23468975.976    23468983.7554
  20542439.924    -5115285.564 9  -3988180.63047  20542439.475    20542445.7744
  24131383.597    -4700927.991 7  -3649482.93345  24131383.661    24131395.3124
 01  7 14 18 49 30.0000000  0  9 14 03 23 21 18 17 31 15 29
  23237068.374   -12241095.087 8  -9519801.05145  23237068.072    23237075.9844
  21345880.904   -21399513.251 9 -16646250.30747  21345880.784    21345887.1094
  21830368.321     3054428.879 8   2377902.63247  21830367.931    21830374.3304
  21162348.797   -21003810.842 9 -16357506.34347  21162348.561    21162355.0544
  20583972.867    -9238612.410 9  -7196349.93147  20583972.692    20583977.4204
  21434127.327     3393090.762 8   2638794.66847  21434127.052    21434133.7814
  23452692.719   -10497224.860 8  -8155253.24545  23452692.418    23452700.2334
  20548455.451    -5083673.574 9  -3963547.93247  20548455.011    20548461.3524
  24110438.983    -4810990.362 7  -3735245.37045  24110439.181    24110450.7614
 01  7 14 18 50  0.0000000  0  9 14 03 23 21 18 17 31 15 29
  23216323.490   -12350109.839 8  -9604747.46246  23216323.184    23216331.0704
  21340247.787   -21429115.183 9 -16669316.73847  21340247.664    21340254.0354
  21841926.960     3115170.698 9   2425233.90747  21841926.718    21841933.0364
  21156361.286   -21035275.273 9 -16382024.07047  21156361.066    21156367.5374
  20591127.143    -9201016.602 9  -7167054.51247  20591126.939    20591131.7604
  21444477.871     3447483.177 8   2681178.35647  21444477.518    21444484.0814
  23436476.276   -10582442.627 8  -8221656.63145  23436476.015    23436483.7844
  20554534.932    -5051725.870 9  -3938653.64047  20554534.482    20554540.7884
  24089507.496    -4920984.162 7  -3820954.41045  24089507.712    24089519.2784
 01  7 14 18 50 30.0000000  0  9 14 03 23 21 18 17 31 15 29
  23195612.624   -12458945.924 8  -9689554.64446  23195612.272    23195620.0954
  21334720.940   -21458158.777 9 -16691948.10047  21334720.850    21334727.1934
  21853517.354     3176077.912 9   2472694.06747  21853517.035    21853523.3824
  21150427.923   -21066455.556 9 -16406320.37547  21150427.664    21150434.1174
  20598343.704    -9163093.234 9  -7137503.83347  20598343.494    20598348.2564
  21454883.848     3502168.650 8   2723790.38746  21454883.614    21454890.2974
  23420327.729   -10667303.232 8  -8287781.70745  23420327.465    23420335.1664
  20560678.674    -5019440.136 9  -3913495.93947  20560678.209    20560684.5504
  24068589.917    -5030905.128 7  -3906606.72045  24068590.132    24068601.4074
 01  7 14 18 51  0.0000000  0  9 14 03 23 21 18 17 31 15 29
  23174935.953   -12567601.634 8  -9774221.28246  23174935.656    23174943.4994
  21329300.358   -21486644.084 9 -16714144.43647  21329300.303    21329306.6214
  21865138.460     3237147.904 9   2520281.01047  21865138.129    21865144.7284
  21144548.181   -21097353.376 9 -16430396.58847  21144547.944    21144554.4264
  20605622.063    -9124845.021 9  -7107700.05047  20605621.885    20605626.7124
  21465345.596     3557145.911 8   2766629.78847  21465345.420    21465352.1274
  23404247.351   -10751805.508 8  -8353627.57945  23404247.176    23404254.8584
  20566886.510    -4986817.520 9  -3888075.74047  20566886.091    20566892.4744
  24047686.511    -5140752.150 7  -3992201.40845  24047686.644    24047697.7944
 01  7 14 18 51 30.0000000  0  9 14 03 23 21 18 17 31 15 29
  23154294.118   -12676074.568 8  -9858745.50546  23154293.905    23154301.6334
  21323986.133   -21514570.339 9 -16735905.14647  21323986.062    21323992.4354
  21876790.383     3298378.689 9   2567993.32547  21876790.073    21876796.4514
  21138722.089   -21127969.471 9 -16454253.27447  21138721.887    21138728.4054
  20612962.006    -9086273.546 9  -7077644.36547  20612961.833    20612966.5884
  21475863.093     3612414.624 8   2809696.26947  21475862.810    21475869.6954
  23388235.828   -10835947.025 8  -8419192.36745  23388235.601    23388243.1934
  20573158.486    -4953858.362 9  -3862393.29847  20573158.069    20573164.4304
  24026797.624    -5250523.084 8  -4077736.82945  24026797.705    24026808.6344
 01  7 14 18 52  0.0000000  0  9 14 03 23 21 18 17 31 15 29
  23133687.689   -12784361.675 8  -9943124.92446  23133687.461    23133695.1454
  21318778.603   -21541935.842 9 -16757228.90647  21318778.567    21318784.9514
  21888472.697     3359769.553 8   2615830.32647  21888472.366    21888478.8054
  21132949.691   -21158303.797 9 -16477890.39447  21132949.454    21132955.9384
  20620363.251    -9047379.880 9  -7047337.62647  20620363.050    20620367.8404
  21486435.950     3667975.380 8   2852990.35147  21486435.691    21486442.5674
  23372293.447   -10919724.658 8  -8484473.56645  23372293.268    23372300.7264
  20579494.657    -4920561.867 9  -3836447.99547  20579494.222    20579500.5134
  24005923.747    -5360214.904 8  -4163210.60645  24005923.626    24005934.5014
 01  7 14 18 52 30.0000000  0  9 14 03 23 21 18 17 31 15 29
  23113116.903   -12892460.911 8 -10027357.95946  23113116.733    23113124.3704
  21313677.864   -21568740.549 9 -16778115.68747  21313677.828    21313684.1934
  21900185.037     3421318.029 8   2663790.14847  21900184.698    21900191.1514
  21127230.714   -21188357.268 9 -16501308.66947  21127230.463    21127236.9294
  20627825.297    -9008166.526 9  -7016781.77647  20627825.104    20627829.8904
  21497064.058     3723827.214 8   2896511.21246  21497063.793    21497070.8514
  23356420.607   -11003136.787 8  -8549469.97945  23356420.407    23356427.8734
  20585894.913    -4886928.672 9  -3810240.32847  20585894.482    20585900.7134
  23985065.064    -5469826.191 7  -4248621.62545  23985064.906    23985075.8074
 01  7 14 18 53  0.0000000  0  9 14 03 23 21 18 17 31 15 29
  23092583.046   -13000366.601 8 -10111440.18046  23092582.868    23092590.4724
  21308684.601   -21594980.475 9 -16798562.37647  21308684.545    21308690.8954
  21911927.618     3483025.800 8   2711874.13247  21911927.299    21911933.5804
  21121565.553   -21218127.666 9 -16524506.36447  21121565.335    21121571.8134
  20635348.424    -8968631.963 9  -6985975.63347  20635348.246    20635353.1154
  21507748.089     3779972.974 8   2940261.11546  21507747.876    21507754.9424
  23340618.193   -11086178.132 8  -8614177.46945  23340618.057    23340625.5284
  20592359.873    -4852955.760 9  -3783767.94347  20592359.396    20592365.6224
  23964222.754    -5579351.504 7  -4333965.67345  23964222.475    23964233.3394
 01  7 14 18 53 30.0000000  0  9 14 03 23 21 18 17 31 15 29
  23072085.696   -13108080.279 8 -10195372.77546  23072085.438    23072093.1024
  21303798.147   -21620658.802 9 -16818571.45747  21303798.098    21303804.4624
  21923699.443     3544887.075 9   2760077.68947  21923699.149    21923705.5444
  21115953.350   -21247619.971 9 -16547487.36447  21115953.110    21115959.5924
  20642931.659    -8928781.868 9  -6954923.61747  20642931.486    20642936.2924
  21518487.625     3836408.300 8   2984236.69247  21518487.390    21518494.2854
  23324886.209   -11168850.428 8  -8678597.37845  23324886.008    23324893.4334
  20598888.522    -4818647.201 9  -3757034.02047  20598888.096    20598894.3874
  23943396.131    -5688792.615 7  -4419244.13745  23943396.232    23943407.0224
 01  7 14 18 54  0.0000000  0  9 14 03 23 21 18 17 31 15 29
  23051625.817   -13215596.714 8 -10279151.69146  23051625.593    23051633.1894
  21299019.333   -21645772.018 9 -16838140.19247  21299019.236    21299025.5594
  21935500.732     3606903.053 9   2808401.79247  21935500.478    21935506.9474
  21110394.686   -21276831.051 9 -16570249.23247  21110394.438    21110400.9234
  20650575.110    -8888615.475 9  -6923625.14547  20650574.895    20650579.7604
  21529282.724     3893135.990 8   3028440.04647  21529282.418    21529289.4344
  23309225.341   -11251148.591 8  -8742725.74745  23309225.080    23309232.6234
  20605481.643    -4784000.418 9  -3730036.53847  20605481.182    20605487.5274
  23922586.617    -5798144.590 7  -4504453.14145  23922586.829    23922597.6544
 01  7 14 18 54 30.0000000  0  9 14 03 23 21 18 17 31 15 29
  23031203.896   -13322913.469 8 -10362775.01146  23031203.760    23031211.4004
  21294348.150   -21670319.030 9 -16857267.73147  21294348.080    21294354.4024
  21947331.130     3669072.283 8   2856845.33147  21947330.819    21947337.3014
  21104889.273   -21305762.073 9 -16592792.87247  21104889.039    21104895.5094
  20658278.395    -8848134.468 9  -6892081.51247  20658278.212    20658282.9934
  21540133.216     3950155.764 8   3072870.99947  21540132.917    21540140.0194
  23293636.092   -11333070.011 8  -8806560.56745  23293635.892    23293643.4814
  20612139.137    -4749015.130 9  -3702775.29747  20612138.663    20612145.0304
  23901794.719    -5907405.236 7  -4589590.99045  23901794.872    23901805.7864
 01  7 14 18 55  0.0000000  0  9 14 03 23 21 18 17 31 15 29
  23010820.722   -13430026.818 8 -10446239.83846  23010820.631    23010828.2904
  21289785.086   -21694297.993 9 -16875952.63747  21289784.999    21289791.3394
  21959190.680     3731394.480 9   2905408.05247  21959190.369    21959196.7804
  21099437.293   -21334412.323 9 -16615117.72947  21099437.064    21099443.5044
  20666041.438    -8807339.374 9  -6860293.13947  20666041.257    20666046.0994
  21551039.440     4007468.529 8   3117530.23746  21551039.156    21551046.4324
  23278119.205   -11414611.237 8  -8870099.13045  23278119.074    23278126.6214
  20618861.211    -4713690.328 9  -3675249.49647  20618860.770    20618867.1404
  23881020.928    -6016570.865 7  -4674654.80945  23881020.915    23881031.7824
 01  7 14 18 55 30.0000000  0  9 14 03 23 21 18 17 31 15 29
  22990476.227   -13536937.561 8 -10529546.79546  22990476.045    22990483.7534
  21285329.654   -21717711.402 9 -16894196.85347  21285329.593    21285335.9214
  21971078.487     3793864.587 9   2954086.05547  21971078.179    21971084.5394
  21094037.976   -21362785.859 9 -16637226.96747  21094037.742    21094044.1884
  20673863.270    -8766235.293 9  -6828264.00147  20673863.092    20673868.0014
  21562000.779     4065070.704 8   3162415.03946  21562000.537    21562007.4454
  23262674.616   -11495773.352 8  -8933342.25745  23262674.347    23262681.9874
  20625647.274    -4678029.384 9  -3647461.76847  20625646.822    20625653.2134
  23860264.920    -6125642.746 8  -4759645.57945  23860265.002    23860275.7134
 01  7 14 18 56  0.0000000  0  9 14 03 23 21 18 17 31 15 29
  22970171.334   -13643640.276 8 -10612691.64546  22970171.181    22970178.8014
  21280982.605   -21740555.457 9 -16911997.42047  21280982.532    21280988.8594
  21982994.430     3856484.004 8   3002880.32547  21982994.080    21983000.7874
  21088691.671   -21390880.644 9 -16659118.99647  21088691.443    21088697.8824
  20681744.122    -8724820.991 9  -6795993.12747  20681743.966    20681748.8584
  21573017.897     4122964.918 8   3207527.41346  21573017.581    21573024.3014
  23247303.099   -11576551.012 8  -8996285.83445  23247302.887    23247310.4274
  20632497.794    -4642029.549 9  -3619409.96547  20632497.349    20632503.7904
  23839527.812    -6234615.539 7  -4844559.15645  23839527.979    23839538.5254
 01  7 14 18 56 30.0000000  0  9 14 03 23 21 18 17 31 15 29
  22949906.478   -13750133.570 8 -10695673.32346  22949906.221    22949913.6844
  21276743.771   -21762830.574 9 -16929354.65047  21276743.697    21276750.0544
  21994938.396     3919249.953 8   3051788.86347  21994938.081    21994944.5934
  21083398.202   -21418698.199 9 -16680794.99747  21083397.977    21083404.3664
  20689683.573    -8683099.072 9  -6763482.55047  20689683.420    20689688.2974
  21584090.123     4181150.030 8   3252866.42746  21584089.786    21584096.6674
  23232005.084   -11656942.934 8  -9058928.82345  23232004.769    23232012.3274
  20639412.564    -4605691.882 9  -3591094.91647  20639412.123    20639418.5994
  23818809.771    -6343488.275 7  -4929394.76645  23818809.822    23818820.4184
 01  7 14 18 57  0.0000000  0  9 14 03 23 21 18 17 31 15 29
  22929682.227   -13856412.454 8 -10778487.92346  22929681.952    22929689.3244
  21272613.803   -21784533.687 9 -16946266.16647  21272613.726    21272620.0714
  22006910.460     3982163.402 8   3100812.34047  22006910.103    22006916.5514
  21078157.839   -21446236.506 9 -16702253.40947  21078157.585    21078163.9974
  20697681.602    -8641069.156 9  -6730731.98647  20697681.433    20697686.3644
  21595217.841     4239627.947 8   3298433.55146  21595217.582    21595224.8334
  23216781.191   -11736944.472 8  -9121267.60145  23216780.956    23216788.5494
  20646392.135    -4569013.925 9  -3562514.70847  20646391.711    20646398.1534
  23798111.575    -6452256.383 8  -5014148.87345  23798111.790    23798122.2434
 01  7 14 18 57 30.0000000  0  9 14 03 23 21 18 17 31 15 29
  22909498.742   -13962476.670 8 -10861135.26346  22909498.525    22909505.8144
  21268592.329   -21805666.651 9 -16962733.41347  21268592.240    21268598.5644
  22018909.679     4045220.227 8   3149947.44547  22018909.366    22018916.1734
  21072969.924   -21473498.972 9 -16723496.88047  21072969.697    21072976.1044
  20705737.462    -8598735.346 9  -6697744.60747  20705737.296    20705742.1854
  21606401.199     4298396.003 8   3344226.79747  21606400.919    21606408.1844
  23201631.625   -11816555.749 8  -9183302.29145  23201631.435    23201638.9374
  20653435.992    -4531998.553 9  -3533671.57247  20653435.544    20653441.9444
  23777433.393    -6560919.974 8  -5098821.53345  23777433.556    23777443.9624
 01  7 14 18 58  0.0000000  0  9 14 03 23 21 18 17 31 15 29
  22889356.555   -14068323.554 8 -10943613.26346  22889356.479    22889363.6854
  21264679.548   -21826228.413 9 -16978755.57147  21264679.489    21264685.7824
  22030936.146     4108419.328 9   3199193.45147  22030935.830    22030942.6544
  21067834.582   -21500485.491 9 -16744525.32747  21067834.322    21067840.7164
  20713850.834    -8556098.997 9  -6664521.49547  20713850.739    20713855.7064
  21617639.836     4357454.340 8   3390246.28246  21617639.519    21617646.4294
  23186556.898   -11895774.087 8  -9245030.79646  23186556.641    23186564.1744
  20660544.038    -4494645.455 9  -3504565.29147  20660543.583    20660550.0104
  23756775.699    -6669476.462 8  -5183410.74545  23756775.846    23756786.0094
 01  7 14 18 58 30.0000000  0  9 14 03 23 21 18 17 31 15 29
  22869256.427   -14173950.137 8 -11025919.59046  22869256.253    22869263.5184
  21260875.716   -21846217.541 9 -16994331.51947  21260875.672    21260881.9574
  22042989.582     4171759.874 8   3248549.73747  22042989.226    22042995.7044
  21062751.680   -21527196.062 9 -16765338.75247  21062751.451    21062757.8634
  20722021.681    -8513161.146 9  -6631063.44247  20722021.533    20722026.4864
  21628933.736     4416803.302 8   3436492.22346  21628933.401    21628940.0144
  23171557.510   -11974596.590 8  -9306450.86546  23171557.185    23171564.6804
  20667716.453    -4456953.946 9  -3475195.30047  20667716.018    20667722.4014
  23736138.923    -6777923.105 8  -5267914.37045  23736139.123    23736149.0594
 01  7 14 18 59  0.0000000  0  9 14 03 23 21 18 17 31 15 29
  22849199.261   -14279350.827 8 -11108049.90846  22849199.119    22849206.3414
  21257181.530   -21865630.547 9 -17009458.53847  21257181.490    21257187.8324
  22055070.041     4235243.268 8   3298017.27847  22055069.663    22055076.2794
  21057721.735   -21553628.324 9 -16785935.31547  21057721.543    21057727.9624
  20730250.159    -8469920.543 9  -6597369.47647  20730249.987    20730254.9134
  21640283.110     4476445.651 8   3482966.76846  21640282.794    21640289.4364
  23156634.315   -12053018.175 8  -9367558.53046  23156633.946    23156641.3844
  20674953.795    -4418921.215 9  -3445559.42247  20674953.397    20674959.7504
  23715524.072    -6886254.507 8  -5352328.19445  23715524.185    23715534.0244
 01  7 14 18 59 30.0000000  0  9 14 03 23 21 18 17 31 15 29
  22829185.465   -14384524.079 8 -11190003.00046  22829185.244    22829192.4394
  21253596.883   -21884468.025 9 -17024137.09347  21253596.871    21253603.1914
  22067177.141     4298866.889 8   3347594.06647  22067176.891    22067183.6254
  21052744.425   -21579784.339 9 -16806316.61747  21052744.218    21052750.6214
  20738535.646    -8426379.921 9  -6563441.74247  20738535.511    20738540.4684
  21651688.043     4536379.881 8   3529668.71746  21651687.819    21651694.8084
  23141787.626   -12131037.468 8  -9428352.72946  23141787.294    23141794.6924
  20682255.914    -4380548.575 9  -3415658.67847  20682255.512    20682261.8284
  23694931.311    -6994469.566 7  -5436651.37045  23694931.431    23694941.1604
 01  7 14 19  0  0.0000000  0  9 14 03 23 21 18 17 31 15 29
  22809215.438   -14489466.717 8 -11271776.39446  22809215.239    22809222.4004
  21250122.042   -21902728.518 9 -17038366.04947  21250122.007    21250128.3094
  22079310.973     4362629.914 9   3397279.52547  22079310.731    22079317.3724
  21047819.760   -21605663.532 9 -16826482.21347  21047819.518    21047825.9394
  20746878.057    -8382540.296 9  -6529281.00147  20746877.905    20746882.7954
  21663148.822     4596606.540 8   3576598.52147  21663148.634    21663155.8344
  23127018.125   -12208651.396 8  -9488831.04546  23127017.778    23127025.2764
  20689622.855    -4341835.092 9  -3385492.35147  20689622.442    20689628.8104
  23674361.132    -7102565.296 8  -5520881.57145  23674361.281    23674370.9654
 01  7 14 19  0 30.0000000  0  9 14 03 23 21 18 17 31 15 29
  22789289.254   -14594179.219 8 -11353370.46346  22789289.034    22789296.1834
  21246756.524   -21920414.415 9 -17052147.26947  21246756.487    21246762.8344
  22091470.409     4426527.975 8   3447070.23147  22091470.094    22091476.5104
  21042947.003   -21631269.891 9 -16846435.21347  21042946.801    21042953.2254
  20755276.514    -8338406.333 9  -6494890.91347  20755276.361    20755281.2764
  21674664.893     4657122.379 8   3623753.71147  21674664.622    21674671.6044
  23112325.705   -12285860.774 8  -9548994.12746  23112325.260    23112332.7424
  20697054.178    -4302783.694 9  -3355062.70847  20697053.738    20697060.0614
  23653813.712    -7210542.333 8  -5605019.28445  23653813.766    23653823.3554
 01  7 14 19  1  0.0000000  0  9 14 03 23 21 18 17 31 15 29
  22769407.581   -14698657.508 8 -11434782.02246  22769407.358    22769414.5354
  21243500.728   -21937523.829 9 -17065479.28047  21243500.680    21243507.0334
  22103655.529     4490561.049 8   3496966.10847  22103655.248    22103661.7394
  21038126.395   -21656602.409 9 -16866174.83047  21038126.178    21038132.5844
  20763730.850    -8293978.458 9  -6460271.79847  20763730.738    20763735.5724
  21686235.935     4717928.554 8   3671135.12246  21686235.691    21686242.6244
  23097710.782   -12362661.759 8  -9608838.99946  23097710.468    23097717.9684
  20704549.984    -4263393.235 9  -3324368.86347  20704549.539    20704555.8084
  23633289.397    -7318397.122 8  -5689061.75645  23633289.465    23633299.0154
 01  7 14 19  1 30.0000000  0  9 14 03 23 21 18 17 31 15 29
  22749571.086   -14802898.342 8 -11516008.56046  22749570.910    22749578.0264
  21240354.896   -21954055.281 9 -17078360.93547  21240354.818    21240361.2124
  22115866.184     4554728.397 8   3546966.57247  22115865.914    22115872.6264
  21033357.941   -21681660.763 9 -16885700.81247  21033357.700    21033364.1284
  20772241.096    -8249257.233 9  -6425424.10747  20772240.907    20772245.7934
  21697862.338     4779025.587 8   3718743.17446  21697862.004    21697868.9544
  23083174.369   -12439051.196 8  -9668363.17446  23083173.991    23083181.4464
  20712110.491    -4223663.079 9  -3293410.31547  20712110.005    20712116.2284
  23612789.022    -7426126.557 8  -5773006.56045  23612789.086    23612798.5824
 01  7 14 19  2  0.0000000  0  9 14 03 23 21 18 17 31 15 29
  22729780.284   -14906899.188 8 -11597048.09346  22729780.131    22729787.1614
  21237319.152   -21970008.208 9 -17090791.79547  21237319.070    21237325.4604
  22128102.161     4619028.711 8   3597070.67347  22128101.883    22128108.6074
  21028641.491   -21706445.901 9 -16905013.90047  21028641.255    21028647.6954
  20780806.721    -8204244.464 9  -6390349.23147  20780806.567    20780811.4044
  21709543.599     4840413.252 8   3766577.68046  21709543.386    21709550.4944
  23068716.582   -12515026.928 8  -9727564.99546  23068716.180    23068723.6354
  20719735.429    -4183593.183 9  -3262187.04647  20719734.966    20719741.3254
  23592312.908    -7533728.162 7  -5856851.76545  23592313.052    23592322.5594
 01  7 14 19  2 30.0000000  0  9 14 03 23 21 18 17 31 15 29
  22710035.702   -15010657.333 8 -11677898.51246  22710035.519    22710042.5014
  21234393.636   -21985381.896 9 -17102771.29447  21234393.555    21234399.9184
  22140363.112     4683460.690 8   3647277.42747  22140362.796    22140369.3954
  21023977.081   -21730957.556 9 -16924113.87747  21023976.824    21023983.2524
  20789427.603    -8158941.579 9  -6355048.29247  20789427.449    20789432.2724
  21721280.761     4902091.417 8   3814638.56646  21721280.560    21721287.6214
  23054337.928   -12590586.467 8  -9786442.48946  23054337.634    23054345.1484
  20727425.174    -4143183.431 9  -3230698.93847  20727424.722    20727431.0854
  23571861.443    -7641199.643 8  -5940595.56545  23571861.631    23571871.2014
 01  7 14 19  3  0.0000000  0  9 14 03 23 21 18 17 31 15 29
  22690337.942   -15114169.526 8 -11758557.27946  22690337.796    22690344.7174
  21231578.556   -22000175.255 9 -17114298.59347  21231578.474    21231584.8584
  22152648.961     4748023.697 8   3697586.21047  22152648.740    22152655.3864
  21019364.614   -21755195.903 9 -16943000.89647  21019364.387    21019370.8014
  20798103.477    -8113349.578 9  -6319522.07147  20798103.313    20798108.1684
  21733073.289     4964060.594 8   3862926.19547  21733073.017    21733080.0774
  23040039.109   -12665726.848 8  -9844993.38746  23040038.813    23040046.3404
  20735179.690    -4102433.410 9  -3198945.69147  20735179.224    20735185.5704
  23551435.324    -7748538.019 8  -6024235.66845  23551435.541    23551445.1674
 01  7 14 19  3 30.0000000  0  9 14 03 23 21 18 17 31 15 29
  22670687.203   -15217434.455 8 -11839023.38246  22670687.080    22670693.9274
  21228873.855   -22014388.744 9 -17125374.04747  21228873.777    21228880.1504
  22164959.507     4812715.215 9   3747995.14047  22164959.258    22164965.9764
  21014803.828   -21779162.925 9 -16961676.48847  21014803.604    21014810.0224
  20806833.807    -8067471.249 9  -6283772.73847  20806833.659    20806838.5294
  21744920.846     5026319.368 8   3911439.48247  21744920.624    21744927.6574
  23025820.347   -12740446.816 8  -9903216.70846  23025820.026    23025827.4924
  20742998.666    -4061344.201 9  -3166928.14647  20742998.241    20743004.5594
  23531034.968    -7855742.010 8  -6107771.06145  23531035.174    23531044.7414
 01  7 14 19  4  0.0000000  0  9 14 03 23 21 18 17 31 15 29
  22651084.131   -15320449.116 8 -11919294.46346  22651084.001    22651090.8354
  21226279.624   -22028021.588 9 -17135997.04847  21226279.562    21226285.8944
  22177294.345     4877534.306 8   3798503.49347  22177293.950    22177300.6834
  21010294.645   -21802858.918 9 -16980140.88947  21010294.446    21010300.8384
  20815618.512    -8021307.855 9  -6247801.27547  20815618.288    20815623.1644
  21756823.429     5088867.731 8   3960178.40246  21756823.115    21756830.4224
  23011682.001   -12814743.898 8  -9961110.48846  23011681.664    23011689.1354
  20750882.370    -4019915.518 9  -3134646.06947  20750881.933    20750888.1994
  23510660.692    -7962808.939 8  -6191199.66145  23510660.848    23510670.3374
 01  7 14 19  4 30.0000000  0  9 14 03 23 21 18 17 31 15 29
  22631529.337   -15423210.076 8 -11999367.86246  22631529.189    22631536.0074
  21223796.149   -22041072.409 9 -17146166.52747  21223796.072    21223802.4074
  22189652.967     4942480.373 8   3849110.79747  22189652.713    22189659.3444
  21005837.130   -21826283.352 9 -16998393.68847  21005836.922    21005843.2834
  20824457.188    -7974860.051 9  -6211608.18647  20824457.028    20824461.8774
  21768781.049     5151706.526 8   4009143.64646  21768780.856    21768788.1734
  22997624.910   -12888614.708 8 -10018672.11746  22997624.606    22997631.9034
  20758830.868    -3978146.404 9  -3102098.71547  20758830.351    20758836.5944
  23490313.080    -8069735.847 8  -6274519.15445  23490313.195    23490322.6224
 01  7 14 19  5  0.0000000  0  9 14 03 23 21 18 17 31 15 29
  22612023.255   -15525714.985 8 -12079241.73246  22612023.142    22612029.8914
  21221423.421   -22053541.286 9 -17155882.53847  21221423.354    21221429.6884
  22202035.755     5007551.583 8   3899815.61247  22202035.471    22202042.0314
  21001431.069   -21849437.248 9 -17016435.67947  21001430.852    21001437.2664
  20833349.651    -7928129.962 9  -6175195.14547  20833349.442    20833354.3434
  21780794.221     5214834.950 8   4058334.65246  21780793.910    21780800.7074
  22983649.143   -12962057.560 8 -10075900.26646  22983648.831    22983656.1254
  20766843.807    -3936037.536 9  -3069286.62747  20766843.344    20766849.6254
  23469992.544    -8176520.382 8  -6357727.70145  23469992.643    23470001.8904
 01  7 14 19  5 30.0000000  0  9 14 03 23 21 18 17 31 15 29
  22592566.434   -15627961.404 8 -12158914.18146  22592566.251    22592572.9334
  21219161.506   -22065427.821 9 -17165144.77747  21219161.400    21219167.7454
  22214442.092     5072746.816 8   3950617.05547  22214441.772    22214448.3244
  20997076.373   -21872321.402 9 -17034267.48347  20997076.147    20997082.5584
  20842295.534    -7881119.103 9  -6138563.31347  20842295.369    20842300.1934
  21792862.253     5278252.810 8   4107751.13746  21792862.025    21792868.8234
  22969755.184   -13035070.036 8 -10132793.05446  22969754.970    22969762.2364
  20774921.447    -3893588.858 9  -3036209.75547  20774921.022    20774927.4024
  23449699.553    -8283160.542 8  -6440823.75345  23449699.461    23449708.7524
 01  7 14 19  6  0.0000000  0  9 14 03 23 21 18 17 31 15 29
  22573159.206   -15729946.910 8 -12238383.32746  22573159.028    22573165.6604
  21217010.517   -22076731.468 9 -17173952.81747  21217010.429    21217016.7374
  22226871.511     5138064.484 8   4001513.91547  22226871.208    22226877.8194
  20992772.921   -21894936.122 9 -17051889.33947  20992772.686    20992779.0794
  20851294.567    -7833828.964 9  -6101713.86347  20851294.369    20851299.1974
  21804985.667     5341959.873 8   4157392.98247  21804985.353    21804992.0944
  22955943.675   -13107649.991 8 -10189348.81046  22955943.431    22955950.7344
  20783063.863    -3850800.581 9  -3002868.25147  20783063.415    20783069.8064
  23429434.429    -8389653.809 8  -6523805.35645  23429434.350    23429443.5794
 01  7 14 19  6 30.0000000  0  9 14 03 23 21 18 17 31 15 29
  22553802.250   -15831668.273 8 -12317646.63646  22553802.038    22553808.6224
  21214970.674   -22087451.071 9 -17182305.75447  21214970.601    21214976.8504
  22239324.150     5203503.990 8   4052505.67947  22239323.886    22239330.6114
  20988520.786   -21917281.267 9 -17069301.13347  20988520.560    20988526.9574
  20860346.489    -7786260.723 9  -6064647.71347  20860346.322    20860351.1654
  21817163.499     5405956.346 8   4207260.24146  21817163.213    21817170.5774
  22942215.121   -13179794.516 8 -10245565.28646  22942214.815    22942221.9524
  20791270.949    -3807672.021 9  -2969261.59447  20791270.513    20791276.9174
  23409197.723    -8495997.398 8  -6606670.31945  23409197.720    23409206.8804
 01  7 14 19  7  0.0000000  0  9 14 03 23 21 18 17 31 15 29
  22534495.995   -15933122.722 8 -12396701.97046  22534495.843    22534502.3884
  21213042.039   -22097586.346 9 -17190203.37447  21213041.947    21213048.1834
  22251800.089     5269064.192 8   4103591.55347  22251799.759    22251806.2864
  20984319.850   -21939357.260 9 -17086503.19847  20984319.628    20984326.0234
  20869451.074    -7738415.728 9  -6027365.90647  20869450.860    20869455.7354
  21829396.566     5470242.211 8   4257353.05046  21829396.393    21829403.9464
  22928569.747   -13251501.167 8 -10301440.55246  22928569.492    22928576.6274
  20799542.822    -3764203.087 9  -2935389.71747  20799542.416    20799548.8104
  23388990.060    -8602188.670 8  -6689416.60145  23388990.080    23388999.1744
 01  7 14 19  7 30.0000000  0  9 14 03 23 21 18 17 31 15 29
  22515240.997   -16034307.939 8 -12475547.51046  22515240.824    22515247.4274
  21211224.576   -22107137.194 9 -17197645.59147  21211224.475    21211230.7114
  22264298.439     5334743.471 8   4154770.18047  22264298.097    22264304.6744
  20980170.049   -21961164.751 9 -17103496.04147  20980169.821    20980176.1784
  20878607.990    -7690295.929 9  -5989869.96947  20878607.811    20878612.6784
  21841684.736     5534816.914 8   4307670.99146  21841684.536    21841691.6464
  22915008.144   -13322767.853 8 -10356972.97446  22915007.900    22915015.1154
  20807879.451    -3720393.922 9  -2901252.72047  20807878.965    20807885.4324
  23368811.703    -8708225.922 8  -6772042.87245  23368811.749    23368820.7654
 01  7 14 19  8  0.0000000  0  9 14 03 23 21 18 17 31 15 29
  22496037.793   -16135221.032 8 -12554181.01046  22496037.597    22496044.2124
  21209518.471   -22116102.725 9 -17204631.72347  21209518.366    21209524.6224
  22276819.166     5400541.190 8   4206041.06047  22276818.919    22276825.6694
  20976071.275   -21982703.863 9 -17120279.75847  20976071.038    20976077.3904
  20887817.048    -7641902.219 9  -5952160.59447  20887816.865    20887821.6874
  21854028.218     5599680.722 8   4358214.23546  21854028.031    21854034.6404
  22901530.794   -13393591.916 8 -10412160.50546  22901530.441    22901537.6594
  20816280.765    -3676244.231 9  -2866850.38647  20816280.349    20816286.8884
  23348663.210    -8814105.897 8  -6854546.58245  23348663.297    23348672.2614
 01  7 14 19  8 30.0000000  0  9 14 03 23 21 18 17 31 15 29
  22476886.879   -16235859.680 8 -12632600.65646  22476886.685    22476893.2154
  21207923.720   -22124483.065 9 -17211161.85947  21207923.650    21207929.8754
  22289362.521     5466455.675 8   4257402.99047  22289362.215    22289368.7974
  20972023.407   -22003975.663 9 -17136855.17947  20972023.151    20972029.5004
  20897077.787    -7593236.738 9  -5914239.45247  20897077.584    20897082.4124
  21866426.489     5664832.935 8   4408982.13646  21866426.179    21866432.9364
  22888137.846   -13463971.571 8 -10467001.75746  22888137.522    22888144.7474
  20824746.912    -3631754.440 9  -2832183.03347  20824746.518    20824753.0014
  23328544.932    -8919826.928 8  -6936926.43945  23328545.085    23328554.0214
 01  7 14 19  9  0.0000000  0  9 14 03 23 21 18 17 31 15 29
  22457788.796   -16336220.680 8 -12710803.94946  22457788.556    22457795.0654
  21206440.562   -22132277.282 9 -17217235.27747  21206440.487    21206446.7004
  22301927.802     5532486.160 8   4308855.32147  22301927.437    22301933.8964
  20968026.414   -22024980.152 9 -17153222.30747  20968026.168    20968032.4894
  20906390.088    -7544300.226 9  -5876107.11647  20906389.888    20906394.7124
  21878879.353     5730274.038 8   4459975.14146  21878879.137    21878885.9334
  22874830.086   -13533903.820 8 -10521494.37346  22874829.855    22874837.0434
  20833277.945    -3586924.123 9  -2797250.33747  20833277.502    20833283.9354
  23308457.638    -9025385.914 8  -7019180.03045  23308457.731    23308466.6234
 01  7 14 19  9 30.0000000  0  9 14 03 23 21 18 17 31 15 29
  22438743.903   -16436302.065 8 -12788789.37346  22438743.671    22438750.1794
  21205068.885   -22139485.565 9 -17222852.12447  21205068.776    21205075.0054
  22314514.550     5598631.105 8   4360396.76846  22314514.183    22314520.8404
  20964080.080   -22045718.218 9 -17169381.83047  20964079.829    20964086.1564
  20915753.602    -7495094.646 9  -5837765.11947  20915753.415    20915758.2334
  21891387.308     5796003.143 8   4511192.62246  21891387.038    21891393.7324
  22861607.827   -13603386.848 8 -10575636.93846  22861607.559    22861614.8234
  20841873.558    -3541753.806 9  -2762052.70647  20841873.101    20841879.6044
  23288401.627    -9130780.957 8  -7101305.87845  23288401.635    23288410.5254
 01  7 14 19 10  0.0000000  0  9 14 03 23 21 18 17 31 15 29
  22419752.769   -16536100.984 8 -12866554.68346  22419752.529    22419759.0084
  21203808.806   -22146107.218 9 -17228011.85347  21203808.709    21203814.9334
  22327123.178     5664889.558 8   4412026.72747  22327122.924    22327129.4834
  20960184.375   -22066190.252 9 -17185334.06047  20960184.116    20960190.4474
  20925167.972    -7445621.412 9  -5799214.57047  20925167.818    20925172.6734
  21903949.771     5862020.437 8   4562634.59946  21903949.531    21903956.5274
  22848471.584   -13672417.834 8 -10629427.26146  22848471.313    22848478.6834
  20850533.970    -3496243.234 9  -2726589.93047  20850533.506    20850539.9864
  23268377.218    -9236009.366 8  -7183301.88845  23268377.198    23268386.0384
 01  7 14 19 10 30.0000000  0  9 14 03 23 21 18 17 31 15 29
  22400815.695   -16635615.289 8 -12944098.22446  22400815.508    22400822.0324
  21202660.233   -22152142.828 9 -17232714.93147  21202660.134    21202666.3834
  22339753.174     5731259.731 8   4463743.69847  22339752.801    22339759.3804
  20956339.129   -22086397.016 9 -17201079.58047  20956338.879    20956345.2334
  20934633.058    -7395882.496 9  -5760456.98047  20934632.855    20934637.6714
  21916567.088     5928325.030 8   4614300.49746  21916566.896    21916573.9654
  22835421.784   -13740995.418 8 -10682864.30446  22835421.476    22835428.7714
  20859258.965    -3450392.844 9  -2690862.37747  20859258.496    20859265.0854
  23248384.773    -9341069.247 8  -7265166.58245  23248384.909    23248393.6424
 01  7 14 19 11  0.0000000  0  9 14 03 23 21 18 17 31 15 29
  22381933.414   -16734841.764 8 -13021417.48046  22381933.250    22381939.7754
  21201623.400   -22157591.330 9 -17236960.52547  21201623.312    21201629.6154
  22352404.102     5797740.906 8   4515547.14947  22352403.792    22352410.4454
  20952544.353   -22106338.799 9 -17216618.62547  20952544.126    20952550.4344
  20944148.446    -7345878.821 9  -5721493.09947  20944148.258    20944153.1014
  21929239.212     5994917.330 8   4666190.53346  21929238.914    21929246.2214
  22822458.676   -13809117.069 8 -10735946.06646  22822458.380    22822465.5704
  20868048.682    -3404202.418 9  -2654869.85647  20868048.240    20868054.8154
  23228424.978    -9445957.975 8  -7346897.91345  23228425.126    23228433.7314
 01  7 14 19 11 30.0000000  0  9 14 03 23 21 18 17 31 15 29
  22363106.311   -16833778.415 8 -13098510.89446  22363106.134    22363112.6894
  21200698.210   -22162452.997 9 -17240748.84347  21200698.142    21200704.4804
  22365075.936     5864331.639 8   4567436.01446  22365075.580    22365082.1874
  20948799.804   -22126016.449 9 -17231951.85147  20948799.578    20948805.8754
  20953713.870    -7295612.222 9  -5682324.33647  20953713.696    20953718.4824
  21941965.909     6061796.440 8   4718304.04746  21941965.692    21941973.1484
  22809582.744   -13876780.808 8 -10788671.01046  22809582.405    22809589.5064
  20876903.154    -3357672.377 9  -2618612.69247  20876902.701    20876909.1654
  23208498.302    -9550673.321 8  -7428494.14445  23208498.431    23208506.8814
 01  7 14 19 12  0.0000000  0  9 14 03 23 21 18 17 31 15 29
  22344335.027   -16932422.035 8 -13175375.96746  22344334.819    22344341.3304
  21199884.867   -22166727.220 9 -17244079.41547  21199884.815    21199891.1334
  22377768.587     5931031.356 8   4619409.77047  22377768.173    22377774.8584
  20945105.648   -22145429.408 9 -17247078.82447  20945105.405    20945111.7134
  20963329.095    -7245083.994 9  -5642951.70447  20963328.870    20963333.7264
  21954747.525     6128962.830 8   4770641.46446  21954747.224    21954754.5314
  22796794.232   -13943983.675 8 -10841036.83646  22796793.958    22796801.1214
  20885822.296    -3310802.022 9  -2582090.36447  20885821.807    20885828.2914
  23188605.078    -9655212.303 8  -7509952.94245  23188605.203    23188613.6444
 01  7 14 19 12 30.0000000  0  9 14 03 23 21 18 17 31 15 29
  22325620.014   -17030769.791 8 -13252010.50346  22325619.795    22325626.2744
  21199183.320   -22170413.841 9 -17246952.11947  21199183.281    21199189.6274
  22390481.555     5997838.906 8   4671467.57146  22390481.212    22390487.8924
  20941461.667   -22164578.543 9 -17262000.21847  20941461.418    20941467.7304
  20972993.936    -7194295.084 9  -5603375.94847  20972993.738    20972998.6214
  21967583.545     6196416.336 8   4823202.63446  21967583.219    21967590.2494
  22784093.981   -14010723.393 8 -10893041.77746  22784093.760    22784100.9174
  20894806.027    -3263591.525 9  -2545302.99347  20894805.637    20894812.2204
  23168745.889    -9759572.603 8  -7591272.51745  23168745.901    23168754.3614
 01  7 14 19 13  0.0000000  0  9 14 03 23 21 18 17 31 15 29
  22306961.648   -17128819.523 8 -13328412.81546  22306961.462    22306967.9384
  21198593.679   -22173512.554 9 -17249366.70747  21198593.629    21198599.9394
  22403214.921     6064752.940 8   4723608.38347  22403214.637    22403221.2264
  20937867.784   -22183464.422 9 -17276716.47947  20937867.566    20937873.8824
  20982708.016    -7143247.082 9  -5563598.29447  20982707.833    20982712.6454
  21980474.095     6264156.541 8   4875987.16846  21980473.805    21980480.6904
  22771482.375   -14076998.044 8 -10944684.31846  22771482.101    22771489.2874
  20903854.691    -3216041.299 9  -2508250.87747  20903854.203    20903860.7414
  23148921.053    -9863752.071 8  -7672451.17445  23148921.086    23148929.4974
 01  7 14 19 13 30.0000000  0  9 14 03 23 21 18 17 31 15 29
  22288360.629   -17226568.532 8 -13404580.80046  22288360.399    22288366.8844
  21198115.934   -22176023.272 9 -17251323.12347  21198115.870    21198122.1654
  22415968.351     6131772.495 8   4775831.33447  22415967.999    22415974.8764
  20934323.843   -22202088.062 9 -17291228.40247  20934323.599    20934329.9124
  20992471.094    -7091941.910 9  -5523620.25347  20992470.915    20992475.7894
  21993419.031     6332182.964 8   4928994.71346  21993418.733    21993425.8034
  22758959.625   -14142805.584 8 -10995962.87346  22758959.320    22758966.5044
  20912967.905    -3168151.201 9  -2470933.93647  20912967.394    20912973.9264
  23129131.066    -9967748.274 8  -7753487.03645  23129131.156    23129139.5744
 01  7 14 19 14  0.0000000  0  9 14 03 23 21 18 17 31 15 29
  22269817.155   -17324014.885 8 -13480512.94246  22269816.907    22269823.4564
  21197749.968   -22177946.384 9 -17252821.66447  21197749.923    21197756.2214
  22428741.436     6198896.051 8   4828135.36746  22428741.155    22428748.0104
  20930829.729   -22220449.661 9 -17305536.13447  20930829.498    20930835.7854
  21002282.817    -7040381.135 9  -5483443.04647  21002282.592    21002287.4674
  22006418.345     6400495.268 8   4982225.01646  22006418.084    22006425.3214
  22746526.119   -14208143.784 8 -11046875.72246  22746525.828    22746532.9974
  20922145.606    -3119921.570 9  -2433352.44047  20922145.180    20922151.7764
  23109376.527   -10071559.185 8  -7834378.51445  23109376.522    23109384.8024
 01  7 14 19 14 30.0000000  0  9 14 03 23 21 18 17 31 15 29
  22251331.887   -17421155.060 8 -13556206.50746  22251331.654    22251338.1774
  21197496.070   -22179281.032 9 -17253861.66547  21197495.999    21197502.2544
  22441534.456     6266123.155 8   4880520.13046  22441534.169    22441540.8824
  20927385.566   -22238548.895 9 -17319639.42747  20927385.333    20927391.6004
  21012143.004    -6988565.434 9  -5443067.18647  21012142.786    21012147.6524
  22019472.358     6469093.702 8   5035678.29846  22019472.066    22019479.3224
  22734182.463   -14273009.943 8 -11097420.74046  22734182.093    22734189.3504
  20931388.280    -3071351.839 9  -2395505.91547  20931387.812    20931394.3444
  23089657.629   -10175181.664 8  -7915123.16845  23089657.663    23089665.9444
 01  7 14 19 15  0.0000000  0  9 14 03 23 21 18 17 31 15 29
  22232904.937   -17517989.132 8 -13631661.55746  22232904.710    22232911.1844
  21197353.638   -22180029.641 9 -17254445.00847  21197353.557    21197359.7914
  22454346.393     6333450.389 8   4932982.86646  22454346.070    22454352.8884
  20923990.716   -22256389.187 9 -17333540.94847  20923990.463    20923996.7164
  21022050.849    -6936498.974 9  -5402495.94247  21022050.677    21022055.6424
  22032580.203     6537975.560 8   5089352.44246  22032579.872    22032587.1084
  22721928.694   -14337404.481 8 -11147598.27446  22721928.266    22721935.4434
  20940695.023    -3022444.657 9  -2357396.44247  20940694.509    20940701.0784
  23069974.507   -10278615.883 8  -7995721.13446  23069974.709    23069982.9644
 01  7 14 19 15 30.0000000  0  9 14 03 23 21 18 17 31 15 29
  22214537.466   -17614510.698 8 -13706873.09146  22214537.256    22214543.6324
  21197323.463   -22180188.110 9 -17254568.50447  21197323.378    21197329.6334
  22467177.867     6400880.281 8   4985525.56746  22467177.567    22467184.4204
  20920645.692   -22273967.376 9 -17347238.23547  20920645.448    20920651.6744
  21032006.955    -6884179.274 9  -5361727.35747  21032006.824    21032011.6964
  22045742.479     6607144.221 8   5143250.05446  22045742.220    22045749.3724
  22709765.611   -14401321.528 8 -11197403.72546  22709765.257    22709772.3724
  20950066.572    -2973196.359 9  -2319021.17147  20950066.111    20950072.7034
  23050328.591   -10381855.754 8  -8076167.65646  23050328.720    23050336.9374
 01  7 14 19 16  0.0000000  0  9 14 03 23 21 18 17 31 15 29
  22196229.483   -17710719.385 8 -13781840.83346  22196229.300    22196235.6574
  21197405.187   -22179758.779 9 -17254233.97547  21197405.112    21197411.3634
  22480028.243     6468409.454 8   5038145.69046  22480028.020    22480034.7774
  20917350.080   -22291285.921 9 -17360733.20347  20917349.850    20917356.0814
  21042010.520    -6831610.192 9  -5320764.46347  21042010.349    21042015.2914
  22058959.095     6676597.450 8   5197369.42246  22058958.851    22058965.8674
  22697693.365   -14464760.809 8 -11246836.89546  22697693.094    22697700.2454
  20959502.741    -2923609.075 9  -2280381.75947  20959502.308    20959508.8584
  23030719.657   -10484900.865 8  -8156462.41246  23030719.775    23030728.0024
 01  7 14 19 16 30.0000000  0  9 14 03 23 21 18 17 31 15 29
  22177982.253   -17806609.100 8 -13856560.01946  22177982.023    22177988.3504
  21197599.445   -22178738.078 9 -17253438.63147  21197599.337    21197605.6124
  22492898.116     6536040.612 8   5090845.26546  22492897.811    22492904.6384
  20914104.530   -22308341.465 9 -17374023.23147  20914104.277    20914110.5124
  21052062.091    -6778789.452 9  -5279605.46147  21052061.911    21052066.8124
  22072230.563     6746338.353 8   5251712.92146  22072230.273    22072237.2904
  22685713.341   -14527716.525 8 -11295893.26946  22685713.037    22685720.2044
  20969004.115    -2873679.292 9  -2241475.46047  20969003.700    20969010.2234
  23011148.979   -10587745.413 8  -8236600.89546  23011149.033    23011157.2884
 01  7 14 19 17  0.0000000  0  9 14 03 23 21 18 17 31 15 29
  22159795.095   -17902182.679 8 -13931032.87046  22159794.903    22159801.2394
  21197905.182   -22177131.367 9 -17252186.65947  21197905.076    21197911.3334
  22505785.970     6603767.223 8   5143619.22446  22505785.669    22505792.4644
  20910907.834   -22325140.082 9 -17387113.05647  20910907.570    20910913.8114
  21062160.083    -6725723.655 9  -5238255.49947  21062159.920    21062164.8234
  22085555.337     6816361.192 8   5306276.09446  22085555.069    22085562.4004
  22673824.611   -14590192.400 8 -11344575.71846  22673824.288    22673831.3724
  20978569.575    -2823412.737 9  -2202306.73547  20978569.089    20978575.6134
  22991615.840   -10690392.555 8  -8316585.56046  22991615.836    22991624.0444
 01  7 14 19 17 30.0000000  0  9 14 03 23 21 18 17 31 15 29
  22141669.026   -17997435.793 8 -14005256.01146  22141668.802    22141675.1214
  21198322.757   -22174936.997 9 -17250476.77547  21198322.667    21198328.9324
  22518692.218     6671590.106 8   5196468.17346  22518691.904    22518698.7794
  20907760.294   -22341680.438 9 -17400001.64447  20907760.049    20907766.2614
  21072304.908    -6672412.355 9  -5196714.25147  21072304.797    21072309.7094
  22098934.117     6886667.657 8   5361060.29846  22098933.886    22098941.3034
  22662027.922   -14652184.352 8 -11392881.10946  22662027.625    22662034.6294
  20988199.483    -2772807.268 9  -2162873.93047  20988199.002    20988205.5624
  22972120.960   -10792837.850 8  -8396412.95046  22972121.032    22972129.2254
 01  7 14 19 18  0.0000000  0  9 14 03 23 21 18 17 31 15 29
  22123604.454   -18092365.765 8 -14079227.34746  22123604.188    22123610.4884
  21198852.154   -22172155.038 9 -17248309.02747  21198852.030    21198858.3324
  22531616.733     6739508.185 8   5249391.29647  22531616.426    22531623.3514
  20904661.841   -22357963.084 9 -17412689.42047  20904661.574    20904667.7784
  21082496.194    -6618857.108 9  -5154982.90147  21082495.982    21082500.8534
  22112366.930     6957257.646 8   5416065.43946  22112366.647    22112373.9854
  22650323.787   -14713689.910 8 -11440807.47946  22650323.477    22650330.5184
  20997893.848    -2721863.042 9  -2123177.15147  20997893.361    20997899.8834
  22952664.958   -10895078.967 8  -8476081.23146  22952665.061    22952673.2904
 01  7 14 19 18 30.0000000  0  9 14 03 23 21 18 17 31 15 29
  22105601.927   -18186969.363 8 -14152944.37546  22105601.651    22105607.9444
  21199493.502   -22168784.578 9 -17245682.71047  21199493.406    21199499.6874
  22544559.125     6807521.173 8   5302388.37946  22544558.846    22544565.7734
  20901612.396   -22373987.832 9 -17425176.24047  20901612.125    20901618.3634
  21092733.748    -6565058.430 9  -5113061.88947  21092733.614    21092738.5424
  22125853.676     7028131.338 8   5471291.64546  22125853.420    22125860.7444
  22638712.706   -14774706.414 8 -11488352.77346  22638712.416    22638719.4054
  21007652.728    -2670579.567 9  -2083216.03147  21007652.305    21007658.8554
  22933248.465   -10997112.669 8  -8555587.89846  22933248.632    22933256.7754
 01  7 14 19 19  0.0000000  0  9 14 03 23 21 18 17 31 15 29
  22087662.068   -18281243.430 8 -14226404.63246  22087661.800    22087668.1454
  21200246.909   -22164825.390 9 -17242597.64447  21200246.824    21200253.1094
  22557519.583     6875628.610 8   5355459.13446  22557519.334    22557525.9694
  20898612.090   -22389754.495 9 -17437461.95147  20898611.822    20898618.0914
  21103017.485    -6511017.463 9  -5070952.05847  21103017.265    21103022.1944
  22139394.623     7099288.910 8   5526739.07246  22139394.356    22139401.7254
  22627195.221   -14835231.373 8 -11535515.04446  22627194.899    22627201.8684
  21017476.237    -2618956.518 9  -2042990.30547  21017475.814    21017482.4094
  22913872.104   -11098936.222 8  -8634930.82046  22913872.207    22913880.2144
 01  7 14 19 19 30.0000000  0  9 14 03 23 21 18 17 31 15 29
  22069784.922   -18375188.085 8 -14299608.18846  22069784.676    22069791.0594
  21201111.951   -22160280.023 9 -17239055.80847  21201111.836    21201118.1094
  22570497.464     6943827.094 8   5408600.79346  22570497.131    22570503.7554
  20895660.306   -22405266.212 9 -17449549.00147  20895660.056    20895666.3024
  21113346.438    -6456737.938 9  -5028656.33947  21113346.304    21113351.2154
  22152989.212     7170727.705 8   5582405.61646  22152988.865    22152996.1564
  22615771.097   -14895265.207 8 -11582294.61746  22615770.828    22615777.7974
  21027363.923    -2566996.573 9  -2002502.06347  21027363.509    21027370.1524
  22894535.664   -11200549.669 8  -8714110.00746  22894535.693    22894543.7184
 01  7 14 19 20  0.0000000  0  9 14 03 23 21 18 17 31 15 29
  22051971.269   -18468798.919 8 -14372551.63947  22051971.088    22051977.4564
  21202088.847   -22155146.703 9 -17235055.83147  21202088.699    21202094.9744
  22583492.603     7012117.465 8   5461813.98046  22583492.254    22583499.0924
  20892757.335   -22420521.558 9 -17461436.28647  20892757.055    20892763.3304
  21123721.104    -6402219.401 9  -4986174.38847  21123720.882    21123725.8664
  22166637.199     7242449.227 8   5638292.44846  22166636.917    22166644.2834
  22604441.190   -14954803.927 8 -11628688.39046  22604440.941    22604447.9044
  21037316.150    -2514697.894 9  -1961749.87647  21037315.729    21037322.2894
  22875239.967   -11301948.783 8  -8793122.18546  22875239.951    22875247.9674
 01  7 14 19 20 30.0000000  0  9 14 03 23 21 18 17 31 15 29
  22034221.917   -18562072.787 8 -14445232.51847  22034221.686    22034227.9974
  21203177.636   -22149424.920 9 -17230597.31047  21203177.496    21203183.7864
  22596505.381     7080499.491 8   5515098.64446  22596505.035    22596511.8794
  20889903.163   -22435520.097 9 -17473123.45947  20889902.931    20889909.1814
  21134140.962    -6347462.513 9  -4943506.70547  21134140.799    21134145.7664
  22180339.234     7314453.814 8   5694399.89546  22180339.010    22180346.2724
  22593206.157   -15013844.737 8 -11674694.19046  22593205.849    22593212.7734
  21047332.911    -2462059.990 9  -1920733.35147  21047332.455    21047338.8714
  22855985.528   -11403130.526 8  -8871965.00046  22855985.590    22855993.5124
 01  7 14 19 21  0.0000000  0  9 14 03 23 21 18 17 31 15 29
  22016536.677   -18655009.460 8 -14517650.64347  22016536.409    22016542.6174
  21204377.922   -22143117.271 9 -17225682.26947  21204377.795    21204384.1004
  22609534.772     7148969.878 8   5568452.13946  22609534.455    22609541.3954
  20887097.360   -22450264.767 9 -17484612.80847  20887097.094    20887103.3494
  21144605.563    -6292471.096 9  -4900656.26247  21144605.345    21144610.2734
  22194094.739     7386738.832 8   5750725.84246  22194094.498    22194101.7704
  22582065.793   -15072387.845 8 -11720312.16546  22582065.411    22582072.2744
  21057413.695    -2409085.166 9  -1879454.29547  21057413.226    21057419.6004
  22836772.517   -11504094.833 8  -8950638.38046  22836772.612    22836780.5174
 01  7 14 19 21 30.0000000  0  9 14 03 23 21 18 17 31 15 29
  21998916.402   -18747604.328 8 -14589802.43247  21998916.168    21998922.3184
  21205690.071   -22136221.918 9 -17220309.28647  21205689.956    21205696.2084
  22622581.356     7217529.711 8   5621875.38446  22622581.053    22622587.7744
  20884340.132   -22464754.064 9 -17495903.17047  20884339.872    20884346.1154
  21155114.847    -6237244.224 9  -4857622.35747  21155114.699    21155119.6004
  22207903.907     7459306.077 8   5807271.68646  22207903.658    22207910.8974
  22571020.774   -15130429.122 8 -11765539.11246  22571020.418    22571027.2974
  21067559.051    -2355771.371 9  -1837911.10247  21067558.543    21067564.9014
  22817601.773   -11604837.239 8  -9029138.84446  22817601.873    22817609.8614
 01  7 14 19 22  0.0000000  0  9 14 03 23 21 18 17 31 15 29
  21981361.018   -18839858.340 8 -14661688.63047  21981360.741    21981366.9054
  21207113.399   -22128742.431 9 -17214481.12847  21207113.271    21207119.5254
  22635644.081     7286174.683 8   5675364.95746  22635643.710    22635650.4174
  20881630.801   -22478991.701 9 -17506997.43347  20881630.538    20881636.7884
  21165668.145    -6181786.622 9  -4814408.65747  21165667.893    21165672.8514
  22221766.055     7532151.690 8   5864034.45246  22221765.821    22221773.1164
  22560071.044   -15187970.069 8 -11810376.18646  22560070.658    22560077.6274
  21077768.062    -2302122.189 9  -1796106.58547  21077767.585    21077774.0684
  22798473.134   -11705358.703 8  -9107467.15746  22798473.236    22798481.1644
 01  7 14 19 22 30.0000000  0  9 14 03 23 21 18 17 31 15 29
  21963871.558   -18931765.616 8 -14733304.64047  21963871.299    21963877.4874
  21208648.427   -22120675.793 9 -17208195.45347  21208648.318    21208654.5794
  22648723.351     7354907.186 8   5728922.68846  22648723.055    22648729.9114
  20878969.939   -22492974.672 9 -17517893.25947  20878969.670    20878975.9364
  21176265.590    -6126096.559 9  -4771013.83247  21176265.406    21176270.3264
  22235681.844     7605278.835 8   5921016.59046  22235681.598    22235688.8464
  22549217.588   -15245005.195 8 -11854819.11246  22549217.262    22549224.1914
  21088041.524    -2248134.422 9  -1754038.22847  21088041.033    21088047.5894
  22779387.530   -11805653.813 8  -9185619.08246  22779387.608    22779395.5724
 01  7 14 19 23  0.0000000  0  9 14 03 23 21 18 17 31 15 29
  21946448.608   -19023323.646 8 -14804648.50447  21946448.360    21946454.4834
  21210295.182   -22112022.036 9 -17201452.28147  21210295.078    21210301.3624
  22661819.237     7423726.262 8   5782547.89246  22661818.929    22661825.9234
  20876357.412   -22506703.486 9 -17528591.03847  20876357.159    20876363.4044
  21186907.183    -6070175.168 9  -4727438.74547  21186906.950    21186911.9354
  22249650.965     7678687.123 8   5978217.82346  22249650.658    22249658.0234
  22538460.747   -15301532.603 8 -11898866.41646  22538460.419    22538467.3444
  21098379.473    -2193808.172 9  -1711706.11647  21098379.026    21098385.5124
  22760345.499   -11905720.099 8  -9263592.71746  22760345.591    22760353.5544
 01  7 14 19 23 30.0000000  0  9 14 03 23 21 18 17 31 15 29
  21929092.321   -19114532.003 8 -14875719.89747  21929092.006    21929098.0224
  21212053.239   -22102783.723 9 -17194253.61247  21212053.101    21212059.3844
  22674930.929     7492629.093 8   5836238.35546  22674930.592    22674937.7244
  20873792.828   -22520180.675 9 -17539092.73947  20873792.554    20873798.7944
  21197591.989    -6014025.658 9  -4683685.88847  21197591.802    21197596.7254
  22263673.052     7752374.270 8   6035636.32846  22263672.770    22263680.3584
  22527800.632   -15357552.330 8 -11942518.11746  22527800.258    22527807.1474
  21108781.664    -2139145.562 9  -1669111.89347  21108781.155    21108787.4714
  22741347.082   -12005557.004 8  -9341387.60346  22741347.153    22741355.1164
 01  7 14 19 24  0.0000000  0  9 14 03 23 21 18 17 31 15 29
  21911803.006   -19205387.598 8 -14946516.41947  21911802.695    21911808.7034
  21213922.508   -22092960.385 9 -17186599.08047  21213922.387    21213928.7074
  22688058.613     7561615.053 8   5889993.65546  22688058.364    22688065.2024
  20871276.158   -22533405.936 9 -17549398.13547  20871275.866    20871282.1064
  21208320.179    -5957649.001 9  -4639756.05947  21208319.946    21208324.9574
  22277748.318     7826340.419 8   6093272.22546  22277748.016    22277755.8284
  22517237.551   -15413061.706 8 -11985772.13846  22517237.151    22517244.0164
  21119247.679    -2084146.551 9  -1626255.54847  21119247.189    21119253.6154
  22722392.808   -12105161.709 8  -9419001.57146  22722392.955    22722400.8834
 01  7 14 19 24 30.0000000  0  9 14 03 23 21 18 17 31 15 29
  21894581.204   -19295888.053 8 -15017036.19747  21894580.937    21894586.9784
  21215903.021   -22082552.550 9 -17178489.09547  21215902.936    21215909.2804
  22701202.107     7630683.214 8   5943812.99146  22701201.775    22701208.4084
  20868807.292   -22546379.845 9 -17559507.67047  20868807.026    20868813.2674
  21219091.163    -5901046.584 9  -4595650.29147  21219090.999    21219095.9804
  22291876.630     7900585.048 8   6151125.13246  22291876.405    22291884.1074
  22506771.894   -15468059.152 8 -12028627.25546  22506771.466    22506778.3554
  21129777.722    -2028811.113 9  -1583137.04547  21129777.210    21129783.7614
  22703483.444   -12204531.810 8  -9496432.70546  22703483.416    22703491.2314
 01  7 14 19 25  0.0000000  0  9 14 03 23 21 18 17 31 15 29
  21877427.424   -19386031.475 8 -15087277.76847  21877427.172    21877433.2024
  21217994.698   -22071561.192 9 -17169924.41847  21217994.568    21218000.8864
  22714360.787     7699832.402 8   5997695.40846  22714360.435    22714367.2154
  20866386.073   -22559103.431 9 -17569422.15247  20866385.812    20866392.0464
  21229904.922    -5844220.221 9  -4551370.02647  21229904.732    21229909.6714
  22306058.030     7975107.391 8   6209194.42646  22306057.727    22306065.2884
  22496403.870   -15522543.254 8 -12071082.37746  22496403.434    22496410.2624
  21140371.569    -1973139.823 9  -1539756.85647  21140371.076    21140377.7224
  22684618.846   -12303665.607 8  -9573679.71946  22684618.825    22684626.5454
 01  7 14 19 25 30.0000000  0  9 14 03 23 21 18 17 31 15 29
  21860342.347   -19475814.339 9 -15157238.38847  21860342.060    21860348.0514
  21220197.421   -22059985.698 9 -17160904.56847  21220197.273    21220203.6444
  22727534.872     7769062.664 8   6051641.03846  22727534.526    22727541.3214
  20864012.625   -22571575.922 9 -17579140.97447  20864012.355    20864018.5954
  21240761.255    -5787170.085 9  -4506915.40847  21240761.027    21240766.0294
  22320292.279     8049908.115 8   6267480.65246  22320291.963    22320299.3554
  22486134.225   -15576510.918 8 -12113135.06646  22486133.744    22486140.5854
  21151029.425    -1917131.941 9  -1496114.38047  21151028.967    21151035.5994
  22665799.817   -12402559.795 8  -9650740.02346  22665799.853    22665807.4734
 01  7 14 19 26  0.0000000  0  9 14 03 23 21 18 17 31 15 29
  21843326.232   -19565234.573 8 -15226916.44047  21843325.940    21843331.9134
  21222511.254   -22047826.585 9 -17151429.94947  21222511.111    21222517.4574
  22740724.162     7838372.849 8   6105648.94546  22740723.844    22740730.6604
  20861686.759   -22583798.459 9 -17588665.02547  20861686.485    20861692.7064
  21251659.857    -5729897.804 9  -4462287.66647  21251659.682    21251664.6024
  22334579.155     8124986.409 8   6325983.16446  22334578.853    22334586.1694
  22475962.925   -15629960.752 8 -12154784.26246  22475962.545    22475969.4324
  21161751.466    -1860787.783 9  -1452209.86747  21161750.995    21161757.4434
  22647026.743   -12501212.340 8  -9727612.03946  22647026.800    22647034.4024
 01  7 14 19 26 30.0000000  0  9 14 03 23 21 18 17 31 15 29
  21826379.705   -19654288.903 8 -15296309.37047  21826379.422    21826385.3984
  21224936.173   -22035083.645 9 -17141500.39947  21224936.023    21224942.3754
  22753928.724     7907762.734 8   6159718.91746  22753928.413    22753935.3094
  20859408.604   -22595770.310 9 -17597993.73547  20859408.302    20859414.5284
  21262600.575    -5672403.825 9  -4417487.20447  21262600.368    21262605.4274
  22348918.975     8200342.791 8   6384702.35646  22348918.706    22348925.9534
  22465890.892   -15682889.664 8 -12196027.54146  22465890.538    22465897.4164
  21172537.548    -1804107.053 9  -1408043.08347  21172537.048    21172543.3914
  22628300.255   -12599619.913 8  -9804293.16946  22628300.354    22628307.9634
